[[{"header":{"parameterUnit":"m.s-1","parameterCategory":1,"la1":30.6,"la2":28.766,"lo1":-90.7593,"lo2":-88.6598,"dy":0.0162,"dx":0.0183,"nx":116,"ny":114,"refTime":"2023-09-17T18:00:00:Z","depth":0,"parameterNumber":2,"parameterNumberName":"U-component_of_WINDS"},"data":[0.0,0.0,0.0,0.0,0.0,0.0,0.0,0.0,0.0,0.0,0.0,0.0,0.0,0.0,0.0,0.0,0.0,0.0,0.0,0.0,0.0,0.0,0.0,0.0,0.0,0.0,0.0,0.0,0.0,0.0,0.0,0.0,0.0,0.0,0.0,0.0,0.0,0.0,0.0,0.0,0.0,0.0,0.0,0.0,0.0,0.0,0.0,0.0,0.0,0.0,0.0,0.0,0.0,0.0,0.0,0.0,0.0,0.0,0.0,0.0,0.0,0.0,0.0,0.0,0.0,0.0,0.0,0.0,0.0,0.0,0.0,0.0,0.0,0.0,0.0,0.0,0.0,0.0,0.0,0.0,0.0,0.0,0.0,0.0,0.0,0.0,0.0,0.0,0.0,0.0,0.0,0.0,0.0,0.0,0.0,0.0,0.0,0.0,0.0,0.0,0.0,0.0,0.0,0.0,0.0,0.0,0.0,0.0,0.0,0.0,0.0,0.0,0.0,0.0,0.0,0.0,0.0,0.0,0.0,0.0,0.0,0.0,0.0,0.0,0.0,0.0,0.0,0.0,0.0,0.0,0.0,0.0,0.0,0.0,0.0,0.0,0.0,0.0,0.0,0.0,0.0,0.0,0.0,0.0,0.0,0.0,0.0,0.0,0.0,0.0,0.0,0.0,0.0,0.0,0.0,0.0,0.0,0.0,0.0,0.0,0.0,0.0,0.0,0.0,0.0,0.0,0.0,0.0,0.0,0.0,0.0,0.0,0.0,0.0,0.0,0.0,0.0,0.0,0.0,0.0,0.0,0.0,0.0,0.0,0.0,0.0,0.0,0.0,0.0,0.0,0.0,0.0,0.0,0.0,0.0,0.0,0.0,0.0,0.0,0.0,0.0,0.0,0.0,0.0,0.0,0.0,0.0,0.0,0.0,0.0,0.0,0.0,0.0,0.0,0.0,0.0,0.0,0.0,0.0,0.0,0.0,0.0,0.0,0.0,0.0,0.0,0.0,0.0,0.0,0.0,0.0,0.0,0.0,0.0,0.0,0.0,0.0,0.0,0.0,0.0,0.0,0.0,0.0,0.0,0.0,0.0,0.0,0.0,0.0,0.0,0.0,0.0,0.0,0.0,0.0,0.0,0.0,0.0,0.0,0.0,0.0,0.0,0.0,0.0,0.0,0.0,0.0,0.0,0.0,0.0,0.0,0.0,0.0,0.0,0.0,0.0,0.0,0.0,0.0,0.0,0.0,0.0,0.0,0.0,0.0,0.0,0.0,0.0,0.0,0.0,0.0,0.0,0.0,0.0,0.0,0.0,0.0,0.0,0.0,0.0,0.0,0.0,0.0,0.0,0.0,0.0,0.0,0.0,0.0,0.0,0.0,0.0,0.0,0.0,0.0,0.0,0.0,0.0,0.0,0.0,0.0,0.0,0.0,0.0,0.0,0.0,0.0,0.0,0.0,0.0,0.0,0.0,0.0,0.0,0.0,0.0,0.0,0.0,0.0,0.0,0.0,0.0,0.0,0.0,0.0,0.0,0.0,0.0,0.0,0.0,0.0,0.0,0.0,0.0,0.0,0.0,0.0,0.0,0.0,0.0,0.0,0.0,0.0,0.0,0.0,0.0,0.0,0.0,0.0,0.0,0.0,0.0,0.0,0.0,0.0,0.0,0.0,0.0,0.0,0.0,0.0,0.0,0.0,0.0,0.0,0.0,0.0,0.0,0.0,0.0,0.0,0.0,0.0,0.0,0.0,0.0,0.0,0.0,0.0,0.0,0.0,0.0,0.0,0.0,0.0,0.0,0.0,0.0,0.0,0.0,0.0,0.0,0.0,0.0,0.0,0.0,0.0,0.0,0.0,0.0,0.0,0.0,0.0,0.0,0.0,0.0,0.0,0.0,0.0,0.0,0.0,0.0,0.0,0.0,0.0,0.0,0.0,0.0,0.0,0.0,0.0,0.0,0.0,0.0,0.0,0.0,0.0,0.0,0.0,0.0,0.0,0.0,0.0,0.0,0.0,0.0,0.0,0.0,0.0,0.0,0.0,0.0,0.0,0.0,0.0,0.0,0.0,0.0,0.0,0.0,0.0,0.0,0.0,0.0,0.0,0.0,0.0,0.0,0.0,0.0,0.0,0.0,0.0,0.0,0.0,0.0,0.0,0.0,0.0,0.0,0.0,0.0,0.0,0.0,0.0,0.0,0.0,0.0,0.0,0.0,0.0,0.0,0.0,0.0,0.0,0.0,0.0,0.0,0.0,0.0,0.0,0.0,0.0,0.0,0.0,0.0,0.0,0.0,0.0,0.0,0.0,0.0,0.0,0.0,0.0,0.0,0.0,0.0,0.0,0.0,0.0,0.0,0.0,0.0,0.0,0.0,0.0,0.0,0.0,0.0,0.0,0.0,0.0,0.0,0.0,0.0,0.0,0.0,0.0,0.0,0.0,0.0,0.0,0.0,0.0,0.0,0.0,0.0,0.0,0.0,0.0,0.0,0.0,0.0,0.0,0.0,0.0,0.0,0.0,0.0,0.0,0.0,0.0,0.0,0.0,0.0,0.0,0.0,0.0,0.0,0.0,0.0,0.0,0.0,0.0,0.0,0.0,0.0,0.0,0.0,0.0,0.0,0.0,0.0,0.0,0.0,0.0,0.0,0.0,0.0,0.0,0.0,0.0,0.0,0.0,0.0,0.0,0.0,0.0,0.0,0.0,0.0,0.0,0.0,0.0,0.0,0.0,0.0,0.0,0.0,0.0,0.0,0.0,0.0,0.0,0.0,0.0,0.0,0.0,0.0,0.0,0.0,0.0,0.0,0.0,0.0,0.0,0.0,0.0,0.0,0.0,0.0,0.0,0.0,0.0,0.0,0.0,0.0,0.0,0.0,0.0,0.0,0.0,0.0,0.0,0.0,0.0,0.0,0.0,0.0,0.0,0.0,0.0,0.0,0.0,0.0,0.0,0.0,0.0,0.0,0.0,0.0,0.0,0.0,0.0,0.0,0.0,0.0,0.0,0.0,0.0,0.0,0.0,0.0,0.0,0.0,0.0,0.0,0.0,0.0,0.0,0.0,0.0,0.0,0.0,0.0,0.0,0.0,0.0,0.0,0.0,0.0,0.0,0.0,0.0,0.0,0.0,0.0,0.0,0.0,0.0,0.0,0.0,0.0,0.0,0.0,0.0,0.0,0.0,0.0,0.0,0.0,0.0,0.0,0.0,0.0,0.0,0.0,0.0,0.0,0.0,0.0,0.0,0.0,0.0,0.0,0.0,0.0,0.0,0.0,0.0,0.0,0.0,0.0,0.0,0.0,0.0,0.0,0.0,0.0,0.0,0.0,0.0,0.0,0.0,0.0,0.0,0.0,0.0,0.0,0.0,0.0,0.0,0.0,0.0,0.0,0.0,0.0,0.0,0.0,0.0,0.0,0.0,0.0,0.0,0.0,0.0,0.0,0.0,0.0,0.0,0.0,0.0,0.0,0.0,0.0,0.0,0.0,0.0,0.0,0.0,0.0,0.0,0.0,0.0,0.0,0.0,0.0,0.0,0.0,0.0,0.0,0.0,0.0,0.0,0.0,0.0,0.0,0.0,0.0,0.0,0.0,0.0,0.0,0.0,0.0,0.0,0.0,0.0,0.0,0.0,0.0,0.0,0.0,0.0,0.0,0.0,0.0,0.0,0.0,0.0,0.0,0.0,0.0,0.0,0.0,0.0,0.0,0.0,0.0,0.0,0.0,0.0,0.0,0.0,0.0,0.0,0.0,0.0,0.0,0.0,0.0,0.0,0.0,0.0,0.0,0.0,0.0,0.0,0.0,0.0,0.0,0.0,0.0,0.0,0.0,0.0,0.0,0.0,0.0,0.0,0.0,0.0,0.0,0.0,0.0,0.0,0.0,0.0,0.0,0.0,0.0,0.0,0.0,0.0,0.0,0.0,0.0,0.0,0.0,0.0,0.0,0.0,0.0,0.0,0.0,0.0,0.0,0.0,0.0,0.0,0.0,0.0,0.0,0.0,0.0,0.0,0.0,0.0,0.0,0.0,0.0,0.0,0.0,0.0,0.0,0.0,0.0,0.0,0.0,0.0,0.0,0.0,0.0,0.0,0.0,0.0,0.0,0.0,0.0,0.0,0.0,0.0,0.0,0.0,0.0,0.0,0.0,0.0,0.0,0.0,0.0,0.0,0.0,0.0,0.0,0.0,0.0,0.0,0.0,0.0,0.0,0.0,0.0,0.0,0.0,0.0,0.0,0.0,0.0,0.0,0.0,0.0,0.0,0.0,0.0,0.0,0.0,0.0,0.0,0.0,0.0,0.0,0.0,0.0,0.0,0.0,0.0,0.0,0.0,0.0,0.0,0.0,0.0,0.0,0.0,0.0,0.0,0.0,0.0,0.0,0.0,0.0,0.0,0.0,0.0,0.0,0.0,0.0,0.0,0.0,0.0,0.0,0.0,0.0,0.0,0.0,0.0,0.0,0.0,0.0,0.0,0.0,0.0,0.0,0.0,0.0,0.0,0.0,0.0,0.0,0.0,0.0,0.0,0.0,0.0,0.0,0.0,0.0,0.0,0.0,0.0,0.0,0.0,0.0,0.0,0.0,0.0,0.0,0.0,0.0,0.0,0.0,0.0,0.0,0.0,0.0,0.0,0.0,0.0,0.0,0.0,0.0,0.0,0.0,0.0,0.0,0.0,0.0,0.0,0.0,0.0,0.0,0.0,0.0,0.0,0.0,0.0,0.0,0.0,0.0,0.0,0.0,0.0,0.0,0.0,0.0,0.0,0.0,0.0,0.0,0.0,0.0,0.0,0.0,0.0,0.0,0.0,0.0,0.0,0.0,0.0,0.0,0.0,0.0,0.0,0.0,0.0,0.0,0.0,0.0,0.0,0.0,0.0,0.0,0.0,0.0,0.0,0.0,0.0,0.0,0.0,0.0,0.0,0.0,0.0,0.0,0.0,0.0,0.0,0.0,0.0,0.0,0.0,0.0,0.0,0.0,0.0,0.0,0.0,0.0,0.0,0.0,0.0,0.0,0.0,0.0,0.0,0.0,0.0,0.0,0.0,0.0,0.0,0.0,0.0,0.0,0.0,0.0,0.0,0.0,0.0,0.0,0.0,0.0,0.0,0.0,0.0,0.0,0.0,0.0,0.0,0.0,0.0,0.0,0.0,0.0,0.0,0.0,0.0,0.0,0.0,0.0,0.0,0.0,0.0,0.0,0.0,0.0,0.0,0.0,0.0,0.0,0.0,0.0,0.0,0.0,0.0,0.0,0.0,0.0,0.0,0.0,0.0,0.0,0.0,0.0,0.0,0.0,0.0,0.0,0.0,0.0,0.0,0.0,0.0,0.0,0.0,0.0,0.0,0.0,0.0,0.0,0.0,0.0,0.0,0.0,0.0,0.0,0.0,0.0,0.0,0.0,0.0,0.0,0.0,0.0,0.0,0.0,0.0,0.0,0.0,0.0,0.0,0.0,0.0,0.0,0.0,0.0,0.0,0.0,0.0,0.0,0.0,0.0,0.0,0.0,0.0,0.0,0.0,0.0,0.0,0.0,0.0,0.0,0.0,0.0,0.0,0.0,0.0,0.0,0.0,0.0,0.0,0.0,0.0,0.0,0.0,0.0,0.0,0.0,0.0,0.0,0.0,0.0,0.0,0.0,0.0,0.0,0.0,0.0,0.0,0.0,0.0,0.0,0.0,0.0,0.0,0.0,0.0,0.0,0.0,0.0,0.0,0.0,0.0,0.0,0.0,0.0,0.0,0.0,0.0,0.0,0.0,0.0,0.0,0.0,0.0,0.0,0.0,0.0,0.0,0.0,0.0,0.0,0.0,0.0,0.0,0.0,0.0,0.0,0.0,0.0,0.0,0.0,0.0,0.0,0.0,0.0,0.0,0.0,0.0,0.0,0.0,0.0,0.0,0.0,0.0,0.0,0.0,0.0,0.0,0.0,0.0,0.0,0.0,0.0,0.0,0.0,0.0,0.0,0.0,0.0,0.0,0.0,0.0,0.0,0.0,0.0,0.0,0.0,0.0,0.0,0.0,0.0,0.0,0.0,0.0,0.0,0.0,0.0,0.0,0.0,0.0,0.0,0.0,0.0,0.0,0.0,0.0,2.3888,2.2408,0.0,0.0,0.0,0.0,0.0,0.0,0.0,0.0,0.0,0.0,0.0,0.0,0.0,0.0,0.0,0.0,0.0,0.0,0.0,0.0,0.0,0.0,0.0,0.0,0.0,0.0,0.0,0.0,0.0,0.0,0.0,0.0,0.0,0.0,0.0,0.0,0.0,0.8324,0.9404,1.0556,1.1754,1.155,1.0872,0.9814,0.0,0.0,0.0,0.0,0.0,0.0,0.0,0.0,0.0,0.0,0.0,0.0,0.0,0.0,0.0,0.0,0.0,0.0,0.0,0.0,0.0,0.0,0.0,0.0,0.0,0.0,0.0,0.0,0.0,0.0,0.0,0.0,0.0,0.0,0.0,0.0,0.0,0.0,0.0,0.0,0.0,0.0,0.0,0.0,0.0,0.0,0.0,0.0,0.0,0.0,0.0,0.0,0.0,0.0,0.0,0.0,0.0,0.0,0.0,0.0,0.0,0.0,0.0,0.0,0.0,0.0,0.0,0.0,0.0,0.0,2.5293,2.4318,0.0,0.0,0.0,0.0,0.0,0.0,0.0,0.0,0.0,0.0,0.0,0.0,0.0,0.0,0.0,0.0,0.0,0.0,0.0,0.0,0.0,0.0,0.0,0.8463,0.8421,0.8789,0.847,0.818,0.0,0.0,0.0,0.0,0.0,0.0,0.0,0.8456,0.8649,0.9228,1.1191,1.2898,1.4328,1.4328,1.32,1.1143,1.0195,0.0,0.0,0.0,0.0,0.0,0.0,0.0,0.0,0.0,0.0,0.0,0.0,0.0,0.0,0.0,0.0,0.0,0.0,0.0,0.0,0.0,0.0,0.0,0.0,0.0,0.0,0.0,0.0,0.0,0.0,0.0,0.0,0.0,0.0,0.0,0.0,0.0,0.0,0.0,0.0,0.0,0.0,0.0,0.0,0.0,0.0,0.0,0.0,0.0,0.0,0.0,0.0,0.0,0.0,0.0,0.0,0.0,0.0,0.0,0.0,0.0,0.0,0.0,2.6109,2.6664,2.6854,2.6806,2.7126,2.7688,2.6728,2.6457,2.6499,2.4704,0.0,0.0,0.0,0.0,0.0,0.0,0.0,0.0,0.0,0.0,0.0,0.0,0.0,0.0,0.0,0.0,0.0,0.0,0.0,0.0,0.0,0.8491,0.834,0.884,0.8619,0.8449,0.8428,0.0,0.0,0.0,0.0,0.0,0.7857,0.8099,0.8846,1.0136,1.2981,1.4668,1.523,1.523,1.5044,1.4664,1.3444,1.291,1.2812,0.0,0.0,0.0,0.0,0.0,0.0,0.0,0.0,0.0,0.0,0.0,0.0,0.0,0.0,0.0,0.0,0.0,0.0,0.0,0.0,0.0,0.0,0.0,0.0,0.0,0.0,0.0,0.0,0.0,0.0,0.0,0.0,0.0,0.0,0.0,0.0,0.0,0.0,0.0,0.0,0.0,2.0193,1.9867,0.0,0.0,0.0,0.0,0.0,0.0,0.0,0.0,0.0,0.0,0.0,0.0,0.0,2.3681,2.3679,2.4864,2.544,2.5451,2.6344,2.7268,2.8229,2.7998,2.8468,2.9453,2.9302,0.0,2.7211,2.7369,0.0,0.0,0.0,0.0,0.0,0.0,0.0,0.0,0.0,0.0,0.0,0.0,0.0,0.0,0.0,0.0,0.0,0.0,0.0,0.0,0.0,0.9477,0.9929,1.0425,1.0945,1.0839,0.986,1.0031,0.0,0.0,0.0,0.882,0.9043,0.9753,1.1241,1.3561,1.4882,1.5992,1.6859,1.6859,1.6859,1.683,1.6274,1.521,1.3796,1.3022,0.0,0.0,0.0,0.0,0.0,0.0,0.0,0.0,0.0,0.0,0.0,0.0,0.0,0.0,0.0,0.0,0.0,0.0,0.0,0.0,0.0,0.0,0.0,0.0,0.0,0.0,0.0,0.0,0.0,0.0,0.0,0.0,0.0,0.0,0.0,0.0,0.0,0.0,0.0,1.9778,1.9918,2.0048,2.0902,2.1217,0.0,0.0,0.0,0.0,0.0,0.0,0.0,0.0,0.0,2.3491,2.3708,2.3803,2.3803,2.4917,2.5429,2.5287,2.6311,2.6996,2.7363,2.725,2.7615,2.8283,2.8283,2.7874,2.725,2.7841,2.767,2.6942,0.0,0.0,0.0,0.0,2.6008,2.603,0.0,0.0,0.0,0.0,0.0,0.0,0.0,0.0,0.0,0.0,0.0,0.0,0.9648,1.0724,1.1626,1.2159,1.2922,1.2694,1.108,1.1166,1.0577,0.9027,0.8954,0.9221,0.9799,1.1309,1.3358,1.5928,1.6369,1.7077,1.7991,1.7991,1.7991,1.7991,1.7991,1.6918,1.5079,1.4752,1.3887,1.2721,0.0,0.0,0.0,0.0,0.0,0.0,0.0,0.0,0.0,0.0,0.0,0.0,0.0,0.0,0.0,0.0,0.0,0.0,0.0,0.0,0.0,0.0,0.0,0.0,0.0,0.0,0.0,0.0,0.0,0.0,0.0,0.0,0.0,0.0,0.0,0.0,0.0,1.995,2.0039,2.0161,2.1347,2.1716,0.0,0.0,0.0,0.0,0.0,0.0,2.3049,2.3512,2.3708,2.3504,2.3865,2.4033,2.399,2.4907,2.5294,2.5111,2.5903,2.6348,2.6475,2.6412,2.6705,2.724,2.724,2.724,2.73,2.7927,2.8045,2.7749,2.7192,2.6881,2.6769,2.6919,2.6932,2.7037,0.0,0.0,0.0,0.0,0.0,0.0,0.0,0.0,0.0,0.0,0.0,1.0834,1.1235,1.2026,1.2812,1.3537,1.3413,1.2787,1.1549,1.1832,1.1239,0.9447,0.9373,0.927,0.9059,1.1914,1.4069,1.5435,1.7083,1.7949,1.7991,1.7991,1.7991,1.7991,1.7991,1.7939,1.7718,1.651,1.5948,1.5654,1.3191,0.0,0.0,0.0,0.0,0.0,0.0,0.0,0.0,0.0,0.0,0.0,0.0,0.0,0.0,0.0,0.0,0.0,0.0,0.0,0.0,0.0,0.0,0.0,0.0,0.0,0.0,0.0,0.0,0.0,0.0,0.0,0.0,0.0,0.0,0.0,0.0,0.0,0.0,2.0511,2.216,0.0,0.0,0.0,0.0,2.2627,2.3157,2.3307,2.2828,2.345,2.3709,2.3512,2.4314,2.4667,2.4474,2.4909,2.5111,2.5111,2.4951,2.5431,2.6398,2.6197,2.6699,2.7676,2.7676,2.7676,2.7697,2.8198,2.7869,2.7136,2.7904,2.7908,2.7514,2.8012,2.8528,2.9025,0.0,0.0,0.0,0.0,0.0,0.0,0.0,0.0,0.7396,0.7447,0.9138,1.0438,1.0669,1.2806,1.4514,1.5242,1.597,1.5694,1.4049,1.3545,1.244,1.0447,0.9834,1.039,1.2242,1.418,1.5806,1.7064,1.7705,1.8127,1.8401,1.8401,1.8547,1.8838,1.8838,1.8838,1.8769,1.7744,1.6842,1.6032,1.5097,1.3701,0.0,0.0,0.0,0.0,0.0,0.0,0.0,0.0,0.0,0.0,0.0,0.0,0.0,0.0,0.0,0.0,0.0,0.0,0.0,0.0,0.0,0.0,0.0,0.0,0.0,0.0,0.0,0.0,0.0,0.0,0.0,0.0,0.0,0.0,0.0,0.0,0.0,2.1494,2.2548,0.0,2.2258,2.2776,2.3101,2.2982,2.3422,2.3617,2.3445,2.3957,2.4193,2.4081,2.4553,2.4678,2.444,2.4736,2.4815,2.4644,2.5,2.5325,2.5571,2.5755,2.6225,2.686,2.686,2.686,2.6921,2.7651,2.8133,2.8504,2.9472,2.9717,2.957,2.9766,2.9882,2.9988,0.0,0.0,0.0,0.0,0.0,0.0,0.0,0.0,0.7112,0.7816,0.96,1.1131,1.1961,1.4324,1.6168,1.6945,1.7449,1.6916,1.4996,1.4092,1.2669,1.0527,1.0448,1.1799,1.4713,1.5654,1.6783,1.8205,1.8205,1.842,1.884,1.884,1.8996,1.9305,1.9305,1.9305,1.9248,1.8682,1.7956,1.7142,1.6711,1.5503,1.3844,0.0,0.0,0.0,0.0,0.0,0.0,0.0,0.0,0.0,0.0,0.0,0.0,0.0,0.0,0.0,0.0,0.0,0.0,0.0,0.0,0.0,0.0,0.0,0.0,0.0,0.0,0.0,0.0,0.0,0.0,0.0,0.0,0.0,0.0,2.1802,2.2587,2.2001,2.2875,2.3258,2.2571,2.3022,2.3381,2.3405,2.3867,2.4103,2.4007,2.4388,2.4609,2.4642,2.5042,2.519,2.5078,2.5401,2.5446,2.5269,2.5721,2.5868,2.5757,2.601,2.6303,2.6602,2.6602,2.6602,2.6667,2.7585,2.8362,2.9038,2.9658,2.9932,2.9932,2.9932,3.0073,3.0358,0.0,0.0,0.0,0.0,0.0,0.0,0.0,0.6038,0.7069,0.9025,1.0971,1.3014,1.5235,1.6565,1.7656,1.8506,1.7611,1.6164,1.4161,1.3319,1.1907,0.9655,1.1265,1.3436,1.6036,1.6144,1.6963,1.8598,1.8617,1.8841,1.9325,1.9325,1.9335,1.9344,1.9344,1.9344,1.9344,1.9344,1.9344,1.9237,1.7966,1.7438,1.7086,0.0,0.0,0.0,0.0,0.0,0.0,0.0,0.0,0.0,0.0,0.0,0.0,0.0,0.0,0.0,0.0,0.0,0.0,0.0,0.0,0.0,0.0,0.0,0.0,0.0,0.0,0.0,0.0,0.0,0.0,0.0,0.0,0.0,2.1261,2.2478,2.3047,2.202,2.3258,2.3795,2.2694,2.3749,2.4334,2.3876,2.4437,2.4707,2.4453,2.4713,2.4944,2.5141,2.5792,2.6226,2.6431,2.6816,2.6986,2.6986,2.6996,2.7006,2.7015,2.7025,2.7025,2.7025,2.7025,2.7025,2.7127,2.8086,2.8478,2.8485,2.8444,2.8445,2.8445,2.8445,2.9107,3.025,0.0,0.0,0.0,0.0,0.0,0.0,0.5542,0.573,0.6533,0.8539,1.0492,1.246,1.4478,1.6262,1.7545,1.8179,1.7471,1.6382,1.4954,1.3589,1.2201,1.0788,1.3475,1.5279,1.5872,1.7066,1.7992,1.8598,1.8794,1.919,1.9746,1.9746,1.9931,2.0234,2.0234,2.0234,2.0234,2.0234,2.0234,2.0165,1.9178,1.822,1.7311,0.0,0.0,0.0,0.0,0.0,0.0,0.0,0.0,0.0,0.0,0.0,0.0,0.0,0.0,0.0,0.0,0.0,0.0,0.0,0.0,0.0,0.0,0.0,0.0,0.0,0.0,0.0,0.0,0.0,0.0,0.0,2.1642,2.2408,2.2149,2.3316,2.4137,2.3995,2.438,2.4574,2.4402,2.4586,2.4669,2.4532,2.4834,2.51,2.5328,2.5746,2.6119,2.6465,2.6667,2.6769,2.6846,2.6928,2.6986,2.6996,2.7334,2.7516,2.7526,2.7803,2.7939,2.7939,2.7939,2.7939,2.7966,2.8246,2.8351,2.8434,2.9239,2.9547,2.9547,2.9547,2.974,3.03,0.0,0.0,0.0,0.0,0.0,0.0,0.5227,0.53,0.6398,0.9417,1.0797,1.255,1.5303,1.6614,1.7462,1.7904,1.6621,1.5333,1.4252,1.2684,1.2073,1.273,1.4768,1.6096,1.6507,1.7688,1.8447,1.8773,1.9089,1.9569,2.0185,2.0185,2.042,2.084,2.084,2.0967,2.1123,2.0918,2.084,2.0781,2.0117,1.9393,1.866,1.7937,1.7168,1.6406,1.5792,1.5575,1.5555,1.5368,0.0,0.0,0.0,0.0,0.0,0.0,0.0,0.0,0.0,0.0,0.0,0.0,0.0,0.0,0.0,0.0,0.0,0.0,0.0,0.0,0.0,0.0,0.0,0.0,2.2915,2.3619,2.3619,2.4312,2.4792,2.4807,2.5011,2.509,2.4968,2.5199,2.53,2.5192,2.5609,2.5996,2.6235,2.6489,2.6846,2.7275,2.7285,2.7373,2.7549,2.7549,2.7637,2.7786,2.8066,2.8318,2.8503,2.8748,2.8855,2.8855,2.8855,2.8855,2.8855,2.8855,2.8855,2.8876,0.0,0.0,0.0,0.0,2.9622,2.987,0.0,0.0,0.0,0.0,0.0,0.0,0.4738,0.4871,0.6463,1.0852,1.1471,1.2986,1.689,1.7306,1.739,1.759,1.5457,1.3698,1.2722,1.1549,1.2086,1.4735,1.5476,1.6343,1.7517,1.8049,1.8541,1.9026,1.942,1.9928,2.0566,2.0615,2.083,2.119,2.1269,2.1503,2.1865,2.1454,2.1239,2.1161,2.082,2.0644,2.0439,1.8877,1.8283,1.8096,1.6568,1.6026,1.6117,1.6519,0.0,0.0,0.0,0.0,0.0,0.0,0.0,0.0,0.0,0.0,0.0,0.0,0.0,0.0,0.0,0.0,0.0,0.0,0.0,0.0,0.0,0.0,0.0,0.0,2.4353,2.5199,2.5229,2.5354,2.5329,2.5,2.5363,2.5498,2.5066,2.574,2.6103,2.5854,2.6606,2.709,2.709,2.7129,0.0,0.0,0.0,2.8015,2.8359,2.8418,2.8623,2.8994,2.8994,2.9199,2.9598,2.9598,2.9598,2.9598,2.9598,2.9598,2.9598,2.9598,2.9598,2.952,2.8758,2.8437,2.8523,2.9123,2.9271,2.9332,0.0,0.0,0.0,0.0,0.0,0.0,0.4258,0.4656,0.6349,1.0411,1.1264,1.2986,1.689,1.7306,1.7253,1.7162,1.5277,1.3431,1.1849,1.3124,1.4133,1.4553,1.6215,1.7324,1.7723,1.8152,1.8657,1.9231,1.9474,1.9856,2.0372,2.068,2.0973,2.121,2.1602,2.1807,2.1896,2.1797,2.1553,2.119,2.1123,2.0889,2.0566,2.0233,2.0087,2.0067,1.9893,1.994,1.9958,1.9083,1.9025,1.9186,1.8546,1.8569,0.0,0.0,0.0,0.0,0.0,0.0,0.0,0.0,0.0,0.0,0.0,0.0,0.0,0.0,0.0,0.0,0.0,0.0,0.0,2.366,2.4581,2.5247,2.5427,2.6287,2.6664,2.6002,2.5973,2.6112,2.6397,2.6655,2.6808,2.6742,2.7246,2.7565,2.7565,2.7861,2.8086,2.8164,2.8496,2.8711,2.8772,2.915,2.9393,2.9471,2.9471,0.0,2.9598,2.9598,2.9598,2.9598,2.9598,2.9598,2.9598,2.9598,2.9598,2.9579,2.9412,2.9354,2.9473,3.0438,3.0255,2.9784,0.0,0.0,0.0,0.0,0.0,0.0,0.3768,0.4053,0.5441,0.8901,0.9552,1.0891,1.4056,1.4406,1.436,1.4257,1.345,1.2624,1.1855,1.3585,1.4955,1.567,1.6764,1.7441,1.7639,1.8137,1.8639,1.9145,1.946,1.9774,2.0108,2.0436,2.0883,2.141,2.1746,2.2119,2.2459,2.206,2.1758,2.1503,2.1084,2.0781,2.0605,2.0605,2.0605,2.0625,2.0819,2.0964,2.1009,2.0855,2.1105,2.1552,2.1856,2.1799,2.1341,0.0,0.0,0.0,0.0,0.0,0.0,0.0,0.0,0.0,0.0,0.0,0.0,0.0,0.0,2.1313,2.2025,0.0,2.3846,2.4758,2.535,2.5866,2.6331,2.6754,2.6792,2.6215,2.6748,2.7067,2.6921,2.7259,2.7463,2.737,2.7761,2.8093,2.8281,2.8496,2.8711,2.8953,2.9141,2.9248,2.9248,2.9491,2.9706,2.9911,2.9911,3.0028,3.0263,3.0263,3.0263,3.0263,3.0263,3.0263,3.0263,3.0263,3.0263,3.0263,3.0263,2.9989,2.9654,3.0208,3.0052,2.9756,0.0,0.0,0.0,0.0,0.0,0.0,0.0,0.3548,0.4631,0.742,0.7934,0.8916,1.1253,1.1494,1.1376,1.1048,1.1704,1.2105,1.2027,1.3869,1.5535,1.6844,1.7055,1.7295,1.7605,1.8091,1.8583,1.9066,1.939,1.9647,1.9902,2.0213,2.0775,2.1533,2.1804,2.2266,2.283,2.2168,2.1857,2.1699,2.0996,2.0664,2.0615,2.0684,2.0752,2.081,2.0986,2.1143,2.139,2.2097,2.2762,2.3507,2.4737,2.4716,2.3787,2.1616,2.1746,0.0,0.0,0.0,0.0,0.0,0.0,0.0,0.0,1.9735,1.9589,2.092,2.1571,2.2233,2.3381,2.3981,2.4665,2.5846,2.6252,2.662,2.7181,2.7182,2.6938,2.6478,2.7412,2.7853,2.7241,2.7711,2.7993,2.7845,2.8174,2.8564,2.8869,2.9004,2.9209,2.9588,2.9676,2.9715,2.9715,2.9813,3.0028,3.0332,3.0332,3.0527,3.0889,3.0889,3.0889,3.0889,3.0889,3.0889,3.0889,3.0889,3.0889,3.0889,3.0889,3.0488,2.9852,2.9852,2.9852,2.9852,0.0,0.0,0.0,0.0,0.0,0.0,0.0,0.0,0.4907,0.7085,0.8042,0.9283,1.1277,1.1494,1.09,0.9409,1.1752,1.2867,1.1806,1.4811,1.6699,1.6882,1.6926,1.7284,1.8018,1.81,1.8504,1.9268,1.9313,1.9528,1.9912,2.035,2.0799,2.1258,2.1688,2.1954,2.2021,2.1944,2.166,2.1279,2.1161,2.0918,2.0644,2.1006,2.1282,2.1491,2.1511,2.202,2.2686,2.2798,2.3011,2.3253,2.3415,2.3695,2.3252,1.9773,1.9711,1.9942,1.6046,1.6855,1.9018,2.0036,2.0274,2.0925,0.0,2.2944,2.2428,2.3753,2.4404,2.4798,2.4953,2.5357,2.5866,2.6426,2.6879,2.7167,2.7132,2.8006,2.8378,2.7607,2.7669,2.7796,2.7874,2.8127,2.8249,2.8223,2.8613,2.884,2.8889,2.9287,2.9549,2.9598,2.996,3.0127,3.0127,3.0537,3.0762,3.081,3.081,3.084,3.0889,3.0889,3.0889,3.0889,3.0889,3.0889,3.0889,3.0889,3.0889,3.0889,3.0889,3.083,3.0742,3.0742,3.0742,3.0742,0.0,0.0,0.0,0.0,0.0,0.0,0.0,0.0,0.0,0.5764,0.6249,0.694,0.8062,0.8183,0.7943,0.7367,1.0322,1.207,1.1729,1.4964,1.6908,1.6908,1.6908,1.7284,1.8091,1.8109,1.8494,1.9301,1.9301,1.9381,1.9568,1.9983,2.0439,2.0868,2.1294,2.165,2.1886,2.1611,2.1376,2.1171,2.0947,2.0889,2.0977,2.1142,2.1685,2.2197,2.0905,2.0718,0.0,2.1584,2.1849,2.2308,2.4128,2.431,2.3341,2.0734,2.0947,2.1733,2.0462,1.985,1.9911,2.1275,2.1631,2.1932,2.3071,2.3122,2.3287,2.4632,2.5273,2.5689,2.5958,2.6177,2.654,2.7241,2.7424,2.7635,2.8086,2.8298,2.8397,2.8298,2.8133,2.808,2.816,2.8462,2.8662,2.8662,2.9053,2.9404,2.9648,2.9834,3.0059,3.0361,3.0508,3.0605,3.0605,3.0791,3.0889,3.0889,3.0889,3.0889,3.0889,3.0889,3.0889,3.0889,3.0889,3.0889,3.0889,3.0889,3.0889,3.0889,3.0889,3.0889,3.0889,3.0889,3.0889,3.0889,0.0,0.0,0.0,0.0,0.0,0.0,0.0,0.0,0.0,0.0,0.5111,0.5373,0.5754,0.5802,0.5834,0.593,0.8711,1.077,1.1485,1.4383,1.6321,1.6881,1.6908,1.7221,1.7917,1.8045,1.8325,1.8773,1.8881,1.8995,1.9114,1.9411,1.9915,2.0616,2.0906,2.123,2.1524,2.1191,2.1025,2.1005,2.0713,2.083,2.121,2.1347,2.1684,2.1876,2.0479,2.0152,2.0456,2.0655,2.08,2.1297,2.3465,2.355,2.2482,2.0542,2.0489,2.1245,2.208,2.1384,2.0744,2.2149,2.278,2.3091,2.3225,2.3515,2.4064,2.5159,2.5761,2.6198,2.6529,2.6799,2.7158,2.7796,2.7994,2.8246,2.8716,2.8563,2.8439,2.8581,2.8434,2.834,2.8447,2.874,2.8937,2.9092,2.9502,2.9873,3.0176,3.0322,3.0547,3.0879,3.0889,3.0889,3.0889,3.0889,3.0889,3.0889,3.0889,3.0889,3.0889,3.0889,3.0889,3.0889,3.0889,3.0889,3.0889,3.0889,3.0889,3.0889,3.0889,3.0889,3.0889,3.0889,3.0889,3.0889,0.0,0.0,0.0,0.0,0.0,0.0,0.0,0.0,0.0,0.0,0.0,0.0,0.0,0.5802,0.5718,0.5537,0.7279,0.9169,1.0999,1.2924,1.4854,1.6799,1.6908,1.7101,1.7504,1.7899,1.7897,1.7466,1.7846,1.8238,1.8618,1.8638,1.9352,2.0605,2.0605,2.0635,2.0644,2.0615,2.0625,2.0625,2.0605,2.083,2.1239,2.1709,2.1084,2.0077,2.066,2.1358,2.1841,2.0624,2.0319,2.0361,2.0069,2.0225,2.0055,1.7781,1.6551,1.6303,1.8082,1.9454,2.0744,2.2149,2.3474,2.4559,2.5003,2.5139,2.5273,2.5784,2.625,2.6571,2.6592,2.7293,2.7869,2.7889,2.8655,2.9065,2.8581,2.8824,2.8883,2.8371,2.8291,2.8447,2.883,2.8889,2.9092,2.954,2.9941,3.0185,3.0195,3.0625,3.0879,3.0889,3.0889,3.0889,3.0889,3.0889,3.0889,3.0889,3.0889,3.0889,3.0889,3.0889,3.0889,3.0889,3.0889,3.0889,3.0889,3.0889,3.0889,3.0889,3.0889,3.0889,3.0889,3.0889,3.0889,3.0889,0.0,0.0,0.0,0.0,0.0,0.0,0.0,0.0,0.0,0.0,0.0,0.0,0.0,0.0,0.0,0.0,0.721,0.8648,0.9451,1.2267,1.4328,1.5276,1.634,1.7092,1.7486,1.7143,1.7106,1.7391,1.7628,1.7598,1.7362,1.8807,1.9382,1.9313,2.0206,2.0605,2.0605,2.0605,2.0605,2.0605,2.0605,2.1026,2.1562,2.0566,2.0263,2.0175,0.0,1.8315,1.8334,1.7997,1.8199,1.8783,1.9872,1.9675,1.8744,1.7088,1.7015,1.7828,1.9323,2.0741,2.2201,2.3867,2.4632,2.5097,2.5564,2.5896,2.6165,2.6322,2.6239,2.6136,2.6136,2.6633,2.7151,2.7451,2.8504,2.9209,2.8949,2.9005,2.8893,2.8371,2.8535,2.8877,2.9307,2.9346,2.9531,2.9979,3.04,3.0654,3.0654,3.0801,3.0889,3.0889,3.0889,3.0889,3.0889,3.0889,3.0889,3.0889,3.0889,3.0889,3.0889,3.0889,3.0889,3.0889,3.0889,3.0889,3.0889,3.0889,3.0889,3.0889,3.0889,3.0889,3.0889,3.0889,3.0889,3.0889,0.0,0.0,0.0,0.0,0.0,0.0,0.0,0.0,0.0,0.0,0.0,0.0,0.0,0.0,0.0,0.0,0.0,0.7627,0.8562,1.0731,1.2465,1.3589,1.4625,1.5247,1.5382,1.5074,1.4899,1.49,1.5658,1.607,1.6174,1.8075,1.9085,1.9362,2.0226,2.0605,2.0605,2.0605,2.0253,1.9667,1.9667,1.9726,1.9716,1.874,1.8445,0.0,1.6945,1.6168,1.5894,1.6333,1.6816,1.7383,1.821,1.7885,1.7206,1.7335,1.7864,1.8802,2.0659,2.1818,2.2936,2.4756,2.5211,2.5366,2.6011,2.6374,2.6656,2.6832,2.6343,2.5897,2.5897,2.6415,2.683,2.6822,2.8083,2.8952,2.8671,2.8633,2.8544,2.8342,2.8662,2.9092,2.9559,2.9735,2.9999,3.041,3.0723,3.0889,3.0889,3.0889,3.0889,3.0889,3.0889,3.0889,3.0889,3.0889,3.0889,3.0889,3.0889,3.0889,3.0889,3.0889,3.0889,3.0889,3.0889,3.0889,3.0889,3.0889,3.0889,3.0889,3.0889,3.0889,3.0889,3.0889,3.0889,3.0889,0.0,0.0,0.0,0.0,0.0,0.0,0.0,0.0,0.0,0.0,0.0,0.0,0.0,0.0,0.0,0.0,0.0,0.0,0.8202,0.8424,0.951,1.1844,1.2015,1.19,1.161,1.1916,1.1529,1.0397,1.2183,1.367,1.4875,1.6411,1.8235,2.0216,2.0303,2.0341,2.0341,2.0341,1.9383,1.7881,1.7881,1.7165,1.6134,1.642,1.5815,1.4862,1.5323,1.5095,1.471,1.5704,1.6235,1.6357,1.5549,1.5277,1.5784,1.8398,1.8895,1.9174,2.1787,2.2563,2.306,2.4798,2.5263,2.5511,2.6426,2.6633,2.676,2.7154,2.6478,2.5815,2.5773,2.654,2.6902,2.6043,2.7438,2.8459,2.7925,2.7884,2.7966,2.8273,2.8682,2.9111,2.9559,2.9999,3.042,3.0859,3.0889,3.0889,3.0889,3.0889,3.0889,3.0889,3.0889,3.0889,3.0889,3.0889,3.0889,3.0889,3.0889,3.0889,3.0889,3.0889,3.0889,3.0889,3.0889,3.0889,3.0889,3.0889,3.0889,3.0889,3.0889,3.0889,3.0889,3.0918,3.0928,3.0928,0.0,0.0,0.0,0.0,0.0,0.0,0.0,0.0,0.0,0.0,0.0,0.0,0.0,0.0,0.0,0.0,0.0,0.0,0.6147,0.736,0.8599,0.9805,1.0773,1.138,1.1601,1.0873,1.0459,1.0397,1.0929,1.1249,1.1412,1.3701,1.4833,1.5,1.6185,1.6728,1.6728,1.6728,1.6475,1.6059,1.6059,1.6089,1.5968,1.4775,1.4521,1.4719,1.4117,1.3972,1.4195,1.4893,1.6366,1.8025,1.8779,1.9017,1.9162,1.9855,2.0731,2.1619,2.2304,2.3474,2.4704,2.5513,2.5968,2.6405,2.6998,2.7133,2.6967,2.6374,2.5513,2.4653,2.4023,2.4902,2.5782,2.5887,2.7707,2.9044,2.8802,2.8774,2.8644,2.8352,2.8955,2.9471,2.9588,3.0292,3.0762,3.0879,3.0889,3.0889,3.0889,3.0889,3.0889,3.0889,3.0889,3.0889,3.0889,3.0889,3.0889,3.0889,3.0889,3.0889,3.0889,3.0889,3.0889,3.0889,3.0889,3.0889,3.0889,3.0889,3.0889,3.0889,3.0889,3.0889,3.0928,3.124,3.1357,3.1406,0.0,0.0,0.0,0.0,0.0,0.0,0.0,0.0,0.0,0.0,0.0,0.0,0.0,0.0,0.0,0.0,0.0,0.0,0.0,0.6335,0.7086,0.771,0.8424,0.8809,0.8787,0.8163,0.7874,0.7943,0.8633,0.9292,0.9976,1.2265,1.3493,1.3843,1.493,1.5396,1.5396,1.5396,1.498,0.0,0.0,1.3998,1.3482,1.2883,1.301,1.3456,1.3282,1.4058,1.5361,1.6579,1.7879,1.9206,2.0341,2.0434,2.0327,2.1342,2.2045,2.2625,2.3225,2.427,2.5315,2.5794,2.625,2.6625,2.6664,2.6698,2.6415,2.5482,2.456,2.3774,2.3277,2.4467,2.5471,2.5316,2.7376,2.888,2.857,2.8522,2.8464,2.8322,2.908,2.9598,2.9598,3.04,3.0889,3.0889,3.0889,3.0889,3.0889,3.0889,3.0889,3.0889,3.0889,3.0889,3.0889,3.0889,3.0889,3.0889,3.0889,3.0889,3.0889,3.0889,3.0889,3.0889,3.0889,3.0889,3.0908,3.1094,3.1162,3.1182,3.1377,3.1485,3.1514,3.1719,3.1807,3.1836,0.0,0.0,0.0,0.0,0.0,0.0,0.0,0.0,0.0,0.0,0.0,0.0,0.0,0.0,0.0,0.0,0.0,0.0,0.0,0.0,0.5547,0.5981,0.5956,0.5729,0.5288,0.5276,0.5132,0.4865,0.6179,0.7676,0.9342,1.1103,1.2666,1.4005,1.4441,1.4664,1.4713,1.4713,1.3877,1.2541,1.2541,1.1653,1.0391,0.0,1.1633,1.1911,1.2817,1.4686,1.7057,1.9038,1.9907,2.0314,2.1259,2.1031,2.0801,2.278,2.308,2.3029,2.4177,2.4838,2.5315,2.5794,2.625,2.6478,2.6011,2.5897,2.5575,2.4467,2.367,2.3132,2.2966,2.4416,2.5442,2.4798,2.6835,2.8387,2.8016,2.796,2.8045,2.8283,2.908,2.9598,2.9598,3.04,3.0889,3.0889,3.0889,3.0889,3.0889,3.0889,3.0889,3.0889,3.0889,3.0889,3.0889,3.0889,3.0889,3.0889,3.0889,3.0889,3.0889,3.0889,3.0889,3.0898,3.0947,3.0976,3.1006,3.1426,3.1572,3.1641,3.2052,3.2198,3.2208,3.2257,3.2246,3.2235,0.0,0.0,0.0,0.0,0.0,0.0,0.0,0.0,0.0,0.0,0.5803,0.5717,0.0,0.0,0.0,0.0,0.0,0.0,0.0,0.0,0.0,0.5978,0.5734,0.5624,0.5698,0.5641,0.5485,0.5211,0.5695,0.637,0.7236,0.8073,0.893,0.9783,1.0344,1.082,1.1182,1.1182,1.1027,1.0753,1.0753,1.0577,1.0352,1.084,0.0,0.0,1.2975,1.4683,1.6752,1.8594,2.0469,2.2242,2.3515,2.3815,2.3774,2.4167,2.4229,2.4197,2.4435,2.4838,2.5315,2.5794,2.625,2.6478,2.6011,2.5897,2.5328,2.3267,2.3029,2.2832,2.1683,2.2977,2.4561,2.5492,2.6993,2.8218,2.8792,2.8874,2.8724,2.8352,2.908,2.9598,2.9598,3.04,3.0889,3.0889,3.0889,3.0889,3.0889,3.0889,3.0889,3.0889,3.0889,3.0889,3.0889,3.0889,3.0889,3.0889,3.0889,3.0889,3.0889,3.0889,3.0889,3.0908,3.126,3.1406,3.1445,3.1875,3.2091,3.2091,3.2169,3.2198,3.2237,3.2559,3.2531,3.2372,0.0,0.0,0.0,0.0,0.0,0.0,0.0,0.0,0.6532,0.6324,0.6101,0.5941,0.5911,0.5749,0.0,0.0,0.0,0.0,0.0,0.0,0.0,0.0,0.5424,0.5349,0.513,0.5301,0.5349,0.525,0.0,0.593,0.6872,0.7612,0.8284,0.8891,0.9627,1.0088,1.0303,1.0303,1.0303,1.0303,1.0303,1.0322,1.043,0.0,0.0,0.0,1.386,1.513,1.643,1.7654,1.9884,2.2418,2.3991,2.4497,2.4497,2.4497,2.4497,2.4497,2.4497,2.4838,2.5315,2.5794,2.625,2.6343,2.5388,2.5006,2.4344,2.2511,2.2118,2.1983,2.153,2.2791,2.4188,2.5037,2.67,2.8072,2.8558,2.8892,2.8946,2.8568,2.9162,2.9598,2.9598,3.04,3.0889,3.0889,3.0889,3.0889,3.0889,3.0889,3.0889,3.0889,3.0889,3.0889,3.0889,3.0889,3.0889,3.0889,3.0889,3.0889,3.0898,3.1123,3.1211,3.124,3.167,3.1855,3.1894,3.2314,3.2521,3.2519,3.2734,3.2822,3.2811,3.2859,3.2749,3.2652,0.0,0.0,0.0,0.0,0.0,0.0,0.0,0.6756,0.6681,0.6492,0.6288,0.6115,0.5984,0.586,0.5802,0.0,0.0,0.0,0.0,0.0,0.0,0.0,0.0,0.0,0.4639,0.0,0.0,0.5324,0.5389,0.0,0.0,0.0,0.0,0.0,0.9707,1.0126,1.0303,1.0303,1.0303,0.0,0.0,1.0351,1.0517,0.0,0.0,0.0,0.0,1.5182,1.5718,1.6863,1.8838,2.1113,2.2919,2.3763,2.4042,2.3939,2.398,2.4125,2.4414,2.4766,2.519,2.5763,2.6177,2.6115,2.4808,2.4249,2.3577,2.1983,2.1445,2.1323,2.1592,2.2708,2.3795,2.4394,2.5995,2.7411,2.8105,2.8466,2.8689,2.8698,2.9217,2.9598,2.9598,3.04,3.0889,3.0889,3.0889,3.0889,3.0889,3.0889,3.0889,3.0889,3.0889,3.0889,3.0889,3.0889,3.0889,3.0889,3.0889,3.0889,3.0908,3.1328,3.1484,3.1513,3.208,3.2335,3.2364,3.2754,3.293,3.2959,3.3291,3.3386,3.3355,3.3016,3.2858,3.2794,0.0,0.0,0.0,0.0,0.0,0.0,0.0,0.6966,0.6824,0.6689,0.6496,0.6322,0.6187,0.5954,0.5802,0.0,0.0,0.0,0.0,0.0,0.0,0.0,0.0,0.0,0.0,0.0,0.0,0.5746,0.599,0.0,0.0,0.0,0.0,0.0,0.0,0.9561,1.0303,1.0303,0.0,0.0,0.0,0.0,0.0,0.0,0.0,0.0,0.0,1.4094,1.415,1.683,1.7639,1.7852,1.9662,2.1355,2.2604,2.218,2.2356,2.2956,2.4177,2.4528,2.4787,2.569,2.5929,2.5721,2.4714,2.4466,2.3805,2.1613,2.1476,2.1621,2.123,2.1973,2.3039,2.429,2.4673,2.5605,2.789,2.7667,2.7632,2.8589,2.9217,2.9598,2.9598,3.04,3.0889,3.0889,3.0889,3.0889,3.0889,3.0889,3.0889,3.0889,3.0889,3.0889,3.0889,3.0889,3.0889,3.0889,3.0889,3.0889,3.0908,3.1328,3.1484,3.1562,3.2383,3.2734,3.2773,3.3193,3.3328,3.3338,3.3377,3.3386,3.3355,3.3016,3.2708,3.2485,0.0,0.0,0.0,0.0,0.0,0.0,0.0,0.6578,0.6605,0.6802,0.6646,0.647,0.6331,0.6081,0.5918,0.0,0.0,0.0,0.0,0.0,0.0,0.0,0.0,0.0,0.0,0.0,0.5653,0.604,0.6147,0.0,0.0,0.0,0.0,0.0,0.0,0.9199,0.9512,0.9512,0.0,0.0,0.0,0.0,0.0,0.0,0.0,0.0,0.0,0.0,1.4196,1.5986,1.7007,1.7465,1.7089,1.8382,2.0263,2.1447,2.2128,2.2791,2.4146,2.4704,2.5087,2.5752,2.5471,2.4963,2.458,2.367,2.2616,2.1714,2.122,2.1075,2.1437,2.1611,2.2025,2.3112,2.396,2.4928,2.6208,2.7168,2.7854,2.8133,2.9146,2.9775,2.9626,3.04,3.0889,3.0889,3.0889,3.0889,3.0889,3.0889,3.0889,3.0889,3.0889,3.0889,3.0889,3.0889,3.0889,3.0889,3.0889,3.1025,3.1289,3.1719,3.2041,3.2324,3.291,3.3174,3.3184,3.3318,3.3386,3.3386,3.3386,3.3292,3.308,3.2731,3.239,3.2134,0.0,0.0,0.0,0.0,0.0,0.6044,0.6472,0.654,0.6622,0.6871,0.6778,0.6625,0.6445,0.6261,0.6128,0.6099,0.0,0.0,0.0,0.0,0.0,0.0,0.0,0.0,0.0,0.0,0.5776,0.6407,0.6414,0.6824,0.0,0.0,0.8178,0.8412,0.0,0.0,0.0,0.0,0.0,0.0,0.0,0.0,0.0,0.0,0.0,0.0,0.0,0.0,0.0,0.0,0.0,1.6983,1.5707,1.6573,1.8405,2.0113,2.1232,2.219,2.3536,2.4549,2.5315,2.5794,2.518,2.4497,2.4497,2.3102,2.1766,2.1631,2.1064,2.0806,2.1476,2.1445,2.158,2.2366,2.3174,2.4042,2.5066,2.6241,2.7081,2.7386,2.8482,2.9226,2.9225,3.0253,3.0889,3.0889,3.0889,3.0889,3.0889,3.0889,3.0889,3.0889,3.0889,3.0889,3.0889,3.0889,3.0889,3.0889,3.0889,3.1113,3.1503,3.2003,3.2423,3.2822,3.3242,3.3386,3.3386,3.3386,3.3386,3.3386,3.3386,3.3206,3.2858,3.2517,3.2262,3.2079,0.0,0.0,0.0,0.0,0.0,0.0,0.0,0.7085,0.705,0.6911,0.6903,0.6794,0.6531,0.6497,0.6441,0.6304,0.0,0.0,0.0,0.0,0.0,0.0,0.0,0.0,0.0,0.0,0.5888,0.6895,0.6895,0.7166,0.7695,0.7705,0.7961,0.8403,0.0,0.0,0.0,0.0,0.0,0.0,0.0,0.0,0.0,0.0,0.0,0.0,0.0,0.0,0.0,0.0,0.0,0.0,0.0,1.6488,1.7388,1.7746,1.9066,2.0734,2.2139,2.3825,2.5315,2.5794,2.518,2.4497,2.4497,2.3102,2.1673,2.1199,2.1095,2.1095,2.1106,2.1468,2.1952,2.2418,2.2128,2.2625,2.4869,2.4589,2.4725,2.6329,2.7038,2.7667,2.8249,2.9873,3.0889,3.0889,3.0889,3.0889,3.0889,3.0889,3.0889,3.0889,3.0889,3.0889,3.0889,3.0889,3.0889,3.0889,3.0889,3.1113,3.1503,3.2003,3.2423,3.2822,3.3242,3.3386,3.3386,3.3386,3.3386,3.3386,3.3386,3.3206,3.2858,3.2517,3.239,3.239,0.0,0.0,0.0,0.0,0.0,0.0,0.0,0.6553,0.667,0.6988,0.6952,0.6841,0.6659,0.6561,0.6445,0.6309,0.0,0.0,0.0,0.0,0.0,0.0,0.0,0.0,0.0,0.0,0.6265,0.6761,0.7126,0.7657,0.8319,0.813,0.8125,0.8264,0.8452,0.838,0.0,0.0,0.0,0.0,0.0,0.0,1.13,0.0,0.0,0.0,0.0,0.0,0.0,0.0,0.0,0.0,0.0,0.0,0.0,1.692,1.8177,1.986,2.0819,2.1716,2.2429,2.2584,2.215,2.1769,2.2109,2.1488,2.0806,2.0651,2.0878,2.1095,2.1095,2.122,2.1487,2.1952,2.217,2.2646,2.3691,2.4828,2.5874,2.6804,2.8328,2.9507,3.0038,3.0566,3.0889,3.0889,3.0889,3.0889,3.0889,3.0889,3.0889,3.0889,3.0889,3.0889,3.0889,3.0889,3.0889,3.0889,3.0889,3.1269,3.1963,3.213,3.2559,3.3232,3.3328,3.3386,3.3386,3.3386,3.3386,3.3386,3.3386,3.3048,3.2549,3.2453,3.2262,3.2079,0.0,0.0,0.0,0.0,0.0,0.0,0.0,0.6607,0.6722,0.7058,0.7026,0.6912,0.6715,0.6621,0.6501,0.6313,0.0,0.0,0.0,0.0,0.0,0.0,0.0,0.0,0.0,0.6269,0.6785,0.7379,0.7716,0.8126,0.8589,0.8425,0.8358,0.8354,0.8523,0.8397,0.0,0.0,0.0,0.0,0.0,0.0,1.1734,0.0,0.0,0.0,0.0,0.0,0.0,0.0,0.0,0.0,0.0,0.0,0.0,0.0,1.7747,1.8949,1.9507,2.0369,2.1095,2.1095,2.0754,2.0527,2.0992,2.0475,1.9965,2.0141,2.0534,2.0837,2.0837,2.1127,2.1457,2.1737,2.219,2.278,2.3588,2.4914,2.6214,2.7236,2.8752,2.9893,3.0351,3.0693,3.0889,3.0889,3.0889,3.0889,3.0889,3.0889,3.0889,3.0889,3.0889,3.0889,3.0889,3.0889,3.0889,3.0889,3.0889,3.1367,3.2198,3.2198,3.2627,3.3386,3.3386,3.3386,0.0,3.3386,3.3386,3.3386,3.3386,3.2985,3.239,3.239,3.2262,3.2111,0.0,0.0,0.0,0.0,0.0,0.0,0.0,0.0,0.0,0.7099,0.7099,0.6997,0.674,0.671,0.6608,0.6335,0.0,0.0,0.0,0.0,0.0,0.0,0.0,0.0,0.0,0.6975,0.7442,0.8485,0.8518,0.8585,0.867,0.8649,0.8642,0.8642,0.8652,0.867,0.0,0.0,0.0,0.0,0.0,0.0,0.0,0.0,0.0,0.0,0.0,0.0,0.0,0.0,0.0,0.0,0.0,0.0,0.0,0.0,0.0,0.0,0.0,1.9496,2.0765,2.0765,2.0485,2.033,2.0754,1.9965,0.0,1.9668,2.012,2.0444,2.0413,2.1168,2.1807,2.1807,2.219,2.2977,2.4311,2.5064,2.6074,2.7663,2.8545,2.9199,2.9559,3.04,3.0889,3.0889,3.0889,3.0889,3.0889,3.0889,3.0889,3.0889,3.0889,3.0889,3.0889,3.0889,3.0889,3.0889,3.0889,3.1367,3.2198,3.2198,3.2627,3.3386,3.3386,3.3386,3.3386,3.3386,3.3386,3.3386,3.3386,3.2985,3.239,3.239,3.239,3.239,0.0,0.0,0.0,0.0,0.0,0.0,0.0,0.0,0.0,0.0,0.7099,0.7034,0.6874,0.6858,0.6744,0.0,0.0,0.0,0.0,0.0,0.0,0.0,0.0,0.0,0.0,0.7673,0.8229,0.8346,0.8761,0.9069,0.9291,0.9081,0.8985,0.8992,0.9196,0.9291,0.0,0.0,0.0,0.0,0.0,0.0,0.0,0.0,0.0,0.0,1.3875,1.4437,0.0,0.0,0.0,0.0,0.0,0.0,0.0,0.0,1.7689,1.7913,1.7096,0.0,1.7491,1.7491,1.791,1.836,0.0,1.9085,1.9564,1.9316,2.0169,2.0827,2.0475,2.1168,2.1807,2.1807,2.219,2.2977,2.4311,2.6632,2.8272,2.8466,2.9628,3.0205,2.9657,3.04,3.0889,3.0889,3.0889,3.0889,3.0889,3.0889,3.0889,3.0889,3.0889,3.0889,3.0889,3.0889,3.0889,3.0889,3.0889,3.1367,3.2198,3.2198,3.2627,3.3386,3.3386,3.3386,3.3386,3.3386,3.3386,3.3386,3.3386,3.2985,3.239,3.239,3.239,3.239,0.0,0.0,0.0,0.0,0.0,0.0,0.0,0.0,0.0,0.0,0.0,0.0,0.0,0.0,0.0,0.0,0.0,0.0,0.0,0.0,0.0,0.0,0.0,0.0,0.7508,0.8228,0.8682,0.885,0.9137,0.9363,0.9504,0.9345,0.9277,0.9296,0.9437,0.9636,0.0,0.0,0.0,0.0,1.1947,0.0,0.0,0.0,0.0,0.0,1.4252,1.4805,0.0,1.6206,1.6884,1.7487,0.0,0.0,0.0,0.0,1.7873,1.789,1.6929,1.6539,1.644,1.6632,1.7182,1.775,1.7973,1.8781,1.9409,1.915,1.9996,2.0703,2.0454,2.1704,2.2542,2.1911,2.3246,2.4717,2.5658,2.7278,2.8474,2.8834,2.9628,3.0181,3.0194,3.0605,3.0889,3.0889,3.0889,3.0889,3.0889,3.0889,3.0889,3.0889,3.0889,3.0889,3.0889,3.0889,3.0889,3.0889,3.0889,3.1367,3.2198,3.2198,3.2627,3.3386,3.3386,3.3386,3.3386,3.3386,3.3386,3.3386,3.3386,3.2985,3.2422,3.2581,3.2549,3.2422,0.0,0.0,0.0,0.0,0.0,0.0,0.0,0.0,0.0,0.0,0.0,0.0,0.0,0.0,0.0,0.0,0.0,0.0,0.0,0.0,0.0,0.0,0.0,0.7688,0.859,0.869,0.899,0.9504,0.9504,0.9504,0.9504,0.9504,0.9546,0.9624,0.9714,0.9991,0.0,0.0,1.119,1.2214,1.2279,0.0,0.0,0.0,0.0,0.0,0.0,0.0,0.0,1.7035,1.7512,1.7801,1.8707,0.0,0.0,0.0,0.0,0.0,1.7323,1.7023,1.6958,1.7079,1.7461,1.791,1.8315,1.875,1.9119,1.9191,1.9841,2.0496,2.0775,2.2335,2.3266,2.2273,2.4582,2.6726,2.7389,2.7744,2.8228,2.9011,2.9354,2.9843,3.0625,3.081,3.0889,3.0889,3.0889,3.0889,3.0889,3.0889,3.0889,3.0889,3.0889,3.0889,3.0889,3.0889,3.0889,3.0889,3.0889,3.1367,3.2198,3.2198,3.2627,3.3386,3.3386,3.3386,3.3386,3.3386,3.3386,3.3386,3.3386,3.3016,3.2517,3.2794,3.2731,3.2517,0.0,0.0,0.0,0.0,0.0,0.0,0.0,0.0,0.0,0.0,0.0,0.0,0.0,0.0,0.0,0.0,0.0,0.0,0.0,0.0,0.0,0.0,0.8189,0.8519,0.8682,0.9125,0.9406,0.9504,0.9504,0.9504,0.9504,0.9504,0.9738,1.0202,1.0646,1.0894,1.101,1.1455,1.1879,1.223,1.2627,0.0,0.0,0.0,0.0,0.0,0.0,0.0,0.0,1.7173,1.8003,1.8782,1.8958,0.0,0.0,0.0,0.0,0.0,1.7926,1.85,1.9015,1.7864,1.7957,1.8315,1.8377,1.875,1.9212,1.9606,2.0069,2.0889,2.247,2.2418,2.2439,2.3422,2.4944,2.6571,2.8183,2.9292,2.9745,2.9176,3.0012,3.0428,2.9852,3.0478,3.0889,3.0889,3.0889,3.0889,3.0889,3.0889,3.0889,3.0889,3.0889,3.0889,3.0889,3.0889,3.0889,3.0889,3.0889,3.1367,3.2198,3.2198,3.2627,3.3386,3.3386,3.3386,3.3386,3.3386,3.3386,3.3386,3.3386,3.3165,3.2826,3.2889,3.2858,3.2858,0.0,0.0,0.0,0.0,0.0,0.0,0.0,0.0,0.0,0.0,0.0,0.0,0.0,0.0,0.0,0.0,0.0,0.0,0.0,0.0,0.0,0.8309,0.885,0.9139,0.9139,0.9378,0.9504,0.9504,0.9504,0.9648,0.9942,1.0226,1.0502,1.0738,1.099,1.1263,1.1552,1.1801,1.2141,1.2551,0.0,0.0,0.0,0.0,0.0,0.0,0.0,0.0,0.0,0.0,1.8343,1.9058,1.9346,0.0,0.0,0.0,0.0,0.0,1.8732,1.886,1.9123,1.9451,2.0089,2.0651,2.0742,2.1061,2.1189,2.0753,2.1125,2.188,2.2987,2.366,2.4705,2.6861,2.6685,2.6842,2.848,2.8767,2.8933,2.9193,2.9705,3.0121,3.0282,3.0644,3.0889,3.0889,3.0889,3.0889,3.0889,3.0889,3.0889,3.0889,3.0889,3.0889,3.0889,3.0889,3.0889,3.0889,3.0889,3.1211,3.1826,3.2091,3.2531,3.3096,3.333,3.3386,3.3386,3.3386,3.3386,3.3386,3.3386,3.3206,3.2889,3.2889,3.3016,3.3197,0.0,0.0,0.0,0.0,0.0,0.0,0.0,0.0,0.0,0.0,0.0,0.0,0.0,0.0,0.0,0.0,0.0,0.0,0.0,0.0,0.8496,0.876,0.9281,0.9545,0.9504,0.9504,0.9504,0.9504,0.9624,0.9966,1.0502,1.1046,1.1287,1.1287,1.1419,1.1704,1.2098,1.2098,1.2361,1.2803,0.0,0.0,0.0,0.0,0.0,0.0,0.0,0.0,0.0,0.0,0.0,0.0,0.0,0.0,0.0,1.9966,1.9518,1.9056,1.95,1.9329,1.9371,2.0744,2.1404,2.1895,2.2634,2.2745,2.2555,2.2003,2.2428,2.3031,2.3577,2.4881,2.6592,2.8715,2.7782,2.7362,2.89,2.8528,2.8452,2.9473,2.9658,3.001,3.082,3.0889,3.0889,3.0889,3.0889,3.0889,3.0889,3.0889,3.0889,3.0889,3.0889,3.0889,3.0889,3.0889,3.0889,3.0889,3.0889,3.1113,3.1503,3.2003,3.2423,3.2822,3.3242,3.3386,3.3386,3.3386,3.3386,3.3386,3.3386,3.3228,3.3016,3.3016,3.3175,3.3386,0.0,0.0,0.0,0.0,0.0,0.0,0.0,0.0,0.0,0.0,0.0,0.0,0.0,0.0,0.0,0.0,0.0,0.0,0.0,0.0,0.9143,0.8982,0.9491,0.9691,0.9504,0.9504,0.9504,0.9504,0.9991,1.0522,1.1051,1.1588,1.184,1.1853,1.2354,1.2604,1.264,1.264,1.27,1.2803,1.2812,0.0,0.0,0.0,0.0,0.0,0.0,0.0,0.0,0.0,0.0,0.0,0.0,0.0,1.9911,2.0462,2.0075,1.9555,2.0091,2.0552,2.0948,2.1064,2.0213,1.9961,2.2257,2.2005,2.1649,2.3063,2.3684,2.4197,2.493,2.5523,2.596,2.6167,2.6904,2.8069,2.9847,2.9935,2.9986,3.0455,3.0661,3.082,3.0879,3.0889,3.0889,3.0889,3.0889,3.0889,3.0889,3.0889,3.0889,3.0889,3.0889,3.0889,3.0889,3.0889,3.0889,3.0889,3.0889,3.1113,3.1503,3.2003,3.2423,3.2822,3.3242,3.3386,3.3386,3.3386,3.3386,3.3386,3.3386,3.3396,3.3355,3.3355,3.3386,3.3386,0.0,0.0,0.0,0.0,0.0,0.0,0.0,0.0,0.0,0.0,0.0,0.0,0.0,0.0,0.0,0.0,0.0,0.0,0.0,0.0,0.9364,0.9666,0.9638,0.9632,0.9684,0.9558,0.9666,0.9991,1.087,1.1395,1.1612,1.215,1.2399,1.2411,1.2616,1.27,1.27,1.27,1.2709,1.2769,1.315,1.3432,0.0,0.0,0.0,0.0,0.0,0.0,0.0,0.0,1.9245,1.9785,1.9695,1.95,1.9542,2.0821,2.0125,1.9208,2.0463,2.0815,2.0901,2.1059,2.0594,2.0728,2.3241,2.3717,2.366,2.3679,2.4605,2.5388,2.5399,2.6931,2.7969,2.7269,2.7911,2.8914,3.0146,3.0148,3.0209,3.072,3.0839,3.0889,3.0889,3.0889,3.0889,3.0889,3.0889,3.0889,3.0889,3.0889,3.0889,3.0889,3.0889,3.0889,3.0889,3.0889,3.0889,3.0889,3.0889,3.0976,3.1152,3.1876,3.2286,3.2472,3.3125,3.3386,3.3386,3.3386,3.3386,3.3386,3.3386,3.3386,3.3386,3.3386,3.3386,3.3386,0.0,0.0,0.0,0.0,0.0,0.0,0.0,0.0,0.0,0.0,0.0,0.0,0.0,0.0,0.0,0.0,0.0,0.0,0.9547,0.9641,0.9833,1.0179,1.0023,0.9969,1.005,1.0017,1.0099,1.0298,1.1371,1.1993,1.2162,1.2532,1.27,1.2713,1.2878,1.2954,1.2954,1.3122,1.3204,1.324,1.3646,1.391,0.0,0.0,0.0,0.0,0.0,0.0,0.0,0.0,1.9255,1.9656,1.9578,1.9264,1.9218,2.0685,2.0064,1.9275,2.0879,2.0916,2.0671,2.1346,2.1106,2.134,2.3741,2.438,2.4455,2.452,2.5414,2.6136,2.5929,2.7553,2.864,2.7785,2.8395,2.9283,3.0136,3.0044,3.0128,3.082,3.0889,3.0889,3.0889,3.0889,3.0889,3.0889,3.0889,3.0889,3.0889,3.0889,3.0889,3.0889,3.0889,3.0889,3.0889,3.0889,3.0889,3.0889,3.0889,3.0889,3.0918,3.1641,3.2071,3.2237,3.292,3.3269,3.3386,3.3386,3.3386,3.3386,3.3386,3.3386,3.3386,3.3386,3.3386,3.3386,0.0,0.0,0.0,0.0,0.0,0.0,0.0,0.0,0.0,0.0,0.0,0.0,0.0,0.0,0.0,0.0,0.0,0.0,0.9809,1.0362,1.0615,1.0412,1.0715,1.0819,1.0615,1.0935,1.0846,1.0322,1.1375,1.2174,1.27,1.27,1.27,1.2725,1.3264,1.3505,1.3541,1.4072,1.4299,1.4299,1.4299,1.4584,1.5073,0.0,0.0,0.0,0.0,0.0,0.0,0.0,1.9288,1.9394,1.9394,1.9119,1.8979,1.9996,1.9956,1.991,2.1382,2.0971,2.0484,2.2,2.1555,2.1332,2.3587,2.3436,2.3456,2.566,2.6154,2.6303,2.6641,2.7156,2.7416,2.714,2.7994,2.9008,2.9879,2.9775,2.9921,3.0791,3.0889,3.0889,3.0889,3.0889,3.0889,3.0889,3.0889,3.0889,3.0889,3.0889,3.0889,3.0889,3.0889,3.0889,3.0889,3.0889,3.0889,3.0889,3.0889,3.0889,3.0908,3.1328,3.1758,3.2218,3.2648,3.3037,3.3386,3.3386,3.3386,3.3386,3.3386,3.3386,3.3386,3.3386,3.3386,3.3386,0.0,0.0,0.0,0.0,0.0,0.0,0.0,0.0,0.0,0.0,0.0,0.0,0.0,0.0,0.0,0.0,0.0,0.0,1.0402,1.0465,1.0535,1.0615,1.084,1.0921,1.0819,1.1372,1.1588,1.1431,1.2126,1.2535,1.27,1.27,1.2893,1.3276,1.3433,1.371,1.4072,1.4239,1.4299,1.4325,1.4658,1.5095,1.5624,0.0,0.0,0.0,0.0,0.0,0.0,0.0,0.0,0.0,1.9288,1.8694,1.8299,1.967,1.906,1.8276,1.9947,2.0951,2.146,2.1253,2.215,2.3262,2.3959,2.4171,2.4775,2.6865,2.6818,2.6486,2.6666,2.7604,2.8077,2.7251,2.7829,2.8783,2.9852,2.9775,2.9921,3.0791,3.0889,3.0889,3.0889,3.0889,3.0889,3.0889,3.0889,3.0889,3.0889,3.0889,3.0889,3.0889,3.0889,3.0889,3.0889,3.0889,3.0889,3.0889,3.0889,3.0889,3.0908,3.1328,3.1758,3.2218,3.2648,3.3037,3.3386,3.3386,3.3386,3.3386,3.3386,3.3386,3.3386,3.3386,3.3386,3.3386,0.0,0.0,0.0,0.0,0.0,0.0,0.0,0.0,0.0,0.0,0.0,0.0,0.0,0.0,0.0,0.0,0.0,0.0,0.0,1.0597,1.0678,1.1038,1.1301,1.1543,1.1774,1.2172,1.2324,1.2222,1.2544,1.27,1.2692,1.2926,1.3192,1.3517,1.392,1.4283,1.4584,1.4811,1.4895,1.4921,1.5203,1.5636,1.6175,0.0,0.0,0.0,0.0,0.0,0.0,0.0,0.0,0.0,1.9144,1.8716,1.8489,1.9685,1.9192,1.8715,2.0684,2.1552,2.1986,2.2556,2.3398,2.4232,2.4769,2.5176,2.5828,2.7202,2.7307,2.7172,2.7316,2.8071,2.8443,2.7692,2.7993,2.8648,2.9703,2.971,2.9921,3.0791,3.0889,3.0889,3.0889,3.0889,3.0889,3.0889,3.0889,3.0889,3.0889,3.0889,3.0889,3.0889,3.0889,3.0889,3.0889,3.0889,3.0889,3.0889,3.0889,3.0889,3.0898,3.1152,3.1504,3.1943,3.2539,3.3037,3.3386,3.3386,3.3386,3.3386,3.3386,3.3386,3.3386,3.3386,3.3386,3.3386,0.0,0.0,0.0,0.0,0.0,0.0,0.0,0.0,0.0,0.0,0.0,0.0,0.0,0.0,0.0,0.0,0.0,0.0,0.0,0.0,1.1051,1.1661,1.1979,1.2461,1.3125,1.3089,1.2938,1.27,1.27,1.2725,1.2773,1.3276,1.3553,1.3676,1.4591,1.5037,1.5098,1.5588,1.5803,1.5792,1.584,1.6187,1.6727,1.7279,0.0,0.0,0.0,0.0,0.0,0.0,0.0,0.0,1.9,1.9049,1.9206,1.9777,1.9916,2.0354,2.2527,2.2389,2.2278,2.491,2.4896,2.4565,2.5823,2.6291,2.6578,2.6959,2.7576,2.8114,2.8266,2.8514,2.8568,2.8344,2.8291,2.8594,2.9481,2.9598,2.9921,3.0791,3.0889,3.0889,3.0889,3.0889,3.0889,3.0889,3.0889,3.0889,3.0889,3.0889,3.0889,3.0889,3.0889,3.0889,3.0889,3.0889,3.0889,3.0889,3.0889,3.0889,3.0889,3.0889,3.1143,3.1621,3.2441,3.3037,3.3386,3.3386,3.3386,3.3386,3.3386,3.3386,3.3386,3.3386,3.3386,3.3386,0.0,0.0,0.0,0.0,0.0,0.0,0.0,0.0,0.0,0.0,0.0,0.0,0.0,0.0,0.0,0.0,0.0,0.0,0.0,0.0,1.1682,1.2285,1.2431,1.278,1.3404,1.3007,1.2753,1.27,1.27,1.2926,1.3336,1.3445,1.3922,1.4687,1.4905,1.5229,1.5647,1.5744,1.5803,1.5839,1.6271,1.6751,1.7291,1.782,1.8362,0.0,0.0,0.0,0.0,0.0,0.0,0.0,1.9,1.8969,1.8928,1.8865,1.9274,1.9908,2.0683,2.1803,2.3034,2.4158,2.4906,2.5486,2.5993,2.6492,2.6955,2.7252,2.7576,2.7888,2.8239,2.8354,2.8381,2.8318,2.8291,2.8594,2.9481,2.9598,2.9921,3.0791,3.0889,3.0889,3.0889,3.0889,3.0889,3.0889,3.0889,3.0889,3.0889,3.0889,3.0889,3.0889,3.0889,3.0889,3.0889,3.0889,3.0889,3.0889,3.0889,3.0889,3.0889,3.0889,3.1309,3.2091,3.2568,3.3037,3.3386,3.3386,3.3386,3.3386,3.3386,3.3386,3.3386,3.3386,3.3386,3.3386,0.0,0.0,0.0,0.0,0.0,0.0,0.0,0.0,0.0,0.0,0.0,0.0,0.0,0.0,0.0,0.0,0.0,0.0,0.0,0.0,1.2292,1.2894,1.3244,1.344,1.3497,1.3237,1.3075,1.3074,1.3074,1.3228,1.3505,1.3994,1.4505,1.5014,1.554,1.5923,1.6199,1.6463,1.6571,1.6595,1.6871,1.7303,1.7808,1.8084,1.853,1.9,1.9,0.0,0.0,0.0,0.0,0.0,0.0,0.0,2.0024,1.9705,1.9733,2.0221,2.1712,2.2324,2.2891,2.447,2.5282,2.5732,2.5868,2.6471,2.7037,2.718,2.7614,2.8054,2.8252,2.8291,2.8291,2.8291,2.8291,2.8594,2.9481,2.9598,2.9921,3.0791,3.0889,3.0889,3.0889,3.0889,3.0889,3.0889,3.0889,3.0889,3.0889,3.0889,3.0889,3.0889,3.0889,3.0889,3.0889,3.0889,3.0889,3.0889,3.0889,3.0889,3.0889,3.0889,3.1387,3.2208,3.2433,3.2842,3.3386,3.3386,3.3386,3.3386,3.3386,3.3386,3.3386,3.3386,3.3386,3.3386,0.0,0.0,0.0,0.0,0.0,0.0,0.0,0.0,0.0,0.0,0.0,0.0,0.0,0.0,0.0,0.0,0.0,0.0,0.0,0.0,0.0,1.3533,1.3995,1.4002,1.3505,1.345,1.3448,1.3505,1.3552,1.3667,1.385,1.4631,1.5109,1.5313,1.6199,1.6655,1.6763,1.7219,1.7399,1.7411,1.7508,1.7796,1.8205,1.8301,1.8614,1.8999,1.9108,1.9421,1.9808,1.9808,0.0,0.0,0.0,0.0,2.1191,2.0828,2.054,2.0801,2.305,2.2961,2.2783,2.5123,2.5693,2.5708,2.5757,2.6396,2.7012,2.7063,2.7721,2.8291,2.8291,2.8291,2.8291,2.8291,2.8291,2.8591,2.9373,2.9549,2.9891,3.0674,3.084,3.0889,3.0889,3.0889,3.0889,3.0889,3.0889,3.0889,3.0889,3.0889,3.0889,3.0889,3.0889,3.0889,3.0889,3.0889,3.0889,3.0889,3.0889,3.0889,3.0889,3.0889,3.1318,3.2091,3.2159,3.2638,3.3289,3.3357,3.3386,3.3386,3.3386,3.3386,3.3386,3.3386,3.3386,3.3386,0.0,0.0,0.0,0.0,0.0,0.0,0.0,0.0,0.0,0.0,0.0,0.0,0.0,0.0,0.0,0.0,0.0,0.0,1.3126,0.0,0.0,1.4178,1.4032,1.3816,1.3505,1.3275,1.327,1.3505,1.3727,1.4292,1.5141,1.505,1.5492,1.6391,1.6547,1.6859,1.7303,1.7375,1.7399,1.7436,1.7917,1.8145,1.8253,1.871,1.894,1.906,1.953,1.9748,1.9808,1.9808,1.9842,0.0,0.0,0.0,2.0654,2.0423,2.0768,2.1258,2.1393,2.2451,2.3887,2.5347,2.5693,2.5757,2.598,2.6536,2.7063,2.7298,2.7868,2.8291,2.8291,2.8291,2.8291,2.8291,2.8291,2.8457,2.8935,2.9336,2.9774,3.0234,3.0644,3.0889,3.0889,3.0889,3.0889,3.0889,3.0889,3.0889,3.0889,3.0889,3.0889,3.0889,3.0889,3.0889,3.0889,3.0889,3.0889,3.0889,3.0889,3.0889,3.0889,3.0889,3.1152,3.1621,3.2032,3.2472,3.291,3.3271,3.3386,3.3386,3.3386,3.3386,3.3386,3.3386,3.3386,3.3386,0.0,0.0,0.0,0.0,0.0,0.0,0.0,0.0,0.0,0.0,0.0,0.0,0.0,0.0,0.0,1.2102,1.2658,1.3254,1.3866,1.4151,1.4308,1.4308,1.4195,1.4069,1.3941,1.3835,1.3908,1.4175,1.455,1.5142,0.0,1.587,1.6197,1.6836,1.7303,1.7628,1.7869,1.8169,1.8301,1.8326,1.8554,1.9191,1.9949,0.0,0.0,0.0,0.0,2.0442,2.0694,2.0694,2.0694,2.0625,2.0208,0.0,0.0,0.0,2.0186,2.0261,2.1232,2.2616,2.4102,2.5386,2.5693,2.5732,2.5844,2.6471,2.7037,2.7155,2.7774,2.8291,2.8291,2.8291,2.8291,2.8291,2.8291,2.8437,2.883,2.9082,2.9453,3.0117,3.0371,3.0605,3.0869,3.0889,3.0889,3.0889,3.0889,3.0889,3.0889,3.0889,3.0889,3.0889,3.0889,3.0889,3.0889,3.0889,3.0889,3.0889,3.0889,3.0889,3.0889,3.0889,3.1123,3.1543,3.2013,3.2443,3.2832,3.322,3.3386,3.3386,3.3386,3.3386,3.3386,3.3386,3.3386,3.3386,0.0,0.0,0.0,0.0,0.0,0.0,0.0,0.0,0.0,0.0,0.0,0.0,0.0,0.0,0.0,0.0,1.3281,1.3817,1.4273,1.4308,1.4308,1.4308,1.4458,1.4461,1.4295,1.4372,1.4574,1.4882,1.5181,1.5719,1.6463,1.6648,1.6821,1.7031,1.763,1.8005,1.8202,1.8544,1.8774,1.8917,1.9214,2.0094,2.1164,0.0,0.0,0.0,0.0,2.1284,2.1612,2.1443,2.1404,2.1302,2.0751,2.0587,0.0,0.0,0.0,1.961,2.1155,2.2189,2.3223,2.4947,2.5298,2.5308,2.564,2.6371,2.6986,2.6986,2.7695,2.8291,2.8291,2.8291,2.8291,2.8291,2.8291,2.8398,2.8711,2.8848,2.9133,2.9795,3.0068,3.0332,3.0684,3.082,3.0889,3.0889,3.0889,3.0889,3.0889,3.0889,3.0889,3.0889,3.0889,3.0889,3.0889,3.0889,3.0889,3.0889,3.0889,3.0889,3.0889,3.0889,3.1064,3.1387,3.1964,3.2374,3.2676,3.3203,3.3386,3.3386,3.3386,3.3386,3.3386,3.3386,3.3386,3.3386,0.0,0.0,0.0,0.0,0.0,0.0,0.0,0.0,0.0,0.0,0.0,0.0,1.2494,1.3003,1.3349,1.3349,1.3907,1.4273,1.4308,1.4308,1.4308,1.4308,1.486,0.0,1.4308,1.4601,1.4969,1.5355,1.5198,1.5722,1.6878,1.7193,1.7231,1.6997,1.7041,1.7454,1.8083,1.7926,1.8166,1.8716,1.9812,2.0438,2.0849,2.1873,2.2321,2.2372,2.2243,2.2231,2.2179,2.1588,2.1404,2.1389,2.1359,2.1344,2.144,0.0,0.0,0.0,2.0545,2.04,2.0801,2.3728,2.418,2.4219,2.5435,2.6371,2.6986,2.6986,2.7695,2.8291,2.8291,2.8291,2.8291,2.8291,2.8291,2.8301,2.832,2.8672,2.8908,2.8957,2.9707,3.0205,3.0234,3.0635,3.0889,3.0889,3.0889,3.0889,3.0889,3.0889,3.0889,3.0889,3.0889,3.0889,3.0889,3.0889,3.0889,3.0889,3.0889,3.0889,3.0889,3.0889,3.0898,3.0976,3.1837,3.2208,3.2296,3.3086,3.3386,3.3386,3.3386,3.3386,3.3386,3.3386,3.3386,3.3386,0.0,0.0,0.0,0.0,0.0,0.0,0.0,0.0,0.0,0.0,0.0,0.0,0.0,1.3845,1.3988,1.3988,1.4178,1.4308,1.4308,1.4308,1.4308,1.4308,1.4339,1.4432,1.4557,1.4501,1.463,1.4949,1.522,1.5578,1.6018,1.6255,1.6439,1.6567,1.7049,1.7391,1.7683,1.8113,1.8622,1.9232,2.054,2.1753,2.2713,2.2197,2.3225,2.4644,2.2586,2.2453,2.3069,2.1761,2.1362,2.1329,2.0842,2.0678,2.063,2.0259,2.0128,2.0108,2.0136,2.0263,2.0811,2.2715,2.3701,2.4293,2.4762,2.5962,2.6986,2.6986,2.7695,2.8291,2.8291,2.8291,2.8291,2.8291,2.8291,2.8291,2.8291,2.8418,2.8613,2.8859,2.9434,2.9931,3.0166,3.0615,3.0889,3.0889,3.0889,3.0889,3.0889,3.0889,3.0889,3.0889,3.0889,3.0889,3.0889,3.0889,3.0889,3.0889,3.0889,3.0889,3.0889,3.0889,3.0889,3.0928,3.1504,3.1904,3.2247,3.2783,3.3174,3.3386,3.3386,3.3386,3.3386,3.3386,3.3386,3.3386,0.0,0.0,0.0,0.0,0.0,0.0,0.0,0.0,0.0,0.0,0.0,0.0,0.0,0.0,1.4308,1.4308,1.4308,1.439,1.4593,1.4499,1.4513,1.4732,1.4647,1.4679,1.4839,1.4762,1.4803,1.4977,1.5337,1.5535,1.5605,1.585,1.603,1.6144,1.6646,1.6948,1.7155,1.8043,1.8685,1.9209,2.0926,2.2239,2.3132,2.2686,2.3747,2.5217,2.2893,2.269,2.3334,2.1991,2.1559,2.1518,2.1047,2.0752,2.0407,1.9608,1.954,1.969,1.9507,1.9697,2.0264,2.1698,2.2703,2.3513,2.4235,2.5513,2.6645,2.6928,2.7695,2.8291,2.8291,2.8291,2.8291,2.8291,2.8291,2.8291,2.8291,2.8291,2.8372,2.8536,2.9191,2.965,2.9819,3.0479,3.0889,3.0889,3.0889,3.0889,3.0889,3.0889,3.0889,3.0889,3.0889,3.0889,3.0889,3.0889,3.0889,3.0889,3.0889,3.0889,3.0889,3.0889,3.0889,3.0908,3.1182,3.1631,3.2237,3.2627,3.3037,3.3386,3.3386,3.3386,3.3386,3.3386,3.3386,3.3386,0.0,0.0,0.0,0.0,0.0,0.0,0.0,0.0,0.0,1.2623,0.0,0.0,0.0,0.0,0.0,1.4333,1.4354,1.4585,1.5177,1.4897,1.4975,1.5554,1.5811,1.5673,1.5083,1.5394,1.5509,1.5472,1.5472,1.557,1.5767,1.6088,1.6074,1.5776,1.5787,1.6062,1.6573,1.7648,1.824,1.8635,2.0934,2.1835,2.1975,2.3359,2.3938,2.3929,2.3198,2.295,2.2861,2.2199,2.1939,2.1943,2.2037,2.1624,2.0965,2.0291,1.9589,1.8946,0.0,0.0,0.0,2.0713,2.1181,2.1776,2.3845,2.5045,2.5952,2.6781,2.7676,2.8291,2.8291,2.8291,2.8291,2.8291,2.8291,2.8291,2.8291,2.8291,2.8211,2.7933,2.8896,2.9477,2.915,3.0189,3.0879,3.0889,3.0889,3.0889,3.0889,3.0889,3.0889,3.0889,3.0889,3.0889,3.0889,3.0889,3.0889,3.0889,3.0889,3.0889,3.0889,3.0889,3.0889,3.0889,3.0889,3.1397,3.2208,3.2638,3.3027,3.3386,3.3386,3.3386,3.3386,3.3386,3.3386,3.3386,0.0,0.0,0.0,0.0,0.0,0.0,0.0,0.0,0.0,0.0,0.0,0.0,0.0,0.0,1.5439,1.5394,1.543,1.5506,1.5631,1.5179,1.4998,1.5161,1.4723,1.4518,1.4585,1.4487,1.453,1.4699,1.4699,1.4729,1.4789,1.4884,1.5059,1.5311,1.5647,1.6062,1.6582,1.7854,1.8807,1.969,2.2076,2.275,2.2404,2.3216,2.3879,2.4123,2.2392,2.1883,2.1987,2.1522,2.0742,2.0144,2.108,2.1257,0.0,2.0291,0.0,0.0,1.8316,0.0,0.0,0.0,0.0,0.0,2.2451,2.4196,2.5762,2.602,2.724,2.8291,2.8291,2.8291,2.8291,2.8291,2.8291,2.8291,2.8291,2.8291,2.8264,2.8211,2.8715,2.9201,2.9429,2.985,3.0345,3.0869,3.0674,3.0635,3.0889,3.0889,3.0889,3.0889,3.0889,3.0889,3.0889,3.0889,3.0889,3.0889,3.0889,3.0889,3.0889,3.0889,3.0889,3.0889,3.0889,3.1191,3.1728,3.2198,3.2764,3.3386,3.3386,3.3386,3.3386,3.3386,3.3386,3.3386,0.0,0.0,0.0,0.0,0.0,0.0,0.0,0.0,0.0,0.0,0.0,0.0,0.0,0.0,1.476,1.503,1.5153,1.5313,1.5505,1.5289,1.5199,1.5251,1.4696,1.4447,1.4528,1.4373,1.4338,1.4396,1.4396,1.4494,1.4691,1.4691,1.5039,1.5693,1.5964,1.6476,1.718,1.7962,1.8711,1.9574,2.1543,2.2151,2.1942,2.2497,2.3043,2.3278,2.1968,2.1799,2.21,2.1736,2.1162,2.0682,2.1134,2.0994,2.0549,1.9852,0.0,0.0,0.0,0.0,0.0,1.9502,0.0,0.0,2.2246,2.3825,2.5367,2.6098,2.7344,2.8291,2.8291,2.8291,2.8291,2.8291,2.8291,2.8291,2.8291,2.8291,2.8264,2.8157,2.8581,2.9037,2.9364,2.9734,3.0228,3.0859,3.0733,3.0694,3.0889,3.0889,3.0889,3.0889,3.0889,3.0889,3.0889,3.0889,3.0889,3.0889,3.0889,3.0889,3.0889,3.0889,3.0889,3.0889,3.0889,3.1133,3.1553,3.2022,3.2589,3.3174,3.3318,3.3386,3.3386,3.3386,3.3386,3.3386,0.0,0.0,0.0,0.0,0.0,0.0,0.0,0.0,0.0,0.0,1.316,1.3992,0.0,0.0,0.0,0.0,1.4382,1.471,1.5218,1.5366,1.5512,1.5688,1.536,1.5073,1.4829,1.4829,1.4724,1.456,1.456,1.4778,1.518,1.518,1.5649,1.65,1.65,0.0,1.7923,1.7923,1.8239,1.8851,2.0114,2.0739,2.0972,2.1551,2.188,2.2017,2.1892,2.2175,2.2559,2.2199,2.2326,2.2516,2.1659,2.0927,2.0195,1.926,1.863,0.0,0.0,0.0,0.0,1.9746,2.0224,0.0,2.242,2.3493,2.4615,2.6167,2.7236,2.7871,2.7956,2.793,2.7949,2.7998,2.8086,2.8184,2.8281,2.8291,2.8211,2.796,2.8478,2.8933,2.914,2.9714,3.0313,3.0859,3.0889,3.0889,3.0889,3.0889,3.0889,3.0889,3.0889,3.0889,3.0889,3.0889,3.0889,3.0889,3.0889,3.0889,3.0889,3.0889,3.0889,3.0889,3.0889,3.1103,3.1484,3.2003,3.2443,3.2832,3.322,3.3386,3.3386,3.3386,3.3386,3.3386,0.0,0.0,0.0,0.0,0.0,0.0,0.0,0.0,0.0,1.2476,1.3124,1.3927,0.0,0.0,0.0,0.0,1.5578,1.583,1.6201,1.5913,1.5904,1.6315,1.5905,1.564,1.559,1.559,1.5578,1.5527,1.5527,1.5571,1.5656,1.5656,1.5964,1.65,1.65,1.6852,1.7448,1.7448,1.8046,1.9092,1.9836,2.0226,2.0446,2.1318,2.1895,2.2252,2.222,2.1881,2.1348,2.0801,2.1675,2.2729,2.1238,2.1358,2.1622,1.961,1.9256,1.9396,1.8763,1.8937,1.9325,1.9413,2.0009,0.0,2.0547,2.1737,2.2978,2.3298,2.4323,2.5283,2.5649,2.5718,2.5835,2.6147,2.6791,2.75,2.8193,2.8291,2.8291,2.8237,2.8333,2.8694,2.9446,2.9396,2.9745,3.083,3.0889,3.0889,3.0889,3.0889,3.0889,3.0889,3.0889,3.0889,3.0889,3.0889,3.0889,3.0889,3.0889,3.0889,3.0889,3.0889,3.0889,3.0889,3.0889,3.0937,3.1074,3.1876,3.2443,3.2832,3.322,3.3386,3.3386,3.3386,3.3386,3.3386,0.0,0.0,0.0,0.0,0.0,0.0,0.0,0.0,0.0,1.2407,1.2871,1.3556,0.0,0.0,0.0,0.0,0.0,0.0,0.0,1.5764,1.5802,1.5805,1.5796,1.5678,1.5464,1.568,1.5798,1.5798,1.5798,1.5931,1.6149,1.6149,1.6618,1.7416,1.6824,1.7038,1.7807,1.7205,1.7306,1.7952,1.924,2.0263,2.1107,2.1722,2.2216,2.2593,2.2593,2.2478,2.2291,2.2338,2.2453,2.25,2.1964,2.1669,2.1273,1.9861,1.9833,2.0054,1.9185,1.9363,1.9771,1.9633,1.9922,0.0,0.0,2.1084,2.1971,2.2401,2.3337,2.417,2.4408,2.4623,2.4814,2.5015,2.5971,2.6571,2.6247,2.7402,2.8264,2.813,2.8211,2.8579,2.9269,2.9346,2.9771,3.082,3.0889,3.0889,3.0889,3.0889,3.0889,3.0889,3.0889,3.0889,3.0889,3.0889,3.0889,3.0889,3.0889,3.0889,3.0889,3.0889,3.0889,3.0889,3.0889,3.0889,3.0947,3.1582,3.21,3.2579,3.3174,3.3386,3.3386,3.3386,3.3386,3.3386,1.039,0.0,0.0,0.0,0.0,0.0,0.0,0.0,0.0,1.2371,1.2998,0.0,0.0,1.4317,0.0,0.0,0.0,0.0,1.5497,1.5954,1.6088,1.5806,1.58,1.5844,1.5935,1.5931,1.5985,1.6083,1.6083,1.624,1.6521,1.6613,1.7102,1.7884,1.7243,1.7307,1.7864,1.7133,1.6933,1.7282,1.8859,2.0187,2.1264,2.1702,2.2257,2.2852,2.307,2.3367,2.37,2.4025,2.3277,2.2201,2.23,2.1748,2.0864,1.983,2.022,2.0692,1.9493,1.9663,2.0109,1.9746,1.9708,1.9863,0.0,0.0,0.0,2.1727,2.2441,2.2971,2.3027,2.3389,2.3679,2.3767,2.4902,2.5319,2.4106,2.6024,2.7474,2.7254,2.7851,2.8456,2.8842,2.9259,2.9913,3.083,3.0703,3.0655,3.0889,3.0889,3.0889,3.0889,3.0889,3.0889,3.0889,3.0889,3.0889,3.0889,3.0889,3.0889,3.0889,3.0889,3.0889,3.0889,3.0889,3.0889,3.0928,3.1318,3.1777,3.2276,3.3008,3.3318,3.3386,3.3386,3.3386,3.3386,1.1417,1.1384,0.0,0.0,0.0,0.0,0.0,0.0,0.0,1.2834,1.4371,1.5662,1.617,1.7678,1.8877,1.9381,1.9438,1.894,1.7728,1.771,1.7915,1.8276,1.6683,1.6781,1.8868,1.7275,1.6653,1.7128,1.7128,1.6931,1.661,1.7013,1.6839,1.6248,1.759,1.7456,1.6253,1.7176,1.8168,1.9102,1.9315,1.9151,1.8901,1.9889,2.1208,2.2674,2.3684,2.4067,2.4006,2.3107,2.2685,2.2223,2.0467,2.1194,2.2141,1.9101,2.0152,2.1759,1.9347,1.9201,1.9595,1.8919,1.9054,1.9268,1.8908,0.0,1.9531,1.9629,0.0,1.9912,2.0283,0.0,0.0,2.1513,2.2633,2.3435,2.333,2.4199,2.4834,2.4813,2.6872,2.8223,2.8041,2.8782,2.9706,3.083,2.9947,2.9822,3.085,3.0889,3.0889,3.0889,3.0889,3.0889,3.0889,3.0889,3.0889,3.0889,3.0889,3.0889,3.0889,3.0889,3.0889,3.0889,3.0889,3.0889,3.0928,3.1318,3.1777,3.2247,3.2685,3.3096,3.3386,3.3386,3.3386,3.3386,1.2004,1.2125,0.0,0.0,0.0,0.0,0.0,0.0,1.3456,1.3728,1.4482,1.5061,1.527,1.6013,1.7027,1.8359,1.848,1.8348,1.8032,1.825,0.0,1.7057,1.6784,1.6991,1.7701,1.7224,1.7074,1.7306,1.7029,1.6793,1.6599,1.6807,1.6782,1.6574,1.7556,1.7839,1.7631,1.8374,1.8424,1.8139,1.9569,1.9428,1.8603,2.1088,2.2647,2.355,2.4027,2.4202,2.4128,2.3686,2.2649,2.1649,2.222,2.169,2.0748,2.0197,2.0671,2.0985,1.9121,1.9549,2.0258,1.8925,1.9218,1.955,1.8492,1.8401,1.8545,1.8545,0.0,0.0,0.0,0.0,0.0,0.0,2.1747,2.2456,2.1623,2.3186,2.4394,2.4364,2.5453,2.665,2.7781,2.9289,3.0383,3.0859,3.047,3.0392,3.0869,3.0889,3.0889,3.0889,3.0889,3.0889,3.0889,3.0889,3.0889,3.0889,3.0889,3.0889,3.0889,3.0889,3.0889,3.0889,3.0889,3.0889,3.0928,3.1318,3.1777,3.2237,3.2627,3.3057,3.3386,3.3386,3.3386,3.3386,1.267,0.0,0.0,0.0,1.3118,0.0,0.0,1.3641,1.4013,1.4363,1.4987,1.539,1.539,1.6267,1.7465,1.8927,1.9376,1.9524,1.937,1.9336,1.8764,1.7546,1.7115,1.7118,1.7589,1.7256,1.715,1.7306,1.6962,1.6666,1.6414,1.6542,1.6501,1.6347,1.7161,1.7794,1.8317,1.8929,1.8845,1.8447,2.0254,2.0559,2.0166,2.2504,2.3723,2.4202,2.4202,2.4202,2.4156,2.3864,2.2654,2.1553,2.3098,2.2007,2.0371,2.1164,2.1426,2.1063,1.9318,1.9918,2.0624,1.8868,1.9016,1.932,1.8239,1.7991,1.7991,1.7991,1.8235,0.0,0.0,0.0,1.9775,1.9874,0.0,2.1609,2.0527,2.2104,2.3347,2.3292,2.402,2.5305,2.7291,2.8956,3.0041,3.0332,3.0411,3.0587,3.0879,3.0889,3.0889,3.0889,3.0889,3.0889,3.0889,3.0889,3.0889,3.0889,3.0889,3.0889,3.0889,3.0889,3.0889,3.0889,3.0889,3.0889,3.0928,3.1318,3.1777,3.2237,3.2627,3.3057,3.3386,3.3386,3.3386,3.3386,1.3652,1.3248,0.0,1.3587,1.3663,1.3827,1.4287,1.4363,1.4385,1.4396,1.6426,1.7875,1.7875,2.1021,2.3202,2.3457,2.4633,2.4624,2.2939,2.1577,2.1114,2.1759,1.798,1.7277,2.0306,1.7841,1.6776,1.7306,1.7278,1.6807,1.5931,1.6385,1.5885,1.4646,1.6293,1.6996,1.7045,1.8229,1.9815,2.1566,2.163,2.2598,2.3944,2.3354,2.357,2.4202,2.4202,2.4202,2.4042,2.2991,2.2607,2.2392,2.1482,2.1789,2.2299,2.1372,2.2296,2.2999,2.0216,2.0023,2.0207,1.8444,1.804,1.8059,1.8001,1.7991,1.7991,1.7991,1.8001,1.8137,1.8529,1.8986,1.9443,0.0,2.0332,0.0,0.0,2.0674,2.0712,2.0723,2.2722,2.4744,2.6293,2.703,2.7856,2.8889,2.9144,2.9754,3.085,3.0889,3.0889,3.0889,3.0889,3.0889,3.0889,3.0889,3.0889,3.0889,3.0889,3.0889,3.0889,3.0889,3.0889,3.0889,3.0889,3.0889,3.0928,3.1318,3.1777,3.2237,3.2627,3.3057,3.3386,3.3386,3.3386,3.3386,0.0,0.0,0.0,1.4199,1.4155,1.4319,1.4788,1.4864,1.504,1.5533,1.6306,1.687,1.7051,1.8174,1.9446,2.08,2.1312,2.1441,2.1175,2.0544,2.0096,1.9893,1.7903,1.7531,1.909,1.7738,1.7117,1.7306,1.668,1.6204,1.5902,1.5744,1.5245,1.4576,1.6258,1.7422,1.8201,1.9648,2.0674,2.1324,2.1577,2.2195,2.3011,2.3588,2.398,2.4202,2.4202,2.4202,2.4137,2.3772,2.31,2.2493,2.2991,2.2343,2.1497,2.1953,2.2039,2.1764,2.0825,2.1216,2.1453,1.9476,1.9525,1.9688,1.8311,1.7991,1.7991,1.7991,1.8215,1.8432,1.8568,1.9201,0.0,0.0,0.0,2.0605,0.0,2.082,2.1112,2.1418,2.3255,2.4712,2.5218,2.7159,2.8505,2.8869,2.9788,3.0489,3.0879,3.0889,3.0889,3.0889,3.0889,3.0889,3.0889,3.0889,3.0889,3.0889,3.0889,3.0889,3.0889,3.0889,3.0889,3.0889,3.0889,3.0889,3.0947,3.165,3.2061,3.2267,3.2939,3.3269,3.3386,3.3386,3.3386,3.3386,1.4849,1.5136,1.5202,1.4734,1.4789,1.4971,1.5238,1.5083,1.5203,1.6019,1.6082,1.6252,1.6788,1.7397,1.8301,1.9633,2.0134,2.0525,2.0811,2.0282,1.9814,1.9569,1.8261,1.7902,1.8662,1.7709,1.7186,1.7186,1.6324,1.5816,1.5642,1.5342,1.5037,1.4753,1.5848,1.737,1.919,2.0225,2.1273,2.224,2.2483,2.2749,2.3061,2.3898,2.3911,2.358,2.4045,2.4202,2.4202,2.4202,2.3654,2.3116,2.3929,2.3198,2.2159,2.2945,2.2704,2.2122,2.1727,2.2106,2.2182,2.0491,2.0699,2.0832,1.8963,1.8648,1.8737,1.8737,1.861,1.8834,1.9937,1.988,1.9917,0.0,0.0,2.0566,0.0,2.1191,2.1601,2.206,2.3178,2.4164,2.4787,2.6472,2.793,2.882,2.9707,3.0391,3.0869,3.0889,3.0889,3.0889,3.0889,3.0889,3.0889,3.0889,3.0889,3.0889,3.0889,3.0889,3.0889,3.0889,3.0889,3.0889,3.0889,3.0889,3.0957,3.1846,3.2198,3.2286,3.3096,3.3386,3.3386,3.3386,3.3386,3.3386,1.5734,1.577,1.5676,1.5266,1.5513,1.5758,1.5642,1.5101,1.5033,1.598,1.5996,1.6297,1.7261,1.8849,1.9921,2.0109,2.117,2.1861,2.187,2.0771,2.0337,2.0847,1.904,1.8384,1.9209,1.7756,1.7015,1.7018,1.6242,1.5642,1.5196,1.5177,1.5139,1.5102,1.5102,1.6882,1.9914,1.9914,2.1566,2.4202,2.4202,2.4165,2.4119,2.4183,2.3415,2.246,2.3736,2.4202,2.4202,2.4202,2.4202,2.4202,2.4202,2.4202,2.4202,2.4202,2.4202,2.3978,2.2959,2.269,2.2448,2.1445,2.149,2.1403,1.9964,1.9927,2.0212,2.0212,1.9315,1.9411,2.2284,2.0957,1.999,0.0,0.0,0.0,2.1112,2.1611,2.2041,2.244,2.2588,2.3252,2.4848,2.5112,2.6206,2.8615,2.8906,2.9521,3.082,3.085,3.085,3.0889,3.0889,3.0889,3.0889,3.0889,3.0889,3.0889,3.0889,3.0889,3.0889,3.0889,3.0889,3.0889,3.0889,3.0889,3.0957,3.1846,3.2198,3.2286,3.3096,3.3386,3.3386,3.3386,3.3386,3.3386,1.4754,1.5442,1.6093,1.6314,1.5887,1.5617,1.5924,1.6079,1.6447,1.7223,1.7557,1.792,1.8383,1.8814,1.9103,1.9153,1.9441,1.9799,2.0192,1.9377,1.9353,2.0413,1.8877,1.8492,1.956,1.7877,1.7116,1.7364,1.6023,1.5313,1.5191,1.4843,1.4837,1.5102,1.5102,1.6882,1.9914,1.9914,2.1566,2.4202,2.4202,2.3626,2.2896,2.3828,2.3415,2.246,2.3736,2.4202,2.4202,2.4202,2.4202,2.4202,2.4202,2.4202,2.4202,2.4202,2.4202,2.4137,2.3849,2.3791,2.3618,2.2848,2.2745,2.2594,2.1775,2.1667,2.1752,2.1752,2.1733,2.1695,2.1586,2.1463,2.1239,2.0832,2.0634,2.0683,2.1132,2.1611,2.2041,2.244,2.3633,2.4232,2.3659,2.5357,2.6787,2.7425,2.8682,2.9834,3.084,3.0292,3.0243,3.0869,3.0889,3.0889,3.0889,3.0889,3.0889,3.0889,3.0889,3.0889,3.0889,3.0889,3.0889,3.0889,3.0889,3.0889,3.0957,3.1846,3.2198,3.2286,3.3096,3.3386,3.3386,3.3386,3.3386,3.3386,1.4612,1.5087,1.5576,1.5842,1.576,1.587,1.6499,1.6367,1.659,1.7578,1.7648,1.7903,1.8661,1.8941,1.9121,1.9272,1.928,1.9362,1.9543,1.9234,1.9329,1.9914,1.9234,1.9135,1.978,1.8473,1.766,1.737,1.618,1.5445,1.5151,1.4899,1.5074,1.5618,1.5618,1.7019,1.9447,2.0509,2.1896,2.3424,2.399,2.3764,0.0,2.3935,2.3745,2.3208,2.3929,2.4202,2.4202,2.4202,2.4202,2.4202,2.4202,2.4202,2.4202,2.4202,2.4202,2.4202,2.4202,2.4339,2.4367,2.3981,2.4153,2.418,2.3182,2.3084,2.3215,2.3215,2.2972,2.2925,2.3401,2.2503,2.1294,2.0179,2.0409,2.0837,2.1151,2.1761,2.2272,2.2584,2.3566,2.4014,2.3454,2.5605,2.709,2.7285,2.822,2.9149,2.998,2.9764,2.9911,3.0566,3.0781,3.0889,3.0889,3.0889,3.0889,3.0889,3.0889,3.0889,3.0889,3.0889,3.0889,3.0889,3.0889,3.0996,3.1221,3.1915,3.2306,3.251,3.3164,3.3386,3.3386,3.3386,3.3386,3.3386,1.484,1.4752,1.4678,1.4678,1.5455,1.6318,1.7084,1.6517,1.6414,1.7588,1.7329,1.7491,1.8711,1.9213,1.9574,1.9861,1.9892,1.9804,1.9566,1.9777,1.9804,1.9564,1.9778,1.9908,1.9956,1.9213,1.8303,1.7271,1.6551,1.5809,1.5102,1.5157,1.5588,1.6305,1.6305,1.7276,1.9071,2.1343,2.2396,2.2657,2.3745,2.4202,2.4202,2.4202,2.4202,2.4202,2.4202,2.4202,2.4202,2.4202,2.4202,2.4202,2.4202,2.4202,2.4202,2.4202,2.4238,2.4284,2.4284,2.4562,2.4902,2.4948,2.548,2.568,2.4458,2.443,2.4699,2.4699,2.3857,2.378,2.5948,2.3635,2.1069,2.0043,2.0653,2.1323,2.1553,2.2255,2.2773,2.2906,2.3235,0.0,2.3656,2.5591,2.7031,2.7497,2.7575,2.8024,2.8955,2.9258,2.9706,3.0264,3.0684,3.0889,3.0889,3.0889,3.0889,3.0889,3.0889,3.0889,3.0889,3.0889,3.0889,3.0889,3.0889,3.1133,3.1553,3.2022,3.2482,3.291,3.325,3.3386,3.3386,3.3386,3.3386,3.3386,1.4529,1.4558,1.4534,1.4534,1.5589,1.6581,1.7117,1.7742,1.8251,1.8485,1.8974,1.9405,1.9653,1.9758,1.9853,1.9884,1.9892,1.9886,1.9838,1.9878,1.9878,1.983,1.9862,2.0028,2.0322,1.9319,1.8405,1.7619,1.694,1.6084,1.5111,1.5432,1.5854,1.6305,1.6305,1.7743,2.0271,2.17,2.2914,2.3898,2.4119,2.4202,2.4202,2.4202,2.4202,2.4202,2.4202,2.4202,2.4202,2.4202,2.4202,2.4202,2.4202,2.4202,2.4202,2.4202,2.4425,2.47,2.47,2.4994,2.537,2.57,2.5911,2.603,2.6094,2.6168,2.6214,2.6214,2.6048,2.5745,2.5214,2.3919,2.2577,2.1575,2.2388,2.3261,2.3621,2.3824,2.3823,2.3577,2.4655,2.477,2.3139,2.4785,2.6118,2.6582,2.6934,2.7812,2.9403,2.8857,2.9209,3.0723,3.085,3.0889,3.0889,3.0889,3.0889,3.0889,3.0889,3.0889,3.0889,3.0889,3.0889,3.0889,3.0889,3.1133,3.1553,3.2022,3.2617,3.3289,3.3357,3.3386,3.3386,3.3386,3.3386,3.3386,1.398,1.4021,1.4217,1.4764,1.5828,1.6866,1.7642,1.8797,1.945,1.907,1.934,1.965,1.9838,2.0023,2.0234,2.04,2.0408,2.0408,2.0408,2.0408,2.0408,2.0408,2.0408,2.0496,2.0662,2.015,1.9178,1.7689,1.7379,1.6506,1.5158,1.5351,1.5753,1.6343,1.7169,1.8292,1.9685,2.1526,2.2643,2.3263,2.392,2.4202,2.4202,2.4202,2.4202,2.4202,2.4202,2.4202,2.4202,2.4202,2.4202,2.4202,2.4202,2.4333,2.4507,2.4507,2.4792,2.5113,2.5113,2.5398,2.5746,2.5939,2.615,2.6361,2.6572,2.6591,2.6591,2.6591,2.6591,2.6215,2.503,2.4024,2.3171,2.2481,2.2795,2.3308,2.3767,2.4442,2.4747,2.4461,2.4818,2.4913,2.4439,2.4701,2.5188,2.5981,2.6855,2.79,2.916,2.8848,2.9209,3.0488,3.0762,3.0889,3.0889,3.0889,3.0889,3.0889,3.0889,3.0889,3.0889,3.0889,3.0889,3.0889,3.0889,3.126,3.1904,3.2549,3.3057,3.3386,3.3386,3.3386,3.3386,3.3386,3.3386,3.3386,1.3848,1.3943,1.4277,1.5324,1.6416,1.7432,1.8287,1.9606,2.0271,1.9629,1.9598,1.9732,2.0007,2.0321,2.0615,2.0867,2.0899,2.0899,2.0899,2.0899,2.0899,2.0899,2.0899,2.0899,2.0899,2.0899,1.9966,1.8053,1.7919,1.7095,1.5644,1.5498,1.5939,1.6866,1.8133,1.8979,1.9584,2.1498,2.2451,2.2795,2.3791,2.4202,2.4202,2.4202,2.4202,2.4202,2.4202,2.4257,2.4339,2.4339,2.4339,2.4339,2.4339,2.4599,2.4929,2.4929,2.5214,2.5517,2.5517,2.5811,2.6123,2.6123,2.6371,2.6591,2.6591,2.6591,2.6591,2.6591,2.6591,2.6215,2.503,2.4455,2.3981,2.3389,2.3424,2.3708,2.4216,2.5208,2.5743,2.5444,2.5086,2.5119,2.5793,2.5192,2.5112,2.5946,2.6976,2.7966,2.884,2.8889,2.9268,3.0039,3.0508,3.0703,3.0605,3.0801,3.0889,3.0889,3.0889,3.0889,3.0889,3.0889,3.0889,3.0889,3.0889,3.1377,3.2257,3.3076,3.3386,3.3386,3.3386,3.3386,3.3386,3.3386,3.3386,3.3386,1.4858,1.5049,1.5364,1.6384,1.7701,1.8638,1.8741,1.9947,2.071,2.0357,2.0547,2.0762,2.0794,2.0839,2.0859,2.0891,2.0899,2.0899,2.0899,2.0899,2.0899,2.0899,2.0899,2.0899,2.0899,2.0899,2.0334,1.9141,1.8608,1.7903,1.7102,1.6483,1.7,1.8473,1.8621,1.9914,2.1975,2.2204,2.2969,2.4036,2.4156,2.4202,2.4202,2.4202,2.4202,2.4202,2.4202,2.4425,2.4746,2.4746,2.4746,2.4746,2.4746,2.5021,2.5343,2.5343,2.5618,2.593,2.593,2.6242,2.6527,2.6527,2.6554,2.6591,2.6591,2.6591,2.6591,2.6591,2.6591,2.6215,2.503,2.5645,2.5931,2.4819,2.5526,2.6371,2.6802,2.6958,2.6903,2.6517,2.6586,2.6405,2.5778,2.6449,2.6961,2.7038,2.7056,2.7591,2.883,2.8889,2.9141,2.9647,3.0039,3.0078,2.9725,3.0517,3.0889,3.0889,3.0889,3.0889,3.0889,3.0889,3.0889,3.0889,3.0889,3.1377,3.2257,3.3076,3.3386,3.3386,3.3386,3.3386,3.3386,3.3386,3.3386,3.3386,1.5119,1.5256,1.581,1.7538,1.8308,1.9143,2.0499,2.1213,2.1515,2.138,2.1091,2.0899,2.0899,2.0899,2.0899,2.0899,2.0899,2.0899,2.0899,2.0899,2.0899,2.0899,2.0899,2.0899,2.0899,2.0899,2.0395,1.9372,1.8477,1.7566,1.6635,1.6376,1.7066,1.8561,1.9487,2.0438,2.1395,2.2112,2.2903,2.3662,2.3662,2.387,2.4202,2.4202,2.4358,2.4553,2.4553,2.4819,2.5159,2.5159,2.5159,2.5159,2.5159,2.5434,2.5746,2.5746,2.604,2.6361,2.6361,2.649,2.6591,2.6591,2.6591,2.6591,2.6591,2.6591,2.6591,2.6591,2.6591,2.6435,2.5985,2.5884,2.5884,2.5893,2.6086,2.6462,2.7114,2.7628,2.7847,2.7691,2.7326,2.7123,2.7195,2.6916,2.7087,2.7914,2.8075,2.8352,2.8859,2.9247,2.9606,2.9941,3.0189,3.0344,3.039,3.0742,3.0889,3.0889,3.0889,3.0889,3.0889,3.0889,3.0889,3.0918,3.1435,3.1885,3.2257,3.3076,3.3386,3.3386,3.3386,3.3386,3.3386,3.3386,3.3386,3.3386,1.5862,1.5974,1.6568,1.8459,1.8789,1.9328,2.0933,2.1186,2.1186,2.1186,2.0727,2.0619,2.1174,2.1227,2.1227,2.1227,2.1227,2.1179,2.1058,2.105,2.1002,2.0899,2.0899,2.0899,2.0899,2.0899,2.0534,1.9828,1.8787,1.7924,1.7287,1.7097,1.7736,1.9126,2.0213,2.091,2.1292,2.2308,2.2954,2.3329,2.3479,2.382,2.422,2.4339,2.4553,2.4829,2.4939,2.5232,2.5572,2.5572,2.5655,2.5728,2.5609,2.5847,2.6169,2.6169,2.6389,2.6591,2.6591,2.6591,2.6591,2.6591,2.6591,2.6591,2.6591,2.6591,2.6591,2.6591,2.6591,2.6591,2.6591,2.6141,2.5985,2.6646,2.6545,2.6628,2.7444,2.8031,2.8352,2.8223,2.7729,2.7575,2.8031,2.7381,2.733,2.8347,2.8911,2.9183,2.9168,2.9581,2.9795,2.9735,3.0036,3.0267,3.0364,3.0733,3.0889,3.0889,3.0889,3.0889,3.0889,3.0889,3.0889,3.0928,3.169,3.2081,3.2257,3.2939,3.3279,3.3386,3.3386,3.3386,3.3386,3.3386,3.3386,3.3386,1.7365,1.7568,1.7901,1.9007,1.9194,1.9201,1.9243,1.9215,1.9215,1.9215,1.9236,1.9921,2.178,2.1995,2.1995,2.1995,2.1995,2.1825,2.1412,2.1388,2.1264,2.0907,2.0899,2.0899,2.0899,2.0899,2.0891,2.0875,1.986,1.9549,1.9845,1.9173,1.9514,2.0683,2.07,2.1369,2.2509,2.3045,2.3304,2.3354,2.3945,2.4202,2.4248,2.4636,2.4801,2.4856,2.5251,2.5645,2.5976,2.5976,2.6251,2.6527,2.6114,2.627,2.6582,2.6582,2.6609,2.6591,2.6591,2.6591,2.6591,2.6591,2.6591,2.6591,2.6591,2.6591,2.6591,2.6591,2.6591,2.6591,2.6591,2.6582,2.671,2.7132,2.7197,2.7472,2.8269,2.8388,2.8242,2.7848,2.7793,2.7793,2.7793,2.804,2.8182,2.8191,2.9265,2.9869,2.9805,2.9795,2.9441,2.8644,2.9384,2.9603,2.9123,3.0315,3.0889,3.0889,3.0889,3.0889,3.0889,3.0889,3.0889,3.0918,3.1338,3.1768,3.2237,3.2627,3.3047,3.3386,3.3386,3.3386,3.3386,3.3386,3.3386,3.3386,1.6913,1.6991,1.7349,1.8509,1.873,1.9,1.9828,1.9948,1.9948,1.9948,1.9948,2.0168,2.0789,2.0389,2.0345,2.0985,2.1039,2.1264,2.178,2.1825,2.1751,2.1658,2.1658,2.1658,2.1658,2.1658,2.1658,2.1658,2.0608,2.014,2.0247,2.0031,2.0508,2.1588,2.1588,2.1801,2.2205,2.2783,2.3253,2.3644,2.4222,2.4695,2.5021,2.5159,2.5379,2.5627,2.5756,2.6068,2.6416,2.6416,2.6481,2.6564,2.6462,2.6508,2.6591,2.6591,2.6591,2.6591,2.6591,2.6591,2.6591,2.6591,2.6591,2.6591,2.6591,2.6591,2.6591,2.6591,2.6591,2.6591,2.6591,2.6811,2.7059,2.7187,2.7674,2.8095,2.8361,2.8627,2.8775,2.8638,2.8629,2.8629,2.8629,2.8687,2.8602,2.8238,2.8528,2.869,2.8576,2.923,2.9446,2.9098,2.9418,2.9715,2.9988,3.0374,3.0665,3.0889,3.0889,3.0889,3.0889,3.0889,3.0889,3.0918,3.1338,3.1768,3.2237,3.2627,3.3037,3.3386,3.3386,3.3386,3.3386,3.3386,3.3386,3.3386,1.6996,1.6996,1.7244,1.7985,1.8125,1.8384,1.9138,1.9258,1.9258,1.9258,1.9258,1.9258,1.9258,1.8834,1.9087,2.0359,2.0505,2.0807,2.162,2.1666,2.1767,2.1992,2.2011,2.2011,2.2011,2.2011,2.2011,2.2011,2.1324,2.1006,2.1006,2.1006,2.1356,2.2011,2.2011,2.2119,2.2387,2.2948,2.3533,2.4096,2.4683,2.5111,2.5416,2.5563,2.5774,2.603,2.6169,2.6389,2.6591,2.6591,2.6591,2.6591,2.6591,2.6591,2.6591,2.6591,2.6591,2.6591,2.6591,2.6591,2.6591,2.6591,2.6591,2.6591,2.6591,2.6591,2.6591,2.6591,2.6591,2.6664,2.6811,2.7041,2.7307,2.761,2.8058,2.8443,2.859,2.8828,2.8904,2.8592,2.8555,2.8555,2.8555,2.8555,2.8531,2.8502,2.8483,2.8459,2.8369,2.879,2.907,2.9164,2.9378,2.9677,3.0059,3.0294,3.0509,3.0704,3.083,3.0889,3.0889,3.0889,3.0889,3.0908,3.1172,3.1531,3.1995,3.242,3.2838,3.3238,3.3355,3.3386,3.3386,3.3386,3.3386,3.3386,1.7514,1.7514,1.7514,1.7514,1.7514,1.7514,1.7514,1.7514,1.7514,1.7514,1.7514,1.7514,1.7514,1.7514,1.8211,1.9953,2.0155,2.043,2.1016,2.105,2.1304,2.1856,2.1894,2.1894,2.1894,2.1894,2.1921,2.1975,2.2029,2.2056,2.2056,2.2056,2.2056,2.2056,2.211,2.2433,2.3004,2.3583,2.4175,2.4711,2.5271,2.548,2.5517,2.5893,2.6031,2.6077,2.6472,2.6591,2.6591,2.6591,2.6591,2.6591,2.6591,2.6591,2.6591,2.6591,2.6591,2.6591,2.6591,2.6591,2.6591,2.6591,2.6591,2.6591,2.6591,2.6591,2.6591,2.6591,2.6591,2.671,2.7132,2.7224,2.75,2.8269,2.8416,2.8563,2.8959,2.9014,2.8729,2.7968,2.7876,2.7876,2.7876,2.7876,2.817,2.8876,2.8931,2.8931,2.8931,2.8437,2.8429,2.8986,2.9302,2.947,2.9499,3.0059,3.0362,3.0362,3.0704,3.0859,3.083,3.0859,3.0859,3.0859,3.0859,3.113,3.1631,3.1976,3.2419,3.2921,3.3228,3.3386,3.3386,3.3386,3.3386,3.3386,1.7514,1.7514,1.7514,1.7514,1.7514,1.7514,1.7514,1.7514,1.7514,1.7514,1.7514,1.7514,1.7514,1.7514,1.769,1.8123,1.8823,1.9601,2.0423,2.048,2.0559,2.0707,2.07,2.07,2.07,2.07,2.1032,2.1701,2.2417,2.2768,2.2768,2.2768,2.2768,2.2788,2.3241,2.3518,2.374,2.4776,2.5295,2.5494,2.6073,2.6334,2.6334,2.6435,2.6472,2.6481,2.6582,2.6591,2.6591,2.6591,2.6591,2.6591,2.6591,2.6591,2.6591,2.6591,2.6591,2.6591,2.6591,2.6591,2.6591,2.6591,2.6591,2.6591,2.6591,2.6591,2.6591,2.6591,2.6591,2.671,2.7132,2.7454,2.7821,2.8315,2.8645,2.8874,2.9005,2.9014,2.8941,2.8748,2.8729,2.8729,2.8729,2.8729,2.8546,2.8115,2.8078,2.8078,2.8078,2.7961,2.8227,2.8986,2.9073,2.9242,2.9499,2.9647,2.9833,3.001,3.0362,3.0392,3.0137,3.0392,3.0509,3.0509,3.0509,3.0942,3.16,3.1478,3.2006,3.2921,3.2985,3.3175,3.3386,3.3386,3.3386,3.3386,1.7514,1.7514,1.7514,1.7514,1.7514,1.7514,1.7514,1.7514,1.7514,1.7514,1.7514,1.7514,1.7514,1.7514,1.7514,1.7514,1.7977,1.8648,1.9606,1.9664,1.9837,2.027,2.0299,2.0299,2.0299,2.0299,2.0723,2.1587,2.2546,2.2986,2.2986,2.2986,2.2986,2.3014,2.3324,2.3632,2.3949,2.461,2.5045,2.5348,2.5935,2.619,2.6218,2.65,2.6591,2.6591,2.6591,2.6591,2.6591,2.6591,2.6591,2.6591,2.6591,2.6591,2.6591,2.6591,2.6591,2.6591,2.6591,2.6591,2.6591,2.6591,2.6591,2.6591,2.6591,2.6591,2.6591,2.6591,2.6765,2.7004,2.7399,2.7802,2.8215,2.8599,2.8564,2.8583,2.8959,2.8693,2.8592,2.8968,2.9014,2.9014,2.9014,2.9014,2.883,2.8381,2.8353,2.8353,2.8353,2.8353,2.8555,2.8996,2.9014,2.9103,2.9272,2.942,2.9618,2.9892,3.0069,3.0069,2.9902,3.0098,3.0274,3.0392,3.0245,3.0634,3.1356,3.1254,3.1695,3.2485,3.2794,3.3016,3.3206,3.3323,3.3386,3.3386,1.7514,1.7514,1.7514,1.7514,1.7514,1.7514,1.7514,1.7514,1.7514,1.7514,1.7514,1.7514,1.7514,1.7514,1.7514,1.7514,1.7514,1.783,1.8642,1.8677,1.9049,1.9837,1.9895,1.9895,1.9895,2.0155,2.0666,2.1395,2.249,2.2986,2.2986,2.2986,2.2986,2.2986,2.3098,2.3408,2.3921,2.3996,2.4379,2.4981,2.5486,2.5743,2.588,2.6391,2.6591,2.6591,2.6591,2.6591,2.6591,2.6591,2.6591,2.6591,2.6591,2.6591,2.6591,2.6591,2.6591,2.6591,2.6591,2.6591,2.6591,2.6591,2.6591,2.6591,2.6591,2.6591,2.6637,2.6692,2.6967,2.7343,2.7802,2.8179,2.8489,2.8785,2.8353,2.8179,2.8748,2.8344,2.8234,2.8931,2.9014,2.9014,2.9014,2.9014,2.9014,2.9014,2.9014,2.9014,2.9014,2.9014,2.9014,2.9014,2.9014,2.9014,2.9014,2.9331,2.9597,2.9745,2.9804,2.9804,2.9774,2.9804,2.9981,3.0236,2.9951,3.0247,3.0943,3.1021,3.1346,3.189,3.2552,3.2858,3.2953,3.3292,3.3386,3.3386,1.7514,1.7514,1.7514,1.7514,1.7514,1.7514,1.7514,1.7514,1.7514,1.7514,1.7514,1.7514,1.7514,1.7514,1.7514,1.7514,1.7514,1.7573,1.7719,1.7713,1.7772,1.7918,1.7918,1.7918,1.7918,1.949,2.0357,2.05,2.2186,2.2986,2.2986,2.2986,2.2986,2.3014,2.352,2.3809,2.3941,2.4434,2.5008,2.5569,2.566,2.6017,2.6473,2.6564,2.6591,2.6591,2.6591,2.6591,2.6591,2.6591,2.6591,2.6591,2.6591,2.6591,2.6591,2.6591,2.6591,2.6591,2.6591,2.6591,2.6591,2.6591,2.6591,2.6591,2.6591,2.6591,2.671,2.7041,2.716,2.7435,2.8159,2.8352,2.8297,2.8032,2.8454,2.8629,2.8059,2.8463,2.8867,2.8996,2.9014,2.9014,2.9014,2.9014,2.9014,2.9014,2.9014,2.9014,2.9014,2.9014,2.9014,2.9014,2.9014,2.9014,2.9014,2.9331,2.939,2.9133,2.942,2.942,2.9163,2.942,2.9588,2.9647,2.9597,2.9849,3.0265,3.0334,3.0773,3.1479,3.2184,3.2635,3.2953,3.3292,3.3386,3.3386,1.7514,1.7514,1.7514,1.7514,1.7514,1.7514,1.7514,1.7514,1.7514,1.7514,1.7514,1.7514,1.7514,1.7514,1.7514,1.7514,1.7514,1.7514,1.7514,1.7514,1.7514,1.7514,1.7514,1.7514,1.7514,1.9339,2.0299,2.0299,2.2101,2.2986,2.2986,2.2986,2.2986,2.3014,2.3296,2.3416,2.3436,2.4044,2.449,2.4804,2.544,2.588,2.6163,2.6473,2.6591,2.6591,2.6591,2.6591,2.6591,2.6591,2.6591,2.6591,2.6591,2.6591,2.6591,2.6591,2.6591,2.6591,2.6591,2.6591,2.6591,2.6591,2.6591,2.6591,2.6591,2.6784,2.6986,2.7169,2.7555,2.7948,2.8324,2.8563,2.8645,2.8482,2.8399,2.8381,2.8445,2.8399,2.8518,2.8959,2.9014,2.9014,2.9014,2.9014,2.9014,2.9014,2.9014,2.9014,2.9014,2.9014,2.9014,2.9014,2.9014,2.9014,2.9014,2.9153,2.9153,2.9014,2.9163,2.9153,2.9014,2.9153,2.9331,2.9479,2.9302,2.9573,3.0121,3.0153,3.0527,3.1102,3.2029,3.2476,3.2699,3.3197,3.3386,3.3386,1.7514,1.7514,1.7514,1.7514,1.7514,1.7514,1.7514,1.7514,1.7514,1.7514,1.7514,1.7514,1.7514,1.7514,1.7514,1.7514,1.7514,1.7514,1.7514,1.7514,1.7514,1.7514,1.7514,1.7514,1.7514,1.9142,1.9982,1.9982,2.178,2.2667,2.2696,2.2901,2.2986,2.2986,2.2986,2.307,2.3239,2.3689,2.4052,2.4387,2.533,2.577,2.5962,2.6418,2.6591,2.6591,2.6591,2.6591,2.6591,2.6591,2.6591,2.6591,2.6591,2.6591,2.6591,2.6591,2.6591,2.6591,2.6591,2.6591,2.6591,2.6591,2.6591,2.6609,2.671,2.6986,2.7261,2.7444,2.7957,2.8425,2.8517,2.8783,2.895,2.8757,2.8362,2.8225,2.8665,2.8353,2.8307,2.8941,2.9014,2.9014,2.9014,2.9014,2.9014,2.9014,2.9014,2.9014,2.9014,2.9014,2.9014,2.9014,2.9014,2.9014,2.9014,2.9014,2.9014,2.9014,2.9014,2.9014,2.9014,2.9014,2.9133,2.9361,2.9094,2.9308,2.9851,3.0005,3.0286,3.0753,3.1761,3.2241,3.2485,3.308,3.3323,3.3386,1.7514,1.7514,1.7514,1.7514,1.7514,1.7514,1.7514,1.7514,1.7514,1.7514,1.7514,1.7514,1.7514,1.7514,1.7514,1.7514,1.7514,1.7514,1.7514,1.7514,1.7514,1.7514,1.7514,1.7514,1.7514,1.8502,1.8991,1.8991,2.0823,2.1701,2.1708,2.2582,2.2986,2.2986,2.2986,2.3296,2.3837,2.3893,2.4554,2.5578,2.566,2.6017,2.6537,2.6591,2.6591,2.6591,2.6591,2.6591,2.6591,2.6591,2.6591,2.6591,2.6591,2.6591,2.6591,2.6591,2.6591,2.6591,2.6591,2.6591,2.6591,2.6591,2.6591,2.671,2.7077,2.7187,2.7417,2.815,2.8352,2.8507,2.8904,2.8996,2.8766,2.8004,2.8463,2.8674,2.7977,2.8482,2.8941,2.8975,2.9014,2.9014,2.9014,2.9014,2.9014,2.9014,2.9014,2.9014,2.9014,2.9014,2.9014,2.9014,2.9014,2.9014,2.9014,2.9014,2.9014,2.9014,2.9014,2.9014,2.9014,2.9014,2.9014,2.9044,2.9014,2.9032,2.9117,2.9482,2.9865,3.0308,3.108,3.1787,3.2453,3.2794,3.3143,3.3386,1.7514,1.7514,1.7514,1.7514,1.7514,1.7514,1.7514,1.7514,1.7514,1.7514,1.7514,1.7514,1.7514,1.7514,1.7514,1.7514,1.7514,1.7514,1.7514,1.7514,1.7514,1.7514,1.7514,1.7514,1.7514,1.8415,1.8903,1.8903,2.017,2.106,2.1623,2.1964,2.2433,2.2986,2.2986,2.3127,2.338,2.4128,2.4704,2.5202,2.5971,2.6391,2.6591,2.6591,2.6591,2.6591,2.6591,2.6591,2.6591,2.6591,2.6591,2.6591,2.6591,2.6591,2.6591,2.6591,2.6591,2.6591,2.6591,2.6591,2.6646,2.6921,2.6976,2.7086,2.7481,2.7775,2.8022,2.8333,2.859,2.881,2.8957,2.9014,2.8913,2.8601,2.8812,2.8874,2.8592,2.8821,2.9014,2.9014,2.9014,2.9014,2.9014,2.9014,2.9014,2.9014,2.9014,2.9014,2.9014,2.9014,2.9014,2.9014,2.9014,2.9014,2.9014,2.9014,2.9014,2.9014,2.9014,2.9014,2.9014,2.9014,2.9014,2.9014,2.9014,2.9014,2.9042,2.9436,2.9849,3.0272,3.1002,3.1759,3.2453,3.2794,3.3111,3.3386,1.742,1.7514,1.7514,1.7514,1.7514,1.7514,1.7514,1.7514,1.7514,1.7514,1.7514,1.7514,1.7514,1.7514,1.7514,1.7514,1.7514,1.7514,1.7514,1.7514,1.7514,1.7514,1.7514,1.7514,1.7514,1.8123,1.8473,1.8473,1.9397,2.0321,2.1195,2.1195,2.1687,2.2546,2.2271,2.2235,2.2482,2.3796,2.4464,2.477,2.6072,2.6591,2.6591,2.6591,2.6591,2.6591,2.6591,2.6591,2.6591,2.6591,2.6591,2.6591,2.6591,2.6591,2.6591,2.6591,2.6591,2.6646,2.6738,2.6802,2.6839,2.7132,2.7298,2.749,2.7894,2.8215,2.8434,2.8553,2.8792,2.9014,2.9014,2.9014,2.9014,2.9014,2.9014,2.9014,2.9014,2.9014,2.9014,2.9014,2.9014,2.9014,2.9014,2.9014,2.9014,2.9014,2.9014,2.9014,2.9014,2.9014,2.9014,2.9014,2.9014,2.9014,2.9014,2.9014,2.9014,2.9014,2.9014,2.9014,2.9014,2.9014,2.9014,2.9014,2.9014,2.9014,2.9032,2.9308,2.9666,3.007,3.0723,3.1477,3.2264,3.2619,3.3016,3.3386,1.7244,1.7479,1.7514,1.7514,1.7514,1.7514,1.7514,1.7514,1.7514,1.7514,1.7514,1.7514,1.7514,1.7514,1.7514,1.7514,1.7514,1.7514,1.7514,1.7514,1.7514,1.7514,1.7514,1.7514,1.7514,1.7514,1.7514,1.7514,1.8444,1.9368,2.0299,2.0299,2.0752,2.1559,2.0694,2.0594,2.1216,2.2761,2.3743,2.445,2.5981,2.6591,2.6591,2.6591,2.6591,2.6591,2.6591,2.6591,2.6591,2.6591,2.6591,2.6591,2.6591,2.6591,2.6591,2.6591,2.6591,2.6683,2.7096,2.7206,2.7215,2.7215,2.7509,2.7913,2.8306,2.8397,2.8517,2.8931,2.9014,2.9014,2.9014,2.9014,2.9014,2.9014,2.9014,2.9014,2.9014,2.9014,2.9014,2.9014,2.9014,2.9014,2.9014,2.9014,2.9014,2.9014,2.9014,2.9014,2.9014,2.9014,2.9014,2.9014,2.9014,2.9014,2.9014,2.9014,2.9014,2.9014,2.9014,2.9014,2.9014,2.9014,2.9014,2.9014,2.9014,2.9014,2.9014,2.9014,2.9243,2.9647,3.0039,3.0838,3.1856,3.2261,3.2826,3.3386,1.6077,1.6885,1.7514,1.7514,1.7514,1.7514,1.7514,1.7514,1.7514,1.7514,1.7514,1.7514,1.7514,1.7514,1.7514,1.7514,1.7514,1.7514,1.7514,1.7514,1.7514,1.7514,1.7514,1.7514,1.7514,1.7514,1.7514,1.7514,1.7772,1.8415,1.931,1.931,1.9802,2.0666,2.0414,2.0967,2.214,2.3023,2.4122,2.5358,2.6245,2.6591,2.6591,2.6591,2.6591,2.6591,2.6591,2.6591,2.6591,2.6591,2.6591,2.6591,2.6591,2.6591,2.6591,2.6591,2.6811,2.7059,2.7169,2.7619,2.8031,2.8031,2.8122,2.8344,2.8718,2.881,2.8867,2.8986,2.9014,2.9014,2.9014,2.9014,2.9014,2.9014,2.9014,2.9014,2.9014,2.9014,2.9014,2.9014,2.9014,2.9014,2.9014,2.9014,2.9014,2.9014,2.9014,2.9014,2.9014,2.9014,2.9014,2.9014,2.9014,2.9014,2.9014,2.9014,2.9014,2.9014,2.9014,2.9014,2.9014,2.9014,2.9014,2.9014,2.9014,2.9014,2.9014,2.9014,2.9243,2.9647,3.0039,3.0714,3.1521,3.2165,3.2667,3.308,1.5515,1.6614,1.7514,1.7514,1.7514,1.7514,1.7514,1.7514,1.7514,1.7514,1.7514,1.7514,1.7514,1.7514,1.7514,1.7514,1.7514,1.7514,1.7514,1.7514,1.7514,1.7514,1.7514,1.7514,1.7514,1.7514,1.7514,1.7514,1.7514,1.7977,1.8874,1.8532,1.8852,1.9751,1.9497,1.9888,2.0816,2.2394,2.3575,2.4567,2.6017,2.6591,2.6591,2.6591,2.6591,2.6591,2.6591,2.6591,2.6591,2.6591,2.6591,2.6591,2.6591,2.6719,2.6848,2.6848,2.7132,2.7472,2.7637,2.8022,2.8434,2.859,2.8627,2.8691,2.8929,2.9014,2.9014,2.9014,2.9014,2.9014,2.9014,2.9014,2.9014,2.9014,2.9014,2.9014,2.9014,2.9014,2.9014,2.9014,2.9014,2.9014,2.9014,2.9014,2.9014,2.9014,2.9014,2.9014,2.9014,2.9014,2.9014,2.9014,2.9014,2.9014,2.9014,2.9014,2.9014,2.9014,2.9014,2.9014,2.9014,2.9014,2.9014,2.9014,2.9014,2.9014,2.9014,2.9014,2.9152,2.9409,2.9953,3.0544,3.1162,3.2046,3.2597,3.2953,1.521,1.6501,1.7403,1.7551,1.7581,1.7581,1.7581,1.7581,1.7581,1.7581,1.7562,1.755,1.755,1.7526,1.7514,1.7514,1.7514,1.7514,1.7514,1.7514,1.7514,1.7514,1.7514,1.7514,1.7514,1.7514,1.7514,1.7514,1.7514,1.7948,1.8758,1.7889,1.7977,1.8794,1.8259,1.8083,1.8421,2.1159,2.2428,2.2774,2.5276,2.6272,2.6282,2.6391,2.6446,2.6446,2.6564,2.6591,2.6591,2.6591,2.6609,2.6637,2.6637,2.694,2.7261,2.7261,2.7536,2.7931,2.8287,2.8425,2.8535,2.8922,2.9014,2.9014,2.9014,2.9014,2.9014,2.9014,2.9014,2.9014,2.9014,2.9014,2.9014,2.9014,2.9014,2.9014,2.9014,2.9014,2.9014,2.9014,2.9014,2.9014,2.9014,2.9014,2.9014,2.9014,2.9014,2.9014,2.9014,2.9014,2.9014,2.9014,2.9014,2.9014,2.9014,2.9014,2.9014,2.9014,2.9014,2.9014,2.9014,2.9014,2.9014,2.9014,2.9014,2.9014,2.9014,2.9014,2.9014,2.908,2.9795,3.0326,3.0797,3.1894,3.2534,3.2921,1.4115,1.5452,1.6699,1.7924,1.8118,1.8118,1.8118,1.8118,1.8118,1.8118,1.7955,1.7816,1.7816,1.7635,1.7514,1.7514,1.7514,1.7514,1.7514,1.7514,1.7514,1.7514,1.7514,1.7514,1.7514,1.7514,1.7514,1.7514,1.7514,1.7596,1.7801,1.7602,1.7749,1.82,1.8054,1.8794,2.0149,2.0823,2.1792,2.2938,2.3536,2.3796,2.388,2.4842,2.5174,2.5312,2.6245,2.6591,2.6591,2.6591,2.682,2.7077,2.7077,2.7353,2.7665,2.7665,2.7958,2.8278,2.837,2.8618,2.8874,2.8996,2.9014,2.9014,2.9014,2.9014,2.9014,2.9014,2.9014,2.9014,2.9014,2.9014,2.9014,2.9014,2.9014,2.9014,2.9014,2.9014,2.9014,2.9014,2.9014,2.9014,2.9014,2.9014,2.9014,2.9014,2.9014,2.9014,2.9014,2.9014,2.9014,2.9014,2.9014,2.9014,2.9014,2.9014,2.9014,2.9014,2.9014,2.9014,2.9014,2.9014,2.9014,2.9014,2.9014,2.9014,2.9014,2.9014,2.9014,2.908,2.9795,3.0182,3.0457,3.181,3.2386,3.2603,1.3914,1.5233,1.6569,1.8049,1.8294,1.8294,1.8294,1.8294,1.8294,1.8294,1.8197,1.8107,1.8107,1.798,1.7871,1.7871,1.7871,1.7847,1.7708,1.7695,1.7641,1.752,1.7514,1.7514,1.7514,1.7514,1.7514,1.7514,1.7514,1.7514,1.7514,1.7667,1.7813,1.7995,1.8311,1.8968,1.9897,2.0637,2.1388,2.2191,2.2777,2.3002,2.3067,2.3712,2.4298,2.4915,2.5716,2.6532,2.7178,2.7178,2.7316,2.7481,2.7481,2.7766,2.8096,2.8096,2.8381,2.8702,2.8702,2.8828,2.9014,2.9014,2.9014,2.9014,2.9014,2.9014,2.9014,2.9014,2.9014,2.9014,2.9014,2.9014,2.9014,2.9014,2.9014,2.9014,2.9014,2.9014,2.9014,2.9014,2.9014,2.9014,2.9014,2.9014,2.9014,2.9014,2.9014,2.9014,2.9014,2.9014,2.9014,2.9014,2.9014,2.9014,2.9014,2.9014,2.9014,2.9014,2.9014,2.9014,2.9014,2.9014,2.9014,2.9014,2.9014,2.9014,2.9014,2.9014,2.9014,2.9062,2.9722,2.9967,3.007,3.1475,3.2236,3.2699,1.4049,1.5217,1.648,1.813,1.8426,1.8426,1.8426,1.8426,1.8426,1.8426,1.839,1.836,1.836,1.8318,1.8294,1.8294,1.8294,1.8221,1.7992,1.7974,1.7877,1.7659,1.7653,1.7653,1.7653,1.7653,1.7575,1.7514,1.7514,1.7543,1.7602,1.7878,1.806,1.8171,1.8684,1.8933,1.9084,2.0349,2.0924,2.1061,2.2048,2.2477,2.2523,2.2751,2.344,2.4384,2.494,2.614,2.7499,2.7727,2.7839,2.7903,2.7903,2.8188,2.8498,2.8498,2.8728,2.9014,2.9014,2.9014,2.9014,2.9014,2.9014,2.9014,2.9014,2.9014,2.9014,2.9014,2.9014,2.9014,2.9014,2.9014,2.9014,2.9014,2.9014,2.9014,2.9014,2.9014,2.9014,2.9014,2.9014,2.9014,2.9014,2.9014,2.9014,2.9014,2.9014,2.9014,2.9014,2.9014,2.9014,2.9014,2.9014,2.9014,2.9014,2.9014,2.9014,2.9014,2.9014,2.9014,2.9014,2.9014,2.9014,2.9014,2.9014,2.9014,2.9014,2.9014,2.9014,2.9073,2.9656,2.9858,2.994,3.1323,3.2325,3.3048,1.4102,1.4771,1.5757,1.8508,1.9001,1.9001,1.9001,1.9001,1.9001,1.9001,1.8802,1.8663,1.8663,1.8432,1.8294,1.8294,1.8294,1.8275,1.8239,1.8233,1.8221,1.8185,1.8185,1.8185,1.8185,1.8185,1.7956,1.7514,1.7514,1.7667,1.7937,1.7966,1.8288,1.8794,1.8852,1.9062,1.9336,1.954,1.9769,1.9999,2.0176,2.0356,2.0702,2.1726,2.2223,2.2527,2.3626,2.4903,2.6267,2.7413,2.8032,2.8315,2.8315,2.8581,2.8931,2.8931,2.8968,2.9014,2.9014,2.9014,2.9014,2.9014,2.9014,2.9014,2.9014,2.9014,2.9014,2.9014,2.9014,2.9014,2.9014,2.9014,2.9014,2.9014,2.9014,2.9014,2.9014,2.9014,2.9014,2.9014,2.9014,2.9014,2.9014,2.9014,2.9014,2.9014,2.9014,2.9014,2.9014,2.9014,2.9014,2.9014,2.9014,2.9014,2.9014,2.9014,2.9014,2.9014,2.9014,2.9014,2.9014,2.9014,2.9014,2.9014,2.9014,2.9014,2.9014,2.9014,2.9014,2.9073,2.9656,3.0165,3.072,3.2177,3.2983,3.3333,1.323,1.3637,1.4313,1.6387,1.741,1.7925,1.7925,1.8579,1.911,1.911,1.9007,1.8935,1.8935,1.8832,1.876,1.876,1.876,1.8668,1.8523,1.8511,1.8444,1.83,1.8294,1.8294,1.8294,1.8294,1.8264,1.8232,1.8232,1.8292,1.8449,1.8815,1.9144,1.94,1.9542,1.9698,1.9853,1.9853,1.9927,2.001,2.001,2.0084,2.0258,2.0795,2.1414,2.22,2.3627,2.5136,2.6576,2.7146,2.7966,2.8748,2.8748,2.8876,2.9014,2.9014,2.9014,2.9014,2.9014,2.9014,2.9014,2.9014,2.9014,2.9014,2.9014,2.9014,2.9014,2.9014,2.9014,2.9014,2.9014,2.9014,2.9014,2.9014,2.9014,2.9014,2.9014,2.9014,2.9014,2.9014,2.9014,2.9014,2.9014,2.9014,2.9014,2.9014,2.9014,2.9014,2.9014,2.9014,2.9014,2.9014,2.9014,2.9014,2.9014,2.9014,2.9014,2.9014,2.9014,2.9014,2.9014,2.9014,2.9014,2.9014,2.9014,2.9014,2.9014,2.9014,2.9014,2.9073,2.9656,3.0433,3.1309,3.2229,3.2782,3.3143]},{"header":{"parameterUnit":"m.s-1","parameterCategory":1,"la1":30.6,"la2":28.766,"lo1":-90.7593,"lo2":-88.6598,"dy":0.0162,"dx":0.0183,"nx":116,"ny":114,"refTime":"2023-09-17T18:00:00:Z","depth":0,"parameterNumber":3,"parameterNumberName":"V-component_of_WINDS"},"data":[0.0,0.0,0.0,0.0,0.0,0.0,0.0,0.0,0.0,0.0,0.0,0.0,0.0,0.0,0.0,0.0,0.0,0.0,0.0,0.0,0.0,0.0,0.0,0.0,0.0,0.0,0.0,0.0,0.0,0.0,0.0,0.0,0.0,0.0,0.0,0.0,0.0,0.0,0.0,0.0,0.0,0.0,0.0,0.0,0.0,0.0,0.0,0.0,0.0,0.0,0.0,0.0,0.0,0.0,0.0,0.0,0.0,0.0,0.0,0.0,0.0,0.0,0.0,0.0,0.0,0.0,0.0,0.0,0.0,0.0,0.0,0.0,0.0,0.0,0.0,0.0,0.0,0.0,0.0,0.0,0.0,0.0,0.0,0.0,0.0,0.0,0.0,0.0,0.0,0.0,0.0,0.0,0.0,0.0,0.0,0.0,0.0,0.0,0.0,0.0,0.0,0.0,0.0,0.0,0.0,0.0,0.0,0.0,0.0,0.0,0.0,0.0,0.0,0.0,0.0,0.0,0.0,0.0,0.0,0.0,0.0,0.0,0.0,0.0,0.0,0.0,0.0,0.0,0.0,0.0,0.0,0.0,0.0,0.0,0.0,0.0,0.0,0.0,0.0,0.0,0.0,0.0,0.0,0.0,0.0,0.0,0.0,0.0,0.0,0.0,0.0,0.0,0.0,0.0,0.0,0.0,0.0,0.0,0.0,0.0,0.0,0.0,0.0,0.0,0.0,0.0,0.0,0.0,0.0,0.0,0.0,0.0,0.0,0.0,0.0,0.0,0.0,0.0,0.0,0.0,0.0,0.0,0.0,0.0,0.0,0.0,0.0,0.0,0.0,0.0,0.0,0.0,0.0,0.0,0.0,0.0,0.0,0.0,0.0,0.0,0.0,0.0,0.0,0.0,0.0,0.0,0.0,0.0,0.0,0.0,0.0,0.0,0.0,0.0,0.0,0.0,0.0,0.0,0.0,0.0,0.0,0.0,0.0,0.0,0.0,0.0,0.0,0.0,0.0,0.0,0.0,0.0,0.0,0.0,0.0,0.0,0.0,0.0,0.0,0.0,0.0,0.0,0.0,0.0,0.0,0.0,0.0,0.0,0.0,0.0,0.0,0.0,0.0,0.0,0.0,0.0,0.0,0.0,0.0,0.0,0.0,0.0,0.0,0.0,0.0,0.0,0.0,0.0,0.0,0.0,0.0,0.0,0.0,0.0,0.0,0.0,0.0,0.0,0.0,0.0,0.0,0.0,0.0,0.0,0.0,0.0,0.0,0.0,0.0,0.0,0.0,0.0,0.0,0.0,0.0,0.0,0.0,0.0,0.0,0.0,0.0,0.0,0.0,0.0,0.0,0.0,0.0,0.0,0.0,0.0,0.0,0.0,0.0,0.0,0.0,0.0,0.0,0.0,0.0,0.0,0.0,0.0,0.0,0.0,0.0,0.0,0.0,0.0,0.0,0.0,0.0,0.0,0.0,0.0,0.0,0.0,0.0,0.0,0.0,0.0,0.0,0.0,0.0,0.0,0.0,0.0,0.0,0.0,0.0,0.0,0.0,0.0,0.0,0.0,0.0,0.0,0.0,0.0,0.0,0.0,0.0,0.0,0.0,0.0,0.0,0.0,0.0,0.0,0.0,0.0,0.0,0.0,0.0,0.0,0.0,0.0,0.0,0.0,0.0,0.0,0.0,0.0,0.0,0.0,0.0,0.0,0.0,0.0,0.0,0.0,0.0,0.0,0.0,0.0,0.0,0.0,0.0,0.0,0.0,0.0,0.0,0.0,0.0,0.0,0.0,0.0,0.0,0.0,0.0,0.0,0.0,0.0,0.0,0.0,0.0,0.0,0.0,0.0,0.0,0.0,0.0,0.0,0.0,0.0,0.0,0.0,0.0,0.0,0.0,0.0,0.0,0.0,0.0,0.0,0.0,0.0,0.0,0.0,0.0,0.0,0.0,0.0,0.0,0.0,0.0,0.0,0.0,0.0,0.0,0.0,0.0,0.0,0.0,0.0,0.0,0.0,0.0,0.0,0.0,0.0,0.0,0.0,0.0,0.0,0.0,0.0,0.0,0.0,0.0,0.0,0.0,0.0,0.0,0.0,0.0,0.0,0.0,0.0,0.0,0.0,0.0,0.0,0.0,0.0,0.0,0.0,0.0,0.0,0.0,0.0,0.0,0.0,0.0,0.0,0.0,0.0,0.0,0.0,0.0,0.0,0.0,0.0,0.0,0.0,0.0,0.0,0.0,0.0,0.0,0.0,0.0,0.0,0.0,0.0,0.0,0.0,0.0,0.0,0.0,0.0,0.0,0.0,0.0,0.0,0.0,0.0,0.0,0.0,0.0,0.0,0.0,0.0,0.0,0.0,0.0,0.0,0.0,0.0,0.0,0.0,0.0,0.0,0.0,0.0,0.0,0.0,0.0,0.0,0.0,0.0,0.0,0.0,0.0,0.0,0.0,0.0,0.0,0.0,0.0,0.0,0.0,0.0,0.0,0.0,0.0,0.0,0.0,0.0,0.0,0.0,0.0,0.0,0.0,0.0,0.0,0.0,0.0,0.0,0.0,0.0,0.0,0.0,0.0,0.0,0.0,0.0,0.0,0.0,0.0,0.0,0.0,0.0,0.0,0.0,0.0,0.0,0.0,0.0,0.0,0.0,0.0,0.0,0.0,0.0,0.0,0.0,0.0,0.0,0.0,0.0,0.0,0.0,0.0,0.0,0.0,0.0,0.0,0.0,0.0,0.0,0.0,0.0,0.0,0.0,0.0,0.0,0.0,0.0,0.0,0.0,0.0,0.0,0.0,0.0,0.0,0.0,0.0,0.0,0.0,0.0,0.0,0.0,0.0,0.0,0.0,0.0,0.0,0.0,0.0,0.0,0.0,0.0,0.0,0.0,0.0,0.0,0.0,0.0,0.0,0.0,0.0,0.0,0.0,0.0,0.0,0.0,0.0,0.0,0.0,0.0,0.0,0.0,0.0,0.0,0.0,0.0,0.0,0.0,0.0,0.0,0.0,0.0,0.0,0.0,0.0,0.0,0.0,0.0,0.0,0.0,0.0,0.0,0.0,0.0,0.0,0.0,0.0,0.0,0.0,0.0,0.0,0.0,0.0,0.0,0.0,0.0,0.0,0.0,0.0,0.0,0.0,0.0,0.0,0.0,0.0,0.0,0.0,0.0,0.0,0.0,0.0,0.0,0.0,0.0,0.0,0.0,0.0,0.0,0.0,0.0,0.0,0.0,0.0,0.0,0.0,0.0,0.0,0.0,0.0,0.0,0.0,0.0,0.0,0.0,0.0,0.0,0.0,0.0,0.0,0.0,0.0,0.0,0.0,0.0,0.0,0.0,0.0,0.0,0.0,0.0,0.0,0.0,0.0,0.0,0.0,0.0,0.0,0.0,0.0,0.0,0.0,0.0,0.0,0.0,0.0,0.0,0.0,0.0,0.0,0.0,0.0,0.0,0.0,0.0,0.0,0.0,0.0,0.0,0.0,0.0,0.0,0.0,0.0,0.0,0.0,0.0,0.0,0.0,0.0,0.0,0.0,0.0,0.0,0.0,0.0,0.0,0.0,0.0,0.0,0.0,0.0,0.0,0.0,0.0,0.0,0.0,0.0,0.0,0.0,0.0,0.0,0.0,0.0,0.0,0.0,0.0,0.0,0.0,0.0,0.0,0.0,0.0,0.0,0.0,0.0,0.0,0.0,0.0,0.0,0.0,0.0,0.0,0.0,0.0,0.0,0.0,0.0,0.0,0.0,0.0,0.0,0.0,0.0,0.0,0.0,0.0,0.0,0.0,0.0,0.0,0.0,0.0,0.0,0.0,0.0,0.0,0.0,0.0,0.0,0.0,0.0,0.0,0.0,0.0,0.0,0.0,0.0,0.0,0.0,0.0,0.0,0.0,0.0,0.0,0.0,0.0,0.0,0.0,0.0,0.0,0.0,0.0,0.0,0.0,0.0,0.0,0.0,0.0,0.0,0.0,0.0,0.0,0.0,0.0,0.0,0.0,0.0,0.0,0.0,0.0,0.0,0.0,0.0,0.0,0.0,0.0,0.0,0.0,0.0,0.0,0.0,0.0,0.0,0.0,0.0,0.0,0.0,0.0,0.0,0.0,0.0,0.0,0.0,0.0,0.0,0.0,0.0,0.0,0.0,0.0,0.0,0.0,0.0,0.0,0.0,0.0,0.0,0.0,0.0,0.0,0.0,0.0,0.0,0.0,0.0,0.0,0.0,0.0,0.0,0.0,0.0,0.0,0.0,0.0,0.0,0.0,0.0,0.0,0.0,0.0,0.0,0.0,0.0,0.0,0.0,0.0,0.0,0.0,0.0,0.0,0.0,0.0,0.0,0.0,0.0,0.0,0.0,0.0,0.0,0.0,0.0,0.0,0.0,0.0,0.0,0.0,0.0,0.0,0.0,0.0,0.0,0.0,0.0,0.0,0.0,0.0,0.0,0.0,0.0,0.0,0.0,0.0,0.0,0.0,0.0,0.0,0.0,0.0,0.0,0.0,0.0,0.0,0.0,0.0,0.0,0.0,0.0,0.0,0.0,0.0,0.0,0.0,0.0,0.0,0.0,0.0,0.0,0.0,0.0,0.0,0.0,0.0,0.0,0.0,0.0,0.0,0.0,0.0,0.0,0.0,0.0,0.0,0.0,0.0,0.0,0.0,0.0,0.0,0.0,0.0,0.0,0.0,0.0,0.0,0.0,0.0,0.0,0.0,0.0,0.0,0.0,0.0,0.0,0.0,0.0,0.0,0.0,0.0,0.0,0.0,0.0,0.0,0.0,0.0,0.0,0.0,0.0,0.0,0.0,0.0,0.0,0.0,0.0,0.0,0.0,0.0,0.0,0.0,0.0,0.0,0.0,0.0,0.0,0.0,0.0,0.0,0.0,0.0,0.0,0.0,0.0,0.0,0.0,0.0,0.0,0.0,0.0,0.0,0.0,0.0,0.0,0.0,0.0,0.0,0.0,0.0,0.0,0.0,0.0,0.0,0.0,0.0,0.0,0.0,0.0,0.0,0.0,0.0,0.0,0.0,0.0,0.0,0.0,0.0,0.0,0.0,0.0,0.0,0.0,0.0,0.0,0.0,0.0,0.0,0.0,0.0,0.0,0.0,0.0,0.0,0.0,0.0,0.0,0.0,0.0,0.0,0.0,0.0,0.0,0.0,0.0,0.0,0.0,0.0,0.0,0.0,0.0,0.0,0.0,0.0,0.0,0.0,0.0,0.0,0.0,0.0,0.0,0.0,0.0,0.0,0.0,0.0,0.0,0.0,0.0,0.0,0.0,0.0,0.0,0.0,0.0,0.0,0.0,0.0,0.0,0.0,0.0,0.0,0.0,0.0,0.0,0.0,0.0,0.0,0.0,0.0,0.0,0.0,0.0,0.0,0.0,0.0,0.0,0.0,0.0,0.0,0.0,0.0,0.0,0.0,0.0,0.0,0.0,0.0,0.0,0.0,0.0,0.0,0.0,0.0,0.0,0.0,0.0,0.0,0.0,0.0,0.0,0.0,0.0,0.0,0.0,0.0,0.0,0.0,0.0,0.0,0.0,0.0,0.0,0.0,0.0,0.0,0.0,0.0,0.0,0.0,0.0,0.0,0.0,0.0,0.0,0.0,0.0,0.0,0.0,0.0,0.0,0.0,0.0,0.0,0.0,0.0,0.0,0.0,0.0,0.0,0.0,0.0,0.0,0.0,0.0,0.0,0.0,0.0,0.0,0.0,0.0,0.0,0.0,0.0,0.0,0.0,0.0,0.0,0.0,0.0,0.0,0.0,0.0,0.0,0.0,0.0,0.0,0.0,0.0,0.0,0.0,0.0,0.0,0.0,0.0,0.0,0.0,0.0,0.0,0.0,0.0,0.0,0.0,0.0,0.0,0.0,0.0,0.0,0.0,0.0,0.0,0.0,0.0,0.0,0.0,0.0,0.0,0.0,0.0,0.0,0.0,0.0,0.0,0.0,0.0,0.0,0.0,0.0,0.0,0.0,0.0,0.0,0.0,0.0,0.0,0.0,0.0,0.0,0.0,0.0,0.0,0.0,0.0,0.0,0.0,0.0,0.0,0.0,0.0,0.0,0.0,0.0,0.0,0.0,2.85,2.6734,0.0,0.0,0.0,0.0,0.0,0.0,0.0,0.0,0.0,0.0,0.0,0.0,0.0,0.0,0.0,0.0,0.0,0.0,0.0,0.0,0.0,0.0,0.0,0.0,0.0,0.0,0.0,0.0,0.0,0.0,0.0,0.0,0.0,0.0,0.0,0.0,0.0,1.4454,1.6289,1.8307,2.0435,2.0056,1.8666,1.6456,0.0,0.0,0.0,0.0,0.0,0.0,0.0,0.0,0.0,0.0,0.0,0.0,0.0,0.0,0.0,0.0,0.0,0.0,0.0,0.0,0.0,0.0,0.0,0.0,0.0,0.0,0.0,0.0,0.0,0.0,0.0,0.0,0.0,0.0,0.0,0.0,0.0,0.0,0.0,0.0,0.0,0.0,0.0,0.0,0.0,0.0,0.0,0.0,0.0,0.0,0.0,0.0,0.0,0.0,0.0,0.0,0.0,0.0,0.0,0.0,0.0,0.0,0.0,0.0,0.0,0.0,0.0,0.0,0.0,0.0,3.0177,2.8981,0.0,0.0,0.0,0.0,0.0,0.0,0.0,0.0,0.0,0.0,0.0,0.0,0.0,0.0,0.0,0.0,0.0,0.0,0.0,0.0,0.0,0.0,0.0,1.2878,1.2906,1.261,1.2873,1.306,0.0,0.0,0.0,0.0,0.0,0.0,0.0,1.4196,1.483,1.5984,1.9384,2.2368,2.488,2.488,2.2893,1.9276,1.7681,0.0,0.0,0.0,0.0,0.0,0.0,0.0,0.0,0.0,0.0,0.0,0.0,0.0,0.0,0.0,0.0,0.0,0.0,0.0,0.0,0.0,0.0,0.0,0.0,0.0,0.0,0.0,0.0,0.0,0.0,0.0,0.0,0.0,0.0,0.0,0.0,0.0,0.0,0.0,0.0,0.0,0.0,0.0,0.0,0.0,0.0,0.0,0.0,0.0,0.0,0.0,0.0,0.0,0.0,0.0,0.0,0.0,0.0,0.0,0.0,0.0,0.0,0.0,3.2714,3.2491,3.236,3.2374,3.2616,3.2961,3.1854,3.1495,3.1511,2.9473,0.0,0.0,0.0,0.0,0.0,0.0,0.0,0.0,0.0,0.0,0.0,0.0,0.0,0.0,0.0,0.0,0.0,0.0,0.0,0.0,0.0,1.286,1.2935,1.2551,1.2704,1.2841,1.2855,0.0,0.0,0.0,0.0,0.0,1.3506,1.3362,1.4668,1.7512,2.2455,2.5406,2.6412,2.6412,2.609,2.5431,2.3316,2.2361,2.2192,0.0,0.0,0.0,0.0,0.0,0.0,0.0,0.0,0.0,0.0,0.0,0.0,0.0,0.0,0.0,0.0,0.0,0.0,0.0,0.0,0.0,0.0,0.0,0.0,0.0,0.0,0.0,0.0,0.0,0.0,0.0,0.0,0.0,0.0,0.0,0.0,0.0,0.0,0.0,0.0,0.0,2.8539,2.7885,0.0,0.0,0.0,0.0,0.0,0.0,0.0,0.0,0.0,0.0,0.0,0.0,0.0,3.3009,3.3274,3.4419,3.5015,3.5031,3.6218,3.6433,3.5769,3.5876,3.5629,3.51,3.4921,0.0,3.2392,3.2617,0.0,0.0,0.0,0.0,0.0,0.0,0.0,0.0,0.0,0.0,0.0,0.0,0.0,0.0,0.0,0.0,0.0,0.0,0.0,0.0,0.0,1.3773,1.4481,1.4153,1.5416,1.5752,1.467,1.4459,0.0,0.0,0.0,1.4064,1.5051,1.6333,1.9084,2.3429,2.5711,2.7663,2.9237,2.9237,2.9237,2.9187,2.8222,2.6378,2.3925,2.2612,0.0,0.0,0.0,0.0,0.0,0.0,0.0,0.0,0.0,0.0,0.0,0.0,0.0,0.0,0.0,0.0,0.0,0.0,0.0,0.0,0.0,0.0,0.0,0.0,0.0,0.0,0.0,0.0,0.0,0.0,0.0,0.0,0.0,0.0,0.0,0.0,0.0,0.0,0.0,2.7347,2.8184,2.8236,2.8704,2.8739,0.0,0.0,0.0,0.0,0.0,0.0,0.0,0.0,0.0,3.5324,3.5273,3.575,3.6917,3.7072,3.7173,3.727,3.7489,3.7457,3.719,3.7249,3.732,3.7405,3.7405,3.6906,3.5958,3.4228,3.2976,3.2108,0.0,0.0,0.0,0.0,3.1132,3.1368,0.0,0.0,0.0,0.0,0.0,0.0,0.0,0.0,0.0,0.0,0.0,0.0,1.3294,1.5333,1.6585,1.6247,1.7868,1.815,1.6368,1.6096,1.5553,1.4534,1.4487,1.5011,1.6168,1.9271,2.305,2.7519,2.828,2.954,3.12,3.12,3.12,3.12,3.12,2.9339,2.6183,2.5583,2.4052,2.1951,0.0,0.0,0.0,0.0,0.0,0.0,0.0,0.0,0.0,0.0,0.0,0.0,0.0,0.0,0.0,0.0,0.0,0.0,0.0,0.0,0.0,0.0,0.0,0.0,0.0,0.0,0.0,0.0,0.0,0.0,0.0,0.0,0.0,0.0,0.0,0.0,0.0,2.8066,2.8886,2.93,3.0664,3.105,0.0,0.0,0.0,0.0,0.0,0.0,3.5031,3.4533,3.5273,3.7524,3.7596,3.8368,3.9975,3.9571,3.9418,3.9512,3.8997,3.8698,3.8611,3.8655,3.8856,3.9175,3.9175,3.9175,3.8943,3.5906,3.444,3.4001,3.284,3.2286,3.2151,3.2331,3.2599,3.3018,0.0,0.0,0.0,0.0,0.0,0.0,0.0,0.0,0.0,0.0,0.0,1.5708,1.5375,1.7662,1.9017,1.8483,1.8718,1.8347,1.7041,1.6703,1.6164,1.5285,1.5239,1.537,1.5631,2.0636,2.4398,2.6767,2.9627,3.1089,3.12,3.12,3.12,3.12,3.12,3.1072,3.0726,2.856,2.7553,2.7046,2.2876,0.0,0.0,0.0,0.0,0.0,0.0,0.0,0.0,0.0,0.0,0.0,0.0,0.0,0.0,0.0,0.0,0.0,0.0,0.0,0.0,0.0,0.0,0.0,0.0,0.0,0.0,0.0,0.0,0.0,0.0,0.0,0.0,0.0,0.0,0.0,0.0,0.0,0.0,3.2508,3.4002,0.0,0.0,0.0,0.0,3.556,3.4372,3.5047,3.8371,3.7212,3.7441,3.9668,4.0167,4.0501,4.0732,4.1405,4.174,4.174,4.1835,4.1499,4.0845,4.0974,4.0625,3.9942,3.9942,3.9942,3.9832,3.837,3.6984,3.5726,3.508,3.4425,3.394,3.4592,3.523,3.5883,0.0,0.0,0.0,0.0,0.0,0.0,0.0,0.0,1.1055,1.1067,1.3532,1.5222,1.5061,1.8808,2.1118,2.0575,2.193,2.2129,2.0466,1.9366,1.8443,1.7647,1.6716,1.7817,2.1258,2.456,2.7342,2.9593,3.0666,3.1437,3.1911,3.1911,3.2165,3.2628,3.2628,3.2628,3.251,3.0734,2.9135,2.7663,2.6083,2.3731,0.0,0.0,0.0,0.0,0.0,0.0,0.0,0.0,0.0,0.0,0.0,0.0,0.0,0.0,0.0,0.0,0.0,0.0,0.0,0.0,0.0,0.0,0.0,0.0,0.0,0.0,0.0,0.0,0.0,0.0,0.0,0.0,0.0,0.0,0.0,0.0,0.0,3.3177,3.5054,0.0,3.5192,3.558,3.6393,3.7549,3.7575,3.8351,4.0252,3.9675,3.9967,4.1396,4.1527,4.1634,4.1751,4.194,4.2075,4.2153,4.2601,4.2726,4.2557,4.313,4.3485,4.367,4.367,4.367,4.361,4.2732,4.06,3.7826,3.7176,3.678,3.6598,3.6841,3.7149,3.749,0.0,0.0,0.0,0.0,0.0,0.0,0.0,0.0,1.0681,1.1643,1.4233,1.631,1.7161,2.0988,2.3252,2.2667,2.4211,2.4159,2.1616,2.0697,1.9625,1.8257,1.8234,2.0566,2.5515,2.7046,2.9033,3.1572,3.1572,3.1945,3.2672,3.2672,3.2943,3.3396,3.3396,3.3396,3.3339,3.2357,3.1062,2.9616,2.8872,2.6818,2.4009,0.0,0.0,0.0,0.0,0.0,0.0,0.0,0.0,0.0,0.0,0.0,0.0,0.0,0.0,0.0,0.0,0.0,0.0,0.0,0.0,0.0,0.0,0.0,0.0,0.0,0.0,0.0,0.0,0.0,0.0,0.0,0.0,0.0,0.0,3.3373,3.5284,3.3919,3.6212,3.7539,3.6609,3.7707,3.8769,3.9437,4.0117,4.0817,4.1529,4.1352,4.1675,4.2628,4.278,4.3032,4.3436,4.361,4.3742,4.3822,4.4215,4.4468,4.4556,4.5108,4.5616,4.6075,4.6075,4.6075,4.6015,4.5402,4.3622,4.1183,4.0035,3.9586,3.9586,3.9586,3.9504,3.9385,0.0,0.0,0.0,0.0,0.0,0.0,0.0,0.9143,1.0592,1.349,1.6323,1.9092,2.1783,2.4187,2.5333,2.467,2.5269,2.4106,2.0318,2.0461,1.9573,1.7023,1.986,2.3478,2.7705,2.7891,2.9381,3.2293,3.2327,3.2716,3.3429,3.3429,3.3446,3.3463,3.3463,3.3463,3.3463,3.3463,3.3463,3.3277,3.1079,3.0166,2.9557,0.0,0.0,0.0,0.0,0.0,0.0,0.0,0.0,0.0,0.0,0.0,0.0,0.0,0.0,0.0,0.0,0.0,0.0,0.0,0.0,0.0,0.0,0.0,0.0,0.0,0.0,0.0,0.0,0.0,0.0,0.0,0.0,0.0,3.4066,3.482,3.5405,3.5112,3.7723,3.902,3.7769,3.9573,4.0952,4.1199,4.1798,4.2206,4.2354,4.2271,4.2611,4.349,4.4061,4.4802,4.5722,4.6447,4.68,4.68,4.6817,4.6834,4.6851,4.6868,4.6868,4.6868,4.6868,4.6868,4.6809,4.6171,4.5908,4.5696,4.3591,4.2772,4.2772,4.2772,4.2301,4.1684,0.0,0.0,0.0,0.0,0.0,0.0,0.8534,0.8761,0.9893,1.2734,1.561,1.8429,2.1214,2.3969,2.541,2.4936,2.539,2.4547,2.1835,2.1101,2.0331,1.9388,2.3636,2.6631,2.7912,3.0087,3.156,3.2293,3.2924,3.3575,3.4201,3.4201,3.4478,3.5002,3.5002,3.5002,3.5002,3.5002,3.5002,3.4839,3.3176,3.1519,2.9946,0.0,0.0,0.0,0.0,0.0,0.0,0.0,0.0,0.0,0.0,0.0,0.0,0.0,0.0,0.0,0.0,0.0,0.0,0.0,0.0,0.0,0.0,0.0,0.0,0.0,0.0,0.0,0.0,0.0,0.0,0.0,3.4634,3.586,3.5446,3.7042,3.8441,3.8966,3.9784,4.0398,4.0662,4.1325,4.1775,4.1856,4.2584,4.3311,4.3924,4.4426,4.5068,4.5838,4.6015,4.6249,4.6498,4.6699,4.68,4.6817,4.7344,4.7599,4.7616,4.8156,4.8392,4.8392,4.8392,4.8392,4.8377,4.8192,4.813,4.7853,4.5241,4.422,4.422,4.422,4.4091,4.3779,0.0,0.0,0.0,0.0,0.0,0.0,0.804,0.8132,0.9701,1.4027,1.6064,1.8628,2.2661,2.4603,2.5467,2.5158,2.4787,2.3554,2.1155,2.0448,2.1017,2.3024,2.6203,2.8414,2.9438,3.1463,3.2604,3.2846,3.3654,3.437,3.4962,3.4962,3.5368,3.6096,3.6096,3.627,3.6541,3.6231,3.6096,3.5994,3.4799,3.3548,3.228,3.1028,2.9736,2.8416,2.7079,2.6573,2.6244,2.395,0.0,0.0,0.0,0.0,0.0,0.0,0.0,0.0,0.0,0.0,0.0,0.0,0.0,0.0,0.0,0.0,0.0,0.0,0.0,0.0,0.0,0.0,0.0,0.0,3.6671,3.7844,3.7844,3.8954,3.9966,4.0531,4.0864,4.1296,4.1916,4.2619,4.3058,4.3144,4.419,4.5026,4.5497,4.5937,4.6498,4.7242,4.7259,4.7411,4.7716,4.7716,4.7868,4.8188,4.8612,4.8986,4.9307,4.973,4.9916,4.9916,4.9916,4.9916,4.9916,4.9916,4.9916,4.9701,0.0,0.0,0.0,0.0,4.5668,4.5506,0.0,0.0,0.0,0.0,0.0,0.0,0.7287,0.7456,0.9776,1.6145,1.7047,1.9276,2.4982,2.5597,2.554,2.5355,2.3916,2.2002,1.9637,1.9854,2.2174,2.6825,2.7955,2.9484,3.1602,3.2312,3.3022,3.3757,3.45,3.5132,3.5622,3.5707,3.6124,3.6795,3.6885,3.7291,3.7872,3.7207,3.688,3.6745,3.6017,3.5667,3.5312,3.2696,3.1708,3.1343,2.8661,2.7689,2.7568,2.6825,0.0,0.0,0.0,0.0,0.0,0.0,0.0,0.0,0.0,0.0,0.0,0.0,0.0,0.0,0.0,0.0,0.0,0.0,0.0,0.0,0.0,0.0,0.0,0.0,3.902,4.0426,4.0522,4.0674,4.0782,4.0847,4.1541,4.2122,4.2448,4.3752,4.4648,4.4838,4.614,4.6921,4.6921,4.6989,0.0,0.0,0.0,4.8462,4.912,4.9221,4.9576,5.0219,5.0219,5.0574,5.1201,5.1201,5.1201,5.1201,5.1201,5.1201,5.1201,5.1201,5.1201,5.1066,4.9747,4.9255,4.9093,4.7758,4.7301,4.7285,0.0,0.0,0.0,0.0,0.0,0.0,0.6596,0.7153,0.9593,1.5453,1.6739,1.9276,2.4982,2.5597,2.5609,2.5624,2.4009,2.2463,2.1212,2.3922,2.6063,2.719,2.9555,3.1375,3.2515,3.3259,3.3963,3.465,3.5497,3.5867,3.5779,3.6367,3.6695,3.6829,3.7415,3.777,3.7877,3.7753,3.733,3.6795,3.6631,3.618,3.5532,3.4957,3.4748,3.467,3.4026,3.3726,3.3215,3.0429,2.9331,2.8781,2.6641,2.6123,0.0,0.0,0.0,0.0,0.0,0.0,0.0,0.0,0.0,0.0,0.0,0.0,0.0,0.0,0.0,0.0,0.0,0.0,0.0,3.7818,3.9338,4.0649,4.1341,4.2325,4.2827,4.2432,4.3227,4.4054,4.4702,4.5706,4.6317,4.6377,4.7192,4.7684,4.7684,4.8257,4.8646,4.8781,4.9357,4.9729,4.9897,5.049,5.0846,5.0981,5.0981,0.0,5.1201,5.1201,5.1201,5.1201,5.1201,5.1201,5.1201,5.1201,5.1201,5.1167,5.088,5.0778,5.0664,4.9793,4.9859,5.0187,0.0,0.0,0.0,0.0,0.0,0.0,0.5844,0.6241,0.825,1.3244,1.4195,1.6166,2.0839,2.1357,2.1365,2.1387,2.142,2.1646,2.2121,2.5316,2.7905,2.9472,3.0835,3.1956,3.2827,3.3535,3.424,3.4942,3.5794,3.609,3.5905,3.6213,3.6724,3.7412,3.776,3.8311,3.8949,3.821,3.7686,3.7291,3.6518,3.5949,3.56,3.56,3.56,3.5588,3.552,3.5457,3.5181,3.3743,3.3009,3.2485,3.1214,3.0176,2.8939,0.0,0.0,0.0,0.0,0.0,0.0,0.0,0.0,0.0,0.0,0.0,0.0,0.0,0.0,3.4149,3.5247,0.0,3.8116,3.9573,4.0815,4.1851,4.2551,4.3712,4.4261,4.3628,4.4516,4.544,4.6047,4.68,4.7269,4.7346,4.8022,4.8597,4.8984,4.9357,4.9729,5.0085,5.0473,5.0659,5.0659,5.1015,5.1387,5.1742,5.1742,5.1945,5.2351,5.2351,5.2351,5.2351,5.2351,5.2351,5.2351,5.2351,5.2351,5.2351,5.2351,5.1877,5.1169,5.0775,5.0891,5.1087,0.0,0.0,0.0,0.0,0.0,0.0,0.0,0.5405,0.703,1.1039,1.1776,1.3234,1.6723,1.7101,1.6946,1.6554,1.917,2.1314,2.2384,2.605,2.9256,3.1679,3.1699,3.2103,3.311,3.367,3.4359,3.5253,3.5899,3.6137,3.5997,3.6048,3.6673,3.777,3.7862,3.8565,3.9592,3.8396,3.7809,3.7584,3.6321,3.5746,3.5616,3.578,3.5808,3.5774,3.5716,3.576,3.5909,3.6281,3.6075,3.5641,3.5658,3.4333,3.211,2.8588,2.7896,0.0,0.0,0.0,0.0,0.0,0.0,0.0,0.0,3.0756,3.1311,3.3519,3.4563,3.5623,3.7417,3.8331,3.9424,4.1312,4.237,4.3176,4.3817,4.4961,4.5562,4.5062,4.5848,4.6586,4.6946,4.7577,4.8,4.8108,4.8798,4.9475,5.0066,5.0236,5.0591,5.1184,5.1336,5.1404,5.1404,5.1573,5.1945,5.2536,5.2536,5.2875,5.3501,5.3501,5.3501,5.3501,5.3501,5.3501,5.3501,5.3501,5.3501,5.3501,5.3501,5.274,5.1641,5.1641,5.1641,5.1641,0.0,0.0,0.0,0.0,0.0,0.0,0.0,0.0,0.7362,1.0345,1.1867,1.3811,1.6777,1.7101,1.6371,1.4593,2.0458,2.3483,2.1659,2.7672,3.1447,3.1792,3.1791,3.2463,3.3931,3.4042,3.4756,3.6142,3.6228,3.6202,3.6014,3.6665,3.6951,3.6959,3.7613,3.7978,3.8142,3.7961,3.7516,3.6902,3.6745,3.6231,3.5667,3.6383,3.6539,3.6394,3.6382,3.6693,3.7111,3.7157,3.7049,3.6898,3.6887,3.7149,3.6366,3.0778,2.9886,2.9496,2.3902,2.5077,2.8564,3.1375,3.2172,3.3285,0.0,3.663,3.5893,3.8105,3.9149,3.9733,3.9981,4.058,4.1345,4.2239,4.3015,4.3848,4.4877,4.6152,4.7113,4.7457,4.7624,4.7663,4.7617,4.8351,4.8868,4.8883,4.956,5.0015,5.01,5.0727,5.1116,5.1201,5.1827,5.2181,5.2181,5.2892,5.3281,5.3365,5.3365,5.3416,5.3501,5.3501,5.3501,5.3501,5.3501,5.3501,5.3501,5.3501,5.3501,5.3501,5.3501,5.3399,5.3247,5.3247,5.3247,5.3247,0.0,0.0,0.0,0.0,0.0,0.0,0.0,0.0,0.0,0.8575,0.9331,1.0326,1.1925,1.2103,1.1958,1.1633,1.8059,2.1916,2.1434,2.7923,3.18,3.18,3.18,3.2507,3.4069,3.4103,3.4828,3.6301,3.6301,3.6259,3.618,3.6377,3.6637,3.6979,3.7163,3.7499,3.786,3.7432,3.7071,3.6761,3.6282,3.618,3.6332,3.6665,3.7231,3.7542,3.5357,3.4695,0.0,3.5221,3.5264,3.5484,3.7242,3.7123,3.5517,3.1363,3.0514,3.0752,2.9947,3.0169,3.1292,3.3965,3.4618,3.5098,3.6966,3.7003,3.7268,3.9467,4.0495,4.111,4.1541,4.1841,4.2421,4.3595,4.4102,4.4822,4.6171,4.6979,4.7671,4.8342,4.8483,4.8514,4.8468,4.9173,4.9644,4.9644,5.0321,5.093,5.1352,5.1674,5.2063,5.252,5.2841,5.301,5.301,5.3331,5.3501,5.3501,5.3501,5.3501,5.3501,5.3501,5.3501,5.3501,5.3501,5.3501,5.3501,5.3501,5.3501,5.3501,5.3501,5.3501,5.3501,5.3501,5.3501,5.3501,0.0,0.0,0.0,0.0,0.0,0.0,0.0,0.0,0.0,0.0,0.7649,0.7967,0.844,0.8502,0.8763,0.9445,1.5088,1.9331,2.0989,2.6838,3.0696,3.1748,3.18,3.243,3.3741,3.3983,3.4784,3.6159,3.6367,3.644,3.6378,3.622,3.6347,3.6672,3.6531,3.6772,3.7234,3.6705,3.6462,3.6428,3.5831,3.6079,3.6829,3.7021,3.7322,3.7278,3.4723,3.3873,3.3918,3.3706,3.3571,3.3836,3.5833,3.5496,3.3766,3.067,2.9501,2.9853,3.2696,3.3086,3.3238,3.5446,3.6456,3.6953,3.7168,3.7632,3.851,4.0312,4.1226,4.1875,4.2404,4.2835,4.3462,4.4538,4.5128,4.5868,4.7091,4.7595,4.81,4.8765,4.8941,4.9086,4.9272,4.9779,5.0184,5.0388,5.1099,5.1742,5.2266,5.252,5.2909,5.3484,5.3501,5.3501,5.3501,5.3501,5.3501,5.3501,5.3501,5.3501,5.3501,5.3501,5.3501,5.3501,5.3501,5.3501,5.3501,5.3501,5.3501,5.3501,5.3501,5.3501,5.3501,5.3501,5.3501,5.3501,0.0,0.0,0.0,0.0,0.0,0.0,0.0,0.0,0.0,0.0,0.0,0.0,0.0,0.8502,0.8558,0.8723,1.2373,1.6288,2.0075,2.4052,2.7937,3.1637,3.18,3.2162,3.2921,3.3707,3.4656,3.5811,3.6539,3.6781,3.659,3.658,3.6252,3.5645,3.5645,3.565,3.5667,3.5661,3.5633,3.5633,3.56,3.6079,3.688,3.7601,3.6518,3.4687,3.5161,3.5678,3.5773,3.3656,3.2835,3.2624,3.2001,3.2249,3.2056,2.8456,2.6392,2.5902,2.8797,3.1095,3.3238,3.5446,3.7612,3.9398,4.0111,4.0279,4.0495,4.1212,4.1957,4.2471,4.2504,4.3678,4.4654,4.4687,4.5913,4.6969,4.7333,4.803,4.8609,4.8955,4.9001,4.9272,4.9998,5.01,5.0388,5.11,5.186,5.2283,5.23,5.3044,5.3484,5.3501,5.3501,5.3501,5.3501,5.3501,5.3501,5.3501,5.3501,5.3501,5.3501,5.3501,5.3501,5.3501,5.3501,5.3501,5.3501,5.3501,5.3501,5.3501,5.3501,5.3501,5.3501,5.3501,5.3501,5.3501,0.0,0.0,0.0,0.0,0.0,0.0,0.0,0.0,0.0,0.0,0.0,0.0,0.0,0.0,0.0,0.0,1.2255,1.5304,1.7182,2.2831,2.6912,2.873,3.0731,3.2145,3.2886,3.3374,3.4356,3.5805,3.5993,3.6485,3.7181,3.6516,3.6214,3.6228,3.5805,3.56,3.56,3.56,3.56,3.56,3.56,3.6372,3.7347,3.5577,3.5053,3.4856,0.0,3.0784,3.0363,2.9585,2.9553,3.0133,3.1802,3.1487,2.9996,2.7346,2.723,2.8496,3.0924,3.3193,3.5528,3.8241,3.9467,4.0213,4.0912,4.1442,4.1872,4.2073,4.1941,4.1775,4.1775,4.257,4.3398,4.3878,4.5616,4.7201,4.8001,4.8332,4.8626,4.8955,4.9424,5.0016,5.076,5.0828,5.115,5.186,5.2655,5.3095,5.3095,5.3348,5.3501,5.3501,5.3501,5.3501,5.3501,5.3501,5.3501,5.3501,5.3501,5.3501,5.3501,5.3501,5.3501,5.3501,5.3501,5.3501,5.3501,5.3501,5.3501,5.3501,5.3501,5.3501,5.3501,5.3501,5.3501,5.3501,0.0,0.0,0.0,0.0,0.0,0.0,0.0,0.0,0.0,0.0,0.0,0.0,0.0,0.0,0.0,0.0,0.0,1.3413,1.5687,1.9998,2.3412,2.5557,2.7506,2.879,2.9315,2.9825,3.0675,3.1907,3.3579,3.4659,3.5235,3.6055,3.6371,3.6224,3.5794,3.56,3.56,3.56,3.4991,3.4021,3.4021,3.4123,3.4106,3.2459,3.1908,0.0,2.8984,2.7311,2.6452,2.6916,2.7308,2.7853,2.9178,2.8622,2.7502,2.7675,2.8519,3.0052,3.3061,3.4916,3.6704,3.9666,4.0395,4.0644,4.1577,4.2156,4.2555,4.2837,4.2106,4.1394,4.1394,4.2222,4.2885,4.282,4.4888,4.6786,4.7598,4.7712,4.8038,4.8904,4.9644,5.0388,5.1133,5.1438,5.1894,5.2672,5.3213,5.3501,5.3501,5.3501,5.3501,5.3501,5.3501,5.3501,5.3501,5.3501,5.3501,5.3501,5.3501,5.3501,5.3501,5.3501,5.3501,5.3501,5.3501,5.3501,5.3501,5.3501,5.3501,5.3501,5.3501,5.3501,5.3501,5.3501,5.3501,5.3501,0.0,0.0,0.0,0.0,0.0,0.0,0.0,0.0,0.0,0.0,0.0,0.0,0.0,0.0,0.0,0.0,0.0,0.0,1.5304,1.5761,1.7816,2.2216,2.2567,2.2738,2.291,2.3674,2.4341,2.4909,2.9413,3.1391,3.1012,3.4845,3.6128,3.5193,3.5165,3.5143,3.5143,3.5143,3.3531,3.097,3.097,2.9693,2.7874,2.8476,2.7427,2.5677,2.6177,2.5404,2.436,2.5721,2.6267,2.6145,2.4853,2.4448,2.5259,2.9407,3.0201,3.0648,3.4866,3.6108,3.6903,3.9733,4.0478,4.0876,4.2239,4.257,4.2721,4.335,4.2322,4.1262,4.1196,4.2421,4.3,4.1626,4.391,4.5989,4.636,4.6407,4.7064,4.8786,4.9678,5.0422,5.1133,5.1894,5.2689,5.345,5.3501,5.3501,5.3501,5.3501,5.3501,5.3501,5.3501,5.3501,5.3501,5.3501,5.3501,5.3501,5.3501,5.3501,5.3501,5.3501,5.3501,5.3501,5.3501,5.3501,5.3501,5.3501,5.3501,5.3501,5.3501,5.3501,5.3501,5.3551,5.3568,5.3568,0.0,0.0,0.0,0.0,0.0,0.0,0.0,0.0,0.0,0.0,0.0,0.0,0.0,0.0,0.0,0.0,0.0,0.0,1.153,1.3805,1.6088,1.8345,2.0749,2.2304,2.2892,2.3484,2.4162,2.4909,2.6063,2.7326,2.8651,2.8845,2.9269,2.984,2.9237,2.8975,2.8975,2.8975,2.8535,2.785,2.785,2.7833,2.7587,2.5592,2.5152,2.5398,2.3759,2.3254,2.3508,2.4363,2.6415,2.881,3.0089,3.047,3.0702,3.1813,3.3176,3.4556,3.5694,3.7612,3.9583,4.0829,4.1558,4.2206,4.3102,4.3317,4.3052,4.2156,4.0829,3.9501,3.8397,3.9852,4.1259,4.1378,4.434,4.6935,4.7816,4.7947,4.8206,4.8921,5.0152,5.0981,5.1184,5.2402,5.3281,5.3484,5.3501,5.3501,5.3501,5.3501,5.3501,5.3501,5.3501,5.3501,5.3501,5.3501,5.3501,5.3501,5.3501,5.3501,5.3501,5.3501,5.3501,5.3501,5.3501,5.3501,5.3501,5.3501,5.3501,5.3501,5.3501,5.3501,5.3568,5.411,5.4313,5.4397,0.0,0.0,0.0,0.0,0.0,0.0,0.0,0.0,0.0,0.0,0.0,0.0,0.0,0.0,0.0,0.0,0.0,0.0,0.0,1.1806,1.3309,1.4482,1.6269,1.7476,1.7966,1.828,1.8893,1.9815,2.1537,2.2998,2.4196,2.5678,2.6553,2.6879,2.6762,2.67,2.67,2.67,2.5947,0.0,0.0,2.4214,2.3294,2.2286,2.2393,2.3015,2.2324,2.3339,2.5221,2.6857,2.8717,3.0698,3.2591,3.274,3.2531,3.4154,3.528,3.6208,3.7168,3.8888,4.0561,4.1229,4.1957,4.2506,4.262,4.2622,4.2222,4.0779,3.9351,3.8092,3.7251,3.9156,4.0763,4.0514,4.381,4.667,4.7431,4.7528,4.7904,4.8871,5.0305,5.1201,5.1201,5.2588,5.3501,5.3501,5.3501,5.3501,5.3501,5.3501,5.3501,5.3501,5.3501,5.3501,5.3501,5.3501,5.3501,5.3501,5.3501,5.3501,5.3501,5.3501,5.3501,5.3501,5.3501,5.3501,5.3534,5.3856,5.3974,5.4008,5.4346,5.4465,5.4515,5.4938,5.5091,5.5141,0.0,0.0,0.0,0.0,0.0,0.0,0.0,0.0,0.0,0.0,0.0,0.0,0.0,0.0,0.0,0.0,0.0,0.0,0.0,0.0,1.0433,1.1353,1.141,1.1569,1.1842,1.1868,1.2313,1.3277,1.6748,1.8616,1.9021,2.3181,2.4892,2.4503,2.5108,2.5431,2.5515,2.5515,2.4036,2.1694,2.1694,2.0132,1.7952,0.0,1.9873,2.0095,2.1624,2.4352,2.7664,3.0504,3.178,3.247,3.4021,3.3657,3.3248,3.6456,3.6936,3.6854,3.8785,3.9846,4.0561,4.1229,4.1957,4.2322,4.1577,4.1394,4.0928,3.9202,3.7927,3.7019,3.6709,3.9027,4.0666,3.9733,4.2997,4.5872,4.6511,4.659,4.7199,4.8803,5.0305,5.1201,5.1201,5.2588,5.3501,5.3501,5.3501,5.3501,5.3501,5.3501,5.3501,5.3501,5.3501,5.3501,5.3501,5.3501,5.3501,5.3501,5.3501,5.3501,5.3501,5.3501,5.3501,5.3518,5.3602,5.3653,5.3704,5.4431,5.4753,5.4803,5.5445,5.5699,5.5716,5.58,5.5852,5.5903,0.0,0.0,0.0,0.0,0.0,0.0,0.0,0.0,0.0,0.0,0.8192,0.8347,0.0,0.0,0.0,0.0,0.0,0.0,0.0,0.0,0.0,1.1332,1.1501,1.1924,1.2685,1.2689,1.2843,1.3124,1.3729,1.4694,1.6041,1.6598,1.7502,1.8644,1.8495,1.8764,1.9344,1.9344,1.9051,1.8577,1.8577,1.8273,1.7884,1.8752,0.0,0.0,2.1461,2.3873,2.6842,2.9721,3.2718,3.5595,3.7678,3.8159,3.8092,3.8722,3.8821,3.8818,3.9199,3.9846,4.0561,4.1229,4.1957,4.2322,4.1577,4.1394,4.0484,3.7235,3.6854,3.6539,3.47,3.6771,3.9258,4.0796,4.3197,4.5655,4.7799,4.8114,4.834,4.8921,5.0305,5.1201,5.1201,5.2588,5.3501,5.3501,5.3501,5.3501,5.3501,5.3501,5.3501,5.3501,5.3501,5.3501,5.3501,5.3501,5.3501,5.3501,5.3501,5.3501,5.3501,5.3501,5.3501,5.3534,5.4143,5.4397,5.4465,5.5209,5.5513,5.5513,5.5648,5.5699,5.5767,5.6393,5.6702,5.6927,0.0,0.0,0.0,0.0,0.0,0.0,0.0,0.0,0.7854,0.8022,0.8217,0.8358,0.8403,0.8514,0.0,0.0,0.0,0.0,0.0,0.0,0.0,0.0,1.063,1.0907,1.0969,1.1385,1.1857,1.2369,0.0,1.3031,1.4488,1.5082,1.5725,1.6397,1.6994,1.7473,1.78,1.78,1.78,1.78,1.78,1.7789,1.7861,0.0,0.0,0.0,2.1064,2.3104,2.5729,2.738,3.1286,3.5876,3.8486,3.9299,3.9299,3.9299,3.9299,3.9299,3.9299,3.9846,4.0561,4.1229,4.1957,4.2106,4.063,4.0017,3.8911,3.6025,3.5396,3.5181,3.4497,3.6473,3.8662,4.0067,4.2781,4.5309,4.7004,4.7966,4.8594,4.8863,5.0257,5.1201,5.1201,5.2588,5.3501,5.3501,5.3501,5.3501,5.3501,5.3501,5.3501,5.3501,5.3501,5.3501,5.3501,5.3501,5.3501,5.3501,5.3501,5.3501,5.3518,5.3907,5.4059,5.411,5.4854,5.5175,5.5243,5.597,5.6257,5.6325,5.6697,5.685,5.6901,5.7347,5.759,5.7712,0.0,0.0,0.0,0.0,0.0,0.0,0.0,0.7662,0.7753,0.7937,0.8075,0.8207,0.8351,0.8438,0.8502,0.0,0.0,0.0,0.0,0.0,0.0,0.0,0.0,0.0,0.9472,0.0,0.0,1.1632,1.1624,0.0,0.0,0.0,0.0,0.0,1.6813,1.7495,1.78,1.78,1.78,0.0,0.0,1.7749,1.7833,0.0,0.0,0.0,0.0,2.1987,2.4003,2.5118,2.8801,3.3421,3.6369,3.7891,3.8569,3.8404,3.847,3.8702,3.9166,3.973,4.0362,4.1179,4.1841,4.1742,3.9749,3.8854,3.7731,3.5181,3.4319,3.4165,3.4596,3.634,3.8079,3.9133,4.1702,4.4134,4.5863,4.7083,4.8043,4.8719,5.0225,5.1201,5.1201,5.2588,5.3501,5.3501,5.3501,5.3501,5.3501,5.3501,5.3501,5.3501,5.3501,5.3501,5.3501,5.3501,5.3501,5.3501,5.3501,5.3501,5.3534,5.4262,5.46,5.4651,5.5564,5.5936,5.5986,5.6731,5.7036,5.7087,5.7662,5.79,5.7918,5.8134,5.8224,5.826,0.0,0.0,0.0,0.0,0.0,0.0,0.0,0.7577,0.7654,0.7797,0.7933,0.8073,0.8201,0.8396,0.8502,0.0,0.0,0.0,0.0,0.0,0.0,0.0,0.0,0.0,0.0,0.0,0.0,1.143,1.137,0.0,0.0,0.0,0.0,0.0,0.0,1.6559,1.78,1.78,0.0,0.0,0.0,0.0,0.0,0.0,0.0,0.0,0.0,2.0245,2.1176,2.4147,2.5725,2.6971,2.9918,3.336,3.6174,3.5495,3.5777,3.6738,3.8738,3.9348,3.9716,4.1063,4.1444,4.1113,3.9647,3.9249,3.8188,3.4629,3.4369,3.4601,3.4016,3.5164,3.687,3.8967,3.958,4.1277,4.5513,4.5763,4.6331,4.8534,5.0225,5.1201,5.1201,5.2588,5.3501,5.3501,5.3501,5.3501,5.3501,5.3501,5.3501,5.3501,5.3501,5.3501,5.3501,5.3501,5.3501,5.3501,5.3501,5.3501,5.3534,5.4262,5.46,5.4668,5.6089,5.6697,5.6765,5.7492,5.7798,5.7815,5.7883,5.79,5.7918,5.8134,5.833,5.8455,0.0,0.0,0.0,0.0,0.0,0.0,0.0,0.6924,0.7114,0.7621,0.7834,0.798,0.8066,0.8256,0.8374,0.0,0.0,0.0,0.0,0.0,0.0,0.0,0.0,0.0,0.0,0.0,1.0576,1.1344,1.1264,0.0,0.0,0.0,0.0,0.0,0.0,1.5933,1.6475,1.6475,0.0,0.0,0.0,0.0,0.0,0.0,0.0,0.0,0.0,0.0,1.9405,2.1457,2.3543,2.5205,2.4633,2.751,3.1577,3.4157,3.5413,3.6473,3.8689,3.963,4.0196,4.1163,4.0763,3.9998,3.9431,3.7927,3.6236,3.475,3.4,3.3768,3.4348,3.4584,3.5247,3.7032,3.8437,4.0088,4.2351,4.4443,4.6129,4.7169,4.9543,5.1121,5.1185,5.2588,5.3501,5.3501,5.3501,5.3501,5.3501,5.3501,5.3501,5.3501,5.3501,5.3501,5.3501,5.3501,5.3501,5.3501,5.3501,5.3737,5.4194,5.4938,5.5497,5.5987,5.7002,5.7459,5.7476,5.7781,5.79,5.79,5.79,5.7954,5.8098,5.8295,5.8508,5.8648,0.0,0.0,0.0,0.0,0.0,0.6273,0.6702,0.6772,0.6963,0.7532,0.772,0.7852,0.795,0.8096,0.8197,0.8243,0.0,0.0,0.0,0.0,0.0,0.0,0.0,0.0,0.0,0.0,1.0665,1.1634,1.1585,1.2184,0.0,0.0,1.429,1.4516,0.0,0.0,0.0,0.0,0.0,0.0,0.0,0.0,0.0,0.0,0.0,0.0,0.0,0.0,0.0,0.0,0.0,2.3295,2.1251,2.3181,2.6999,3.1232,3.3692,3.5512,3.7711,3.9335,4.0561,4.1229,4.0346,3.9299,3.9299,3.7015,3.4833,3.4618,3.3751,3.3337,3.4369,3.4319,3.4535,3.5794,3.7131,3.8569,4.0163,4.2561,4.4519,4.5522,4.8052,4.9926,5.0492,5.2334,5.3501,5.3501,5.3501,5.3501,5.3501,5.3501,5.3501,5.3501,5.3501,5.3501,5.3501,5.3501,5.3501,5.3501,5.3501,5.389,5.4634,5.5361,5.6088,5.685,5.7577,5.79,5.79,5.79,5.79,5.79,5.79,5.8026,5.8224,5.8437,5.8578,5.8701,0.0,0.0,0.0,0.0,0.0,0.0,0.0,0.7385,0.7446,0.7575,0.7608,0.768,0.7879,0.7908,0.7954,0.8087,0.0,0.0,0.0,0.0,0.0,0.0,0.0,0.0,0.0,0.0,1.0915,1.2391,1.2391,1.2731,1.3396,1.3413,1.3807,1.4499,0.0,0.0,0.0,0.0,0.0,0.0,0.0,0.0,0.0,0.0,0.0,0.0,0.0,0.0,0.0,0.0,0.0,0.0,0.0,2.1198,2.2945,2.5912,2.9607,3.3221,3.5429,3.8175,4.0561,4.1229,4.0346,3.9299,3.9299,3.7015,3.4684,3.3967,3.3801,3.3801,3.3817,3.4397,3.5131,3.5876,3.5413,3.6208,3.9895,3.9931,4.0695,4.3765,4.5616,4.7263,4.8868,5.1742,5.3501,5.3501,5.3501,5.3501,5.3501,5.3501,5.3501,5.3501,5.3501,5.3501,5.3501,5.3501,5.3501,5.3501,5.3501,5.389,5.4634,5.5361,5.6088,5.685,5.7577,5.79,5.79,5.79,5.79,5.79,5.79,5.8026,5.8224,5.8437,5.8508,5.8508,0.0,0.0,0.0,0.0,0.0,0.0,0.0,0.6786,0.6945,0.7396,0.7537,0.7665,0.7823,0.788,0.795,0.8084,0.0,0.0,0.0,0.0,0.0,0.0,0.0,0.0,0.0,0.0,1.0363,1.1364,1.1874,1.2419,1.2995,1.3137,1.3324,1.3536,1.3396,1.3625,0.0,0.0,0.0,0.0,0.0,0.0,1.5642,0.0,0.0,0.0,0.0,0.0,0.0,0.0,0.0,0.0,0.0,0.0,0.0,2.3749,2.6918,3.0582,3.3075,3.4795,3.5938,3.6141,3.5491,3.4923,3.5425,3.443,3.3337,3.3088,3.3453,3.3801,3.3801,3.4,3.4386,3.5131,3.5479,3.6241,3.7914,4.0219,4.2534,4.4664,4.8211,5.0915,5.1962,5.2942,5.3501,5.3501,5.3501,5.3501,5.3501,5.3501,5.3501,5.3501,5.3501,5.3501,5.3501,5.3501,5.3501,5.3501,5.3501,5.416,5.5361,5.5581,5.6393,5.756,5.7798,5.79,5.79,5.79,5.79,5.79,5.79,5.8116,5.8419,5.8472,5.8578,5.8701,0.0,0.0,0.0,0.0,0.0,0.0,0.0,0.6842,0.6976,0.7357,0.7469,0.7601,0.7775,0.783,0.793,0.808,0.0,0.0,0.0,0.0,0.0,0.0,0.0,0.0,0.0,0.9947,1.0638,1.1625,1.2082,1.2468,1.2794,1.2927,1.2993,1.2972,1.2862,1.2945,0.0,0.0,0.0,0.0,0.0,0.0,1.5344,0.0,0.0,0.0,0.0,0.0,0.0,0.0,0.0,0.0,0.0,0.0,0.0,0.0,2.5198,2.7928,3.0693,3.2597,3.3801,3.3801,3.3254,3.289,3.3635,3.2807,3.1951,3.2232,3.2862,3.3387,3.3387,3.3851,3.4381,3.4828,3.5512,3.6456,3.7748,4.0212,4.2829,4.5384,4.9117,5.1775,5.257,5.3162,5.3501,5.3501,5.3501,5.3501,5.3501,5.3501,5.3501,5.3501,5.3501,5.3501,5.3501,5.3501,5.3501,5.3501,5.3501,5.4262,5.5699,5.5699,5.6511,5.79,5.79,5.79,0.0,5.79,5.79,5.79,5.79,5.8152,5.8508,5.8508,5.8578,5.8683,0.0,0.0,0.0,0.0,0.0,0.0,0.0,0.0,0.0,0.7399,0.7399,0.7495,0.7753,0.7779,0.7866,0.8063,0.0,0.0,0.0,0.0,0.0,0.0,0.0,0.0,0.0,1.0817,1.1515,1.2699,1.2748,1.2773,1.2763,1.2778,1.2782,1.2782,1.2752,1.2763,0.0,0.0,0.0,0.0,0.0,0.0,0.0,0.0,0.0,0.0,0.0,0.0,0.0,0.0,0.0,0.0,0.0,0.0,0.0,0.0,0.0,0.0,0.0,3.1162,3.3271,3.3271,3.2823,3.2575,3.3254,3.1951,0.0,3.1399,3.2199,3.2757,3.2707,3.3917,3.4899,3.4899,3.5512,3.6771,3.9,4.0257,4.2342,4.6039,4.8763,5.0574,5.1133,5.2588,5.3501,5.3501,5.3501,5.3501,5.3501,5.3501,5.3501,5.3501,5.3501,5.3501,5.3501,5.3501,5.3501,5.3501,5.3501,5.4262,5.5699,5.5699,5.6511,5.79,5.79,5.79,5.79,5.79,5.79,5.79,5.79,5.8152,5.8508,5.8508,5.8508,5.8508,0.0,0.0,0.0,0.0,0.0,0.0,0.0,0.0,0.0,0.0,0.7399,0.7461,0.7635,0.765,0.7724,0.0,0.0,0.0,0.0,0.0,0.0,0.0,0.0,0.0,0.0,1.072,1.1379,1.1728,1.2296,1.2483,1.2343,1.2499,1.2568,1.2563,1.2414,1.2343,0.0,0.0,0.0,0.0,0.0,0.0,0.0,0.0,0.0,0.0,1.648,1.713,0.0,0.0,0.0,0.0,0.0,0.0,0.0,0.0,2.4375,2.52,2.6578,0.0,2.7992,2.7992,2.8698,2.9453,0.0,3.0543,3.1234,3.0837,3.2238,3.337,3.2807,3.3917,3.4899,3.4899,3.5512,3.6771,3.9,4.3512,4.6995,4.8085,5.0868,5.2317,5.1302,5.2588,5.3501,5.3501,5.3501,5.3501,5.3501,5.3501,5.3501,5.3501,5.3501,5.3501,5.3501,5.3501,5.3501,5.3501,5.3501,5.4262,5.5699,5.5699,5.6511,5.79,5.79,5.79,5.79,5.79,5.79,5.79,5.79,5.8152,5.8508,5.8508,5.8508,5.8508,0.0,0.0,0.0,0.0,0.0,0.0,0.0,0.0,0.0,0.0,0.0,0.0,0.0,0.0,0.0,0.0,0.0,0.0,0.0,0.0,0.0,0.0,0.0,0.0,1.031,1.0968,1.1457,1.1771,1.2166,1.2313,1.2205,1.2303,1.2353,1.2364,1.2257,1.2375,0.0,0.0,0.0,0.0,1.4704,0.0,0.0,0.0,0.0,0.0,1.6928,1.7586,0.0,1.9292,2.0099,2.0817,0.0,0.0,0.0,0.0,2.4628,2.5168,2.6383,2.6468,2.6277,2.6617,2.7564,2.8475,2.8797,3.0019,3.0986,3.0572,3.2,3.3171,3.2774,3.4733,3.6075,3.5065,3.7201,3.9507,4.1061,4.4514,4.7329,4.8525,5.0551,5.1947,5.2232,5.301,5.3501,5.3501,5.3501,5.3501,5.3501,5.3501,5.3501,5.3501,5.3501,5.3501,5.3501,5.3501,5.3501,5.3501,5.3501,5.4262,5.5699,5.5699,5.6511,5.79,5.79,5.79,5.79,5.79,5.79,5.79,5.79,5.8152,5.849,5.8401,5.8419,5.849,0.0,0.0,0.0,0.0,0.0,0.0,0.0,0.0,0.0,0.0,0.0,0.0,0.0,0.0,0.0,0.0,0.0,0.0,0.0,0.0,0.0,0.0,0.0,1.0053,1.1233,1.1377,1.1689,1.2205,1.2205,1.2205,1.2205,1.2205,1.2246,1.2359,1.2462,1.2816,0.0,0.0,1.4084,1.5015,1.5113,0.0,0.0,0.0,0.0,0.0,0.0,0.0,0.0,2.0279,2.0847,2.1191,2.2343,0.0,0.0,0.0,0.0,0.0,2.6803,2.711,2.7105,2.7398,2.8011,2.8698,2.9274,2.997,3.0522,3.0638,3.1752,3.284,3.3287,3.5744,3.7189,3.5644,3.9292,4.2719,4.3779,4.5053,4.6519,4.8283,4.9647,5.1172,5.2976,5.3365,5.3501,5.3501,5.3501,5.3501,5.3501,5.3501,5.3501,5.3501,5.3501,5.3501,5.3501,5.3501,5.3501,5.3501,5.3501,5.4262,5.5699,5.5699,5.6511,5.79,5.79,5.79,5.79,5.79,5.79,5.79,5.79,5.8134,5.8437,5.826,5.8295,5.8437,0.0,0.0,0.0,0.0,0.0,0.0,0.0,0.0,0.0,0.0,0.0,0.0,0.0,0.0,0.0,0.0,0.0,0.0,0.0,0.0,0.0,0.0,1.0505,1.0917,1.1137,1.1732,1.2107,1.2205,1.2205,1.2205,1.2205,1.2205,1.2493,1.3072,1.3642,1.3944,1.4077,1.4646,1.4934,1.5052,1.561,0.0,0.0,0.0,0.0,0.0,0.0,0.0,0.0,2.0443,2.1455,2.2433,2.2643,0.0,0.0,0.0,0.0,0.0,2.6545,2.8693,3.0357,2.8658,2.8738,2.9274,2.9373,2.997,3.0671,3.13,3.2116,3.3469,3.5959,3.5876,3.5909,3.7437,3.9871,4.2471,4.5102,4.7976,4.9505,4.8617,5.1141,5.2571,5.1641,5.2723,5.3501,5.3501,5.3501,5.3501,5.3501,5.3501,5.3501,5.3501,5.3501,5.3501,5.3501,5.3501,5.3501,5.3501,5.3501,5.4262,5.5699,5.5699,5.6511,5.79,5.79,5.79,5.79,5.79,5.79,5.79,5.79,5.8027,5.8242,5.8206,5.8224,5.8224,0.0,0.0,0.0,0.0,0.0,0.0,0.0,0.0,0.0,0.0,0.0,0.0,0.0,0.0,0.0,0.0,0.0,0.0,0.0,0.0,0.0,1.0611,1.1328,1.1697,1.1697,1.203,1.2205,1.2205,1.2205,1.239,1.2754,1.3103,1.3457,1.3744,1.4067,1.44,1.4769,1.507,1.5349,1.5621,0.0,0.0,0.0,0.0,0.0,0.0,0.0,0.0,0.0,0.0,2.1884,2.2763,2.3082,0.0,0.0,0.0,0.0,0.0,2.7415,2.9042,3.0566,3.1166,3.215,3.3088,3.356,3.3868,3.395,3.3577,3.4013,3.5015,3.6787,3.7818,3.9537,4.2934,4.2653,4.3061,4.6136,4.7174,4.8033,4.913,5.0619,5.1779,5.2385,5.3078,5.3501,5.3501,5.3501,5.3501,5.3501,5.3501,5.3501,5.3501,5.3501,5.3501,5.3501,5.3501,5.3501,5.3501,5.3501,5.4059,5.5124,5.5513,5.6274,5.7323,5.7729,5.79,5.79,5.79,5.79,5.79,5.79,5.8026,5.8206,5.8206,5.8134,5.8009,0.0,0.0,0.0,0.0,0.0,0.0,0.0,0.0,0.0,0.0,0.0,0.0,0.0,0.0,0.0,0.0,0.0,0.0,0.0,0.0,1.0411,1.1025,1.1734,1.2148,1.2205,1.2205,1.2205,1.2205,1.2359,1.2785,1.3457,1.4123,1.443,1.443,1.46,1.4947,1.5433,1.5433,1.5698,1.6095,0.0,0.0,0.0,0.0,0.0,0.0,0.0,0.0,0.0,0.0,0.0,0.0,0.0,0.0,0.0,2.4822,2.5668,2.6592,2.8142,2.9482,3.0963,3.3238,3.4253,3.5167,3.6891,3.68,3.6228,3.5949,3.6376,3.7036,3.7731,3.9818,4.2504,4.5898,4.4569,4.4163,4.7276,4.6954,4.7411,5.0098,5.0601,5.1459,5.3315,5.3501,5.3501,5.3501,5.3501,5.3501,5.3501,5.3501,5.3501,5.3501,5.3501,5.3501,5.3501,5.3501,5.3501,5.3501,5.3501,5.389,5.4634,5.5361,5.6088,5.685,5.7577,5.79,5.79,5.79,5.79,5.79,5.79,5.7991,5.8134,5.8134,5.8044,5.79,0.0,0.0,0.0,0.0,0.0,0.0,0.0,0.0,0.0,0.0,0.0,0.0,0.0,0.0,0.0,0.0,0.0,0.0,0.0,0.0,1.0658,1.0896,1.1565,1.2007,1.2205,1.2205,1.2205,1.2205,1.2816,1.3467,1.4144,1.4815,1.5138,1.5153,1.5777,1.6078,1.6124,1.6124,1.6127,1.6095,1.6088,0.0,0.0,0.0,0.0,0.0,0.0,0.0,0.0,0.0,0.0,0.0,0.0,0.0,2.3729,2.444,2.5782,2.7195,2.794,3.0758,3.3524,3.3751,3.2348,3.2022,3.632,3.5604,3.4814,3.759,3.8744,3.9438,4.0041,4.0845,4.1494,4.1825,4.3529,4.5861,4.8826,5.0006,5.0907,5.1832,5.2707,5.3315,5.3484,5.3501,5.3501,5.3501,5.3501,5.3501,5.3501,5.3501,5.3501,5.3501,5.3501,5.3501,5.3501,5.3501,5.3501,5.3501,5.3501,5.389,5.4634,5.5361,5.6088,5.685,5.7577,5.79,5.79,5.79,5.79,5.79,5.79,5.7917,5.7918,5.7918,5.79,5.79,0.0,0.0,0.0,0.0,0.0,0.0,0.0,0.0,0.0,0.0,0.0,0.0,0.0,0.0,0.0,0.0,0.0,0.0,0.0,0.0,1.0855,1.1317,1.1823,1.2054,1.2012,1.2138,1.24,1.2816,1.3913,1.4569,1.4846,1.5516,1.5817,1.5832,1.6094,1.6201,1.6201,1.6201,1.6194,1.6197,1.6568,1.6868,0.0,0.0,0.0,0.0,0.0,0.0,0.0,0.0,2.3166,2.3606,2.3707,2.3867,2.4186,2.498,2.6286,2.7656,2.8491,3.1263,3.3899,3.3824,3.3239,3.3867,3.8442,3.8656,3.814,3.9022,4.0448,4.148,4.1244,4.3626,4.5143,4.3693,4.5546,4.7885,4.9924,5.0675,5.1478,5.2808,5.3281,5.3501,5.3501,5.3501,5.3501,5.3501,5.3501,5.3501,5.3501,5.3501,5.3501,5.3501,5.3501,5.3501,5.3501,5.3501,5.3501,5.3501,5.3501,5.3653,5.3957,5.5141,5.5851,5.6172,5.7374,5.79,5.79,5.79,5.79,5.79,5.79,5.79,5.79,5.79,5.79,5.79,0.0,0.0,0.0,0.0,0.0,0.0,0.0,0.0,0.0,0.0,0.0,0.0,0.0,0.0,0.0,0.0,0.0,0.0,1.0272,1.0637,1.1041,1.1518,1.2038,1.2284,1.2218,1.2621,1.2955,1.3196,1.4538,1.5316,1.5531,1.5986,1.6201,1.6217,1.6409,1.6524,1.6524,1.6739,1.6824,1.687,1.7271,1.7586,0.0,0.0,0.0,0.0,0.0,0.0,0.0,0.0,2.3462,2.3739,2.3829,2.4083,2.4543,2.5572,2.7114,2.8745,3.0062,3.2016,3.3856,3.4748,3.4483,3.521,3.9806,4.0127,3.9761,4.091,4.2036,4.2808,4.2888,4.5238,4.668,4.5119,4.6966,4.9098,5.0591,5.0941,5.1661,5.3315,5.3501,5.3501,5.3501,5.3501,5.3501,5.3501,5.3501,5.3501,5.3501,5.3501,5.3501,5.3501,5.3501,5.3501,5.3501,5.3501,5.3501,5.3501,5.3501,5.3501,5.3551,5.4803,5.5479,5.5767,5.7019,5.7697,5.79,5.79,5.79,5.79,5.79,5.79,5.79,5.79,5.79,5.79,0.0,0.0,0.0,0.0,0.0,0.0,0.0,0.0,0.0,0.0,0.0,0.0,0.0,0.0,0.0,0.0,0.0,0.0,1.0213,1.0765,1.1198,1.1387,1.2165,1.2695,1.2891,1.3763,1.3883,1.3226,1.456,1.5547,1.6201,1.6201,1.6201,1.6232,1.6901,1.7208,1.7254,1.793,1.8199,1.8199,1.8199,1.8646,1.9379,0.0,0.0,0.0,0.0,0.0,0.0,0.0,2.4114,2.4003,2.4003,2.4198,2.4679,2.6089,2.8205,3.0549,3.2691,3.3118,3.3673,3.6705,3.5741,3.5283,3.9942,3.91,3.8655,4.3345,4.3528,4.3347,4.517,4.525,4.507,4.5169,4.7229,4.9307,5.0788,5.1121,5.1759,5.3331,5.3501,5.3501,5.3501,5.3501,5.3501,5.3501,5.3501,5.3501,5.3501,5.3501,5.3501,5.3501,5.3501,5.3501,5.3501,5.3501,5.3501,5.3501,5.3501,5.3501,5.3534,5.4262,5.5006,5.5733,5.6477,5.7222,5.79,5.79,5.79,5.79,5.79,5.79,5.79,5.79,5.79,5.79,0.0,0.0,0.0,0.0,0.0,0.0,0.0,0.0,0.0,0.0,0.0,0.0,0.0,0.0,0.0,0.0,0.0,0.0,1.0807,1.1125,1.1273,1.1198,1.2106,1.2633,1.2695,1.4138,1.4815,1.4615,1.5485,1.6008,1.6201,1.6201,1.6447,1.6916,1.7116,1.7469,1.793,1.8122,1.8199,1.8253,1.8761,1.9386,2.0088,0.0,0.0,0.0,0.0,0.0,0.0,0.0,0.0,0.0,2.4114,2.4528,2.5187,2.6312,2.7829,2.939,3.0642,3.3569,3.6071,3.524,3.7002,3.9295,4.0675,4.0277,4.0778,4.4878,4.4633,4.408,4.5269,4.6688,4.7134,4.5466,4.7304,4.9416,5.0805,5.1121,5.1759,5.3331,5.3501,5.3501,5.3501,5.3501,5.3501,5.3501,5.3501,5.3501,5.3501,5.3501,5.3501,5.3501,5.3501,5.3501,5.3501,5.3501,5.3501,5.3501,5.3501,5.3501,5.3534,5.4262,5.5006,5.5733,5.6477,5.7222,5.79,5.79,5.79,5.79,5.79,5.79,5.79,5.79,5.79,5.79,0.0,0.0,0.0,0.0,0.0,0.0,0.0,0.0,0.0,0.0,0.0,0.0,0.0,0.0,0.0,0.0,0.0,0.0,0.0,1.1215,1.1326,1.1442,1.2374,1.3205,1.3908,1.4948,1.5528,1.5608,1.6001,1.6201,1.6208,1.6471,1.6809,1.7224,1.7777,1.8261,1.8646,1.8915,1.9022,1.9076,1.9525,2.0104,2.0773,0.0,0.0,0.0,0.0,0.0,0.0,0.0,0.0,0.0,2.4203,2.4781,2.5772,2.7439,2.8824,3.0428,3.3183,3.5561,3.7417,3.8056,3.9623,4.124,4.2102,4.2474,4.3359,4.595,4.5956,4.5786,4.6722,4.7954,4.8347,4.6954,4.8,4.9494,5.0869,5.1136,5.1759,5.3331,5.3501,5.3501,5.3501,5.3501,5.3501,5.3501,5.3501,5.3501,5.3501,5.3501,5.3501,5.3501,5.3501,5.3501,5.3501,5.3501,5.3501,5.3501,5.3501,5.3501,5.3518,5.3957,5.4566,5.5327,5.6359,5.7222,5.79,5.79,5.79,5.79,5.79,5.79,5.79,5.79,5.79,5.79,0.0,0.0,0.0,0.0,0.0,0.0,0.0,0.0,0.0,0.0,0.0,0.0,0.0,0.0,0.0,0.0,0.0,0.0,0.0,0.0,1.1456,1.2062,1.2944,1.4193,1.5834,1.5914,1.6012,1.6201,1.6201,1.6232,1.6293,1.6916,1.727,1.7446,1.8739,1.9333,1.9434,2.0042,2.0296,2.0304,2.0366,2.0789,2.1458,2.2141,0.0,0.0,0.0,0.0,0.0,0.0,0.0,0.0,2.4292,2.4994,2.6314,2.8877,3.0522,3.2652,3.7959,3.8199,3.8106,4.3037,4.2797,4.1859,4.3839,4.5081,4.5976,4.6636,4.7226,4.7907,4.8835,4.8894,4.8863,4.897,4.9001,4.9526,5.0998,5.1201,5.1759,5.3331,5.3501,5.3501,5.3501,5.3501,5.3501,5.3501,5.3501,5.3501,5.3501,5.3501,5.3501,5.3501,5.3501,5.3501,5.3501,5.3501,5.3501,5.3501,5.3501,5.3501,5.3501,5.3501,5.394,5.4769,5.619,5.7222,5.79,5.79,5.79,5.79,5.79,5.79,5.79,5.79,5.79,5.79,0.0,0.0,0.0,0.0,0.0,0.0,0.0,0.0,0.0,0.0,0.0,0.0,0.0,0.0,0.0,0.0,0.0,0.0,0.0,0.0,1.2097,1.2763,1.3775,1.4718,1.5573,1.5956,1.6159,1.6201,1.6201,1.6471,1.6993,1.7131,1.78,1.8862,1.9163,1.958,2.0095,2.0243,2.0296,2.0342,2.0872,2.1488,2.2157,2.2834,2.3502,0.0,0.0,0.0,0.0,0.0,0.0,0.0,2.4292,2.503,2.6202,2.7773,2.9821,3.217,3.4852,3.7433,3.9745,4.1373,4.2814,4.3922,4.4237,4.5484,4.657,4.6555,4.7226,4.8061,4.8851,4.8987,4.8972,4.8986,4.9001,4.9526,5.0998,5.1201,5.1759,5.3331,5.3501,5.3501,5.3501,5.3501,5.3501,5.3501,5.3501,5.3501,5.3501,5.3501,5.3501,5.3501,5.3501,5.3501,5.3501,5.3501,5.3501,5.3501,5.3501,5.3501,5.3501,5.3501,5.4228,5.5513,5.641,5.7222,5.79,5.79,5.79,5.79,5.79,5.79,5.79,5.79,5.79,5.79,0.0,0.0,0.0,0.0,0.0,0.0,0.0,0.0,0.0,0.0,0.0,0.0,0.0,0.0,0.0,0.0,0.0,0.0,0.0,0.0,1.2756,1.3396,1.4249,1.4943,1.5492,1.574,1.6128,1.6678,1.6678,1.6855,1.7208,1.7892,1.8608,1.9326,1.998,2.045,2.0804,2.1119,2.1257,2.1288,2.1642,2.2172,2.2819,2.3173,2.3717,2.4292,2.4292,0.0,0.0,0.0,0.0,0.0,0.0,0.0,2.6876,2.8142,2.9567,3.1627,3.5692,3.7898,3.9648,4.2118,4.368,4.457,4.4468,4.5677,4.6771,4.6665,4.7588,4.8529,4.8934,4.9001,4.9001,4.9001,4.9001,4.9526,5.0998,5.1201,5.1759,5.3331,5.3501,5.3501,5.3501,5.3501,5.3501,5.3501,5.3501,5.3501,5.3501,5.3501,5.3501,5.3501,5.3501,5.3501,5.3501,5.3501,5.3501,5.3501,5.3501,5.3501,5.3501,5.3501,5.4295,5.5716,5.6105,5.6884,5.79,5.79,5.79,5.79,5.79,5.79,5.79,5.79,5.79,5.79,0.0,0.0,0.0,0.0,0.0,0.0,0.0,0.0,0.0,0.0,0.0,0.0,0.0,0.0,0.0,0.0,0.0,0.0,0.0,0.0,0.0,1.4029,1.4587,1.5064,1.5485,1.5558,1.6098,1.7208,1.7345,1.7553,1.7807,1.8832,1.9425,1.9688,2.0804,2.1365,2.1504,2.2064,2.2295,2.2311,2.2434,2.2803,2.3302,2.3425,2.3825,2.4317,2.443,2.483,2.5296,2.5296,0.0,0.0,0.0,0.0,2.7462,2.8733,2.9608,3.139,3.6932,3.8451,3.9462,4.3569,4.4615,4.4584,4.4556,4.572,4.6786,4.6756,4.7954,4.9001,4.9001,4.9001,4.9001,4.9001,4.9001,4.9459,5.0812,5.1116,5.1708,5.3129,5.3416,5.3501,5.3501,5.3501,5.3501,5.3501,5.3501,5.3501,5.3501,5.3501,5.3501,5.3501,5.3501,5.3501,5.3501,5.3501,5.3501,5.3501,5.3501,5.3501,5.3501,5.3501,5.4245,5.5513,5.5631,5.646,5.773,5.7849,5.79,5.79,5.79,5.79,5.79,5.79,5.79,5.79,0.0,0.0,0.0,0.0,0.0,0.0,0.0,0.0,0.0,0.0,0.0,0.0,0.0,0.0,0.0,0.0,0.0,0.0,1.3607,0.0,0.0,1.4682,1.4982,1.5261,1.5485,1.5734,1.6296,1.7208,1.795,1.8944,2.0138,1.9569,1.9919,2.1051,2.1227,2.1627,2.2172,2.2265,2.2295,2.2342,2.2932,2.3225,2.3363,2.3948,2.4215,2.4369,2.4969,2.5219,2.5296,2.5296,2.5369,0.0,0.0,0.0,2.6766,2.7917,2.9902,3.2118,3.4029,3.7596,4.1373,4.3958,4.4615,4.4556,4.4381,4.5616,4.6756,4.6574,4.7847,4.9001,4.9001,4.9001,4.9001,4.9001,4.9001,4.9289,5.0118,5.0811,5.1505,5.2367,5.3078,5.3501,5.3501,5.3501,5.3501,5.3501,5.3501,5.3501,5.3501,5.3501,5.3501,5.3501,5.3501,5.3501,5.3501,5.3501,5.3501,5.3501,5.3501,5.3501,5.3501,5.3501,5.3957,5.4769,5.5411,5.6172,5.7002,5.7628,5.79,5.79,5.79,5.79,5.79,5.79,5.79,5.79,0.0,0.0,0.0,0.0,0.0,0.0,0.0,0.0,0.0,0.0,0.0,0.0,0.0,0.0,0.0,1.2559,1.3136,1.3755,1.4359,1.4654,1.48,1.48,1.4909,1.5321,1.6038,1.6181,1.6985,1.8493,1.9287,2.0162,0.0,2.1252,2.1568,2.204,2.2296,2.2588,2.2871,2.3255,2.3425,2.3456,2.3748,2.4564,2.5533,0.0,0.0,0.0,0.0,2.6164,2.6488,2.6488,2.6488,2.6517,2.6787,0.0,0.0,0.0,2.9543,3.188,3.5206,3.8587,4.1745,4.4025,4.4615,4.457,4.4483,4.5677,4.6771,4.668,4.7924,4.9001,4.9001,4.9001,4.9001,4.9001,4.9001,4.9255,4.9998,5.0371,5.1014,5.2164,5.2604,5.301,5.3467,5.3501,5.3501,5.3501,5.3501,5.3501,5.3501,5.3501,5.3501,5.3501,5.3501,5.3501,5.3501,5.3501,5.3501,5.3501,5.3501,5.3501,5.3501,5.3501,5.3907,5.4634,5.5378,5.6122,5.6867,5.7612,5.79,5.79,5.79,5.79,5.79,5.79,5.79,5.79,0.0,0.0,0.0,0.0,0.0,0.0,0.0,0.0,0.0,0.0,0.0,0.0,0.0,0.0,0.0,0.0,1.3783,1.4324,1.478,1.48,1.48,1.48,1.4955,1.549,1.6481,1.6698,1.7778,1.9771,2.0353,2.1194,2.2223,2.2862,2.3099,2.3017,2.308,2.3358,2.3748,2.4003,2.422,2.4431,2.504,2.6187,2.7458,0.0,0.0,0.0,0.0,2.7612,2.7976,2.7538,2.7396,2.745,2.782,2.7917,0.0,0.0,0.0,3.1344,3.6048,3.8384,4.0223,4.3264,4.3873,4.389,4.4465,4.5734,4.68,4.68,4.797,4.9001,4.9001,4.9001,4.9001,4.9001,4.9001,4.9187,4.9729,4.9965,5.0523,5.1606,5.208,5.2536,5.3145,5.3382,5.3501,5.3501,5.3501,5.3501,5.3501,5.3501,5.3501,5.3501,5.3501,5.3501,5.3501,5.3501,5.3501,5.3501,5.3501,5.3501,5.3501,5.3501,5.3805,5.4363,5.5293,5.6003,5.6596,5.7509,5.79,5.79,5.79,5.79,5.79,5.79,5.79,5.79,0.0,0.0,0.0,0.0,0.0,0.0,0.0,0.0,0.0,0.0,0.0,0.0,1.2995,1.3509,1.3853,1.3853,1.4401,1.478,1.48,1.48,1.48,1.48,1.5354,0.0,1.6495,1.7247,1.8589,2.0539,2.0704,2.194,2.4161,2.3938,2.3935,2.4078,2.3082,2.3481,2.4861,2.4006,2.3997,2.4781,2.7082,2.7906,2.8015,3.0244,3.1148,3.1112,3.0094,2.9737,2.9533,2.7945,2.7396,2.7407,2.7431,2.7442,2.7566,0.0,0.0,0.0,3.4662,3.5289,3.6073,4.1149,4.188,4.1948,4.411,4.5734,4.68,4.68,4.797,4.9001,4.9001,4.9001,4.9001,4.9001,4.9001,4.9018,4.9052,4.9661,5.0133,5.0218,5.1454,5.2317,5.2367,5.3061,5.3501,5.3501,5.3501,5.3501,5.3501,5.3501,5.3501,5.3501,5.3501,5.3501,5.3501,5.3501,5.3501,5.3501,5.3501,5.3501,5.3501,5.3501,5.3518,5.3653,5.5073,5.5716,5.5868,5.7306,5.79,5.79,5.79,5.79,5.79,5.79,5.79,5.79,0.0,0.0,0.0,0.0,0.0,0.0,0.0,0.0,0.0,0.0,0.0,0.0,0.0,1.4352,1.4485,1.4485,1.4682,1.48,1.48,1.48,1.48,1.48,1.5176,1.5994,1.731,1.7787,1.8981,2.0909,2.1411,2.2067,2.2903,2.3405,2.3586,2.3496,2.344,2.3746,2.4283,2.4257,2.4656,2.5493,2.7758,2.9363,3.0451,3.0587,3.1893,3.3419,3.1775,3.0763,3.0132,2.9576,2.851,2.7454,2.7752,2.785,2.8104,2.9375,2.9772,3.056,3.3973,3.5053,3.6,3.9343,4.1052,4.213,4.2943,4.5024,4.68,4.68,4.797,4.9001,4.9001,4.9001,4.9001,4.9001,4.9001,4.9001,4.9001,4.9221,4.956,5.0049,5.098,5.1776,5.2249,5.3027,5.3501,5.3501,5.3501,5.3501,5.3501,5.3501,5.3501,5.3501,5.3501,5.3501,5.3501,5.3501,5.3501,5.3501,5.3501,5.3501,5.3501,5.3501,5.3501,5.3568,5.4566,5.526,5.5783,5.6782,5.7459,5.79,5.79,5.79,5.79,5.79,5.79,5.79,0.0,0.0,0.0,0.0,0.0,0.0,0.0,0.0,0.0,0.0,0.0,0.0,0.0,0.0,1.48,1.48,1.48,1.4885,1.5095,1.5213,1.5361,1.5558,1.6037,1.6923,1.8243,1.8705,1.9757,2.1439,2.1878,2.2264,2.2573,2.3115,2.3323,2.3244,2.3608,2.3897,2.4133,2.4552,2.5194,2.6167,2.9168,3.075,3.1404,3.2063,3.3178,3.4235,3.3039,3.218,3.1643,3.1811,3.0969,2.9753,2.937,2.886,2.8675,2.9907,3.0161,3.0575,3.3075,3.4117,3.5098,3.763,3.9372,4.0777,4.2029,4.4245,4.6208,4.6699,4.797,4.9001,4.9001,4.9001,4.9001,4.9001,4.9001,4.9001,4.9001,4.9001,4.9203,4.9739,5.0624,5.1419,5.1975,5.2925,5.3501,5.3501,5.3501,5.3501,5.3501,5.3501,5.3501,5.3501,5.3501,5.3501,5.3501,5.3501,5.3501,5.3501,5.3501,5.3501,5.3501,5.3501,5.3501,5.3534,5.4008,5.4786,5.5767,5.6511,5.7222,5.79,5.79,5.79,5.79,5.79,5.79,5.79,0.0,0.0,0.0,0.0,0.0,0.0,0.0,0.0,0.0,1.3143,0.0,0.0,0.0,0.0,0.0,1.4858,1.4864,1.5103,1.5699,1.6045,1.6504,1.7086,1.8009,1.8719,1.9197,1.9995,2.0936,2.207,2.207,2.2549,2.3431,2.3164,2.3198,2.3472,2.3488,2.3869,2.4513,2.4885,2.5542,2.6769,3.1442,3.2107,3.0772,3.4919,3.5282,3.3624,3.3991,3.4065,3.4053,3.4512,3.4562,3.4073,3.2064,3.035,2.9189,2.9661,3.0129,3.0767,0.0,0.0,0.0,3.5966,3.6778,3.7765,4.1352,4.3433,4.5007,4.6445,4.7936,4.9001,4.9001,4.9001,4.9001,4.9001,4.9001,4.9001,4.9001,4.9001,4.9048,4.9184,5.0366,5.1249,5.1457,5.2686,5.3484,5.3501,5.3501,5.3501,5.3501,5.3501,5.3501,5.3501,5.3501,5.3501,5.3501,5.3501,5.3501,5.3501,5.3501,5.3501,5.3501,5.3501,5.3501,5.3501,5.3501,5.4312,5.5716,5.646,5.7205,5.79,5.79,5.79,5.79,5.79,5.79,5.79,0.0,0.0,0.0,0.0,0.0,0.0,0.0,0.0,0.0,0.0,0.0,0.0,0.0,0.0,1.6287,1.6382,1.6295,1.6358,1.6616,1.6951,1.7215,1.7384,1.806,1.8771,1.9554,1.9917,2.056,2.1512,2.1512,2.1658,2.19,2.1835,2.2118,2.2726,2.3253,2.3869,2.4554,2.5528,2.6673,2.8153,3.2084,3.3492,3.349,3.5878,3.7124,3.7548,3.713,3.545,3.3695,3.5511,3.356,3.0326,2.9897,2.946,0.0,2.9661,0.0,0.0,3.1328,0.0,0.0,0.0,0.0,0.0,3.8886,4.1961,4.4733,4.5125,4.724,4.9001,4.9001,4.9001,4.9001,4.9001,4.9001,4.9001,4.9001,4.9001,4.9017,4.9048,4.9862,5.0641,5.1231,5.2227,5.3025,5.3467,5.3601,5.3601,5.3501,5.3501,5.3501,5.3501,5.3501,5.3501,5.3501,5.3501,5.3501,5.3501,5.3501,5.3501,5.3501,5.3501,5.3501,5.3501,5.3501,5.4025,5.4955,5.5699,5.6748,5.79,5.79,5.79,5.79,5.79,5.79,5.79,0.0,0.0,0.0,0.0,0.0,0.0,0.0,0.0,0.0,0.0,0.0,0.0,0.0,0.0,1.6356,1.6188,1.6447,1.6803,1.7183,1.7764,1.8275,1.8687,1.9152,1.9681,2.0273,2.0408,2.0741,2.1293,2.1293,2.1463,2.1754,2.1754,2.2297,2.3293,2.3723,2.4484,2.547,2.6166,2.7097,2.8447,3.228,3.3705,3.3748,3.631,3.7282,3.7343,3.7812,3.6915,3.5844,3.8126,3.5703,3.1772,3.2082,3.0907,2.9483,2.9957,0.0,0.0,0.0,0.0,0.0,3.3778,0.0,0.0,3.8531,4.1318,4.3992,4.5261,4.7361,4.9001,4.9001,4.9001,4.9001,4.9001,4.9001,4.9001,4.9001,4.9001,4.9017,4.9078,4.9691,5.042,5.1246,5.2024,5.2754,5.345,5.3568,5.3568,5.3501,5.3501,5.3501,5.3501,5.3501,5.3501,5.3501,5.3501,5.3501,5.3501,5.3501,5.3501,5.3501,5.3501,5.3501,5.3501,5.3501,5.3923,5.4651,5.5395,5.6375,5.7459,5.7781,5.79,5.79,5.79,5.79,5.79,0.0,0.0,0.0,0.0,0.0,0.0,0.0,0.0,0.0,0.0,1.5189,1.5286,0.0,0.0,0.0,0.0,1.6327,1.7128,1.7877,1.8745,1.9655,2.0631,2.0949,2.118,2.1351,2.1376,2.1424,2.1536,2.1536,2.1884,2.2531,2.2531,2.3228,2.4491,2.4491,0.0,2.6571,2.6571,2.7135,2.8347,3.2111,3.3149,3.284,3.6449,3.6822,3.5666,3.7585,3.8505,3.9073,4.0886,3.9161,3.6253,3.6226,3.3653,3.062,3.0525,3.1005,0.0,0.0,0.0,0.0,3.4201,3.4985,0.0,3.8882,4.0743,4.2689,4.5379,4.7175,4.8274,4.836,4.8376,4.8409,4.8494,4.8646,4.8815,4.8984,4.9001,4.9048,4.9168,4.9637,5.0367,5.1374,5.1923,5.257,5.345,5.3501,5.3501,5.3501,5.3501,5.3501,5.3501,5.3501,5.3501,5.3501,5.3501,5.3501,5.3501,5.3501,5.3501,5.3501,5.3501,5.3501,5.3501,5.3501,5.3873,5.4532,5.5361,5.6122,5.6867,5.7612,5.79,5.79,5.79,5.79,5.79,0.0,0.0,0.0,0.0,0.0,0.0,0.0,0.0,0.0,1.6005,1.6389,1.7121,0.0,0.0,0.0,0.0,1.9302,1.9702,2.0505,2.0975,2.1591,2.2379,2.2768,2.2998,2.3032,2.3032,2.3041,2.3075,2.3075,2.3139,2.3294,2.3294,2.3723,2.4491,2.4491,2.4984,2.5807,2.5807,2.7427,3.0077,3.1363,3.2685,3.4197,3.6924,3.9046,4.0612,4.103,4.0458,3.937,3.8511,3.8654,3.8634,3.5477,3.5153,3.5198,3.1574,3.2087,3.3637,3.2581,3.2841,3.3429,3.3582,3.4613,0.0,3.5588,3.7697,3.98,4.0405,4.2181,4.3792,4.437,4.4488,4.4691,4.5345,4.6462,4.7631,4.8832,4.9001,4.9001,4.9032,4.9135,4.9761,5.1131,5.1497,5.2175,5.3399,5.3501,5.3501,5.3501,5.3501,5.3501,5.3501,5.3501,5.3501,5.3501,5.3501,5.3501,5.3501,5.3501,5.3501,5.3501,5.3501,5.3501,5.3501,5.3501,5.3585,5.3822,5.5141,5.6122,5.6867,5.7612,5.79,5.79,5.79,5.79,5.79,0.0,0.0,0.0,0.0,0.0,0.0,0.0,0.0,0.0,1.7155,1.7736,1.8299,0.0,0.0,0.0,0.0,0.0,0.0,0.0,2.1549,2.2052,2.2624,2.3199,2.3326,2.2953,2.3301,2.3504,2.3504,2.3504,2.3674,2.3998,2.3998,2.5047,2.6883,2.5753,2.608,2.7421,2.6274,2.6745,2.8487,3.1205,3.4102,3.7023,3.9187,4.1076,4.2603,4.2603,4.2332,4.1923,4.141,4.0144,3.8678,3.7995,3.6833,3.5273,3.3136,3.3335,3.4044,3.3104,3.2955,3.319,3.3793,3.4506,0.0,0.0,3.6518,3.8103,3.8848,4.0472,4.1863,4.2222,4.2594,4.298,4.3382,4.5041,4.6138,4.5806,4.7642,4.9017,4.9094,4.9048,4.9625,5.121,5.1346,5.1958,5.3382,5.3501,5.3501,5.3501,5.3501,5.3501,5.3501,5.3501,5.3501,5.3501,5.3501,5.3501,5.3501,5.3501,5.3501,5.3501,5.3501,5.3501,5.3501,5.3501,5.3501,5.3602,5.4702,5.5598,5.6358,5.7459,5.79,5.79,5.79,5.79,5.79,1.5349,0.0,0.0,0.0,0.0,0.0,0.0,0.0,0.0,1.8277,1.9315,0.0,0.0,2.0423,0.0,0.0,0.0,0.0,2.2004,2.2471,2.295,2.3405,2.348,2.3544,2.3624,2.3674,2.3755,2.3901,2.3901,2.4219,2.4783,2.4745,2.6178,2.876,2.7295,2.7462,2.8727,2.7318,2.7098,2.803,3.1937,3.5187,3.7921,4.0022,4.1586,4.2752,4.3388,4.4005,4.4514,4.4539,4.1831,3.8647,3.9871,3.8051,3.5244,3.4175,3.4241,3.4437,3.3467,3.2846,3.2735,3.3817,3.4178,3.4404,0.0,0.0,0.0,3.768,3.887,3.9737,3.9884,4.051,4.1064,4.1217,4.3132,4.4019,4.2283,4.5303,4.7827,4.811,4.8668,4.9537,5.0914,5.1193,5.1876,5.3399,5.3247,5.323,5.3501,5.3501,5.3501,5.3501,5.3501,5.3501,5.3501,5.3501,5.3501,5.3501,5.3501,5.3501,5.3501,5.3501,5.3501,5.3501,5.3501,5.3501,5.3568,5.4313,5.504,5.5834,5.7171,5.7781,5.79,5.79,5.79,5.79,1.6966,1.6917,0.0,0.0,0.0,0.0,0.0,0.0,0.0,1.9072,2.1381,2.3219,2.3748,2.6147,2.7953,2.8532,2.8682,2.7981,2.616,2.6102,2.6435,2.7063,2.4792,2.4938,2.8006,2.5642,2.4718,2.5364,2.5364,2.5519,2.5822,2.5582,2.593,2.6808,2.8322,2.8175,2.6851,2.8621,3.1075,3.3849,3.4402,3.3507,3.2207,3.5378,3.831,4.1116,4.4079,4.5203,4.497,4.2948,4.1889,4.0717,3.6734,3.7893,3.9535,3.3378,3.4168,3.6348,3.3258,3.2075,3.1859,3.24,3.3044,3.3372,3.2791,0.0,3.3829,3.3998,0.0,3.4489,3.5131,0.0,0.0,3.7308,3.93,4.0641,4.0409,4.1914,4.3396,4.4306,4.7136,4.9131,4.9437,5.0678,5.204,5.3399,5.2397,5.2244,5.3433,5.3501,5.3501,5.3501,5.3501,5.3501,5.3501,5.3501,5.3501,5.3501,5.3501,5.3501,5.3501,5.3501,5.3501,5.3501,5.3501,5.3501,5.3568,5.4313,5.504,5.5783,5.6613,5.7323,5.79,5.79,5.79,5.79,1.7818,1.8019,0.0,0.0,0.0,0.0,0.0,0.0,1.9972,2.0377,2.1471,2.2329,2.2612,2.3713,2.5243,2.7219,2.7397,2.7203,2.6733,2.7057,0.0,2.5318,2.4913,2.522,2.6273,2.5535,2.5283,2.5597,2.5759,2.589,2.5992,2.5881,2.6824,2.8635,2.9326,3.0022,3.0731,3.2106,3.2482,3.2307,3.437,3.3821,3.2425,3.8488,4.182,4.3486,4.4892,4.5397,4.5259,4.4255,4.2152,4.0028,4.0607,3.9383,3.7382,3.5698,3.5313,3.4968,3.287,3.2981,3.3467,3.2533,3.3581,3.4291,3.2151,3.1911,3.2121,3.2121,0.0,0.0,0.0,0.0,0.0,0.0,3.7714,3.9042,3.7785,4.0311,4.2681,4.3729,4.5044,4.6746,4.8978,5.1311,5.289,5.345,5.2975,5.2907,5.3467,5.3501,5.3501,5.3501,5.3501,5.3501,5.3501,5.3501,5.3501,5.3501,5.3501,5.3501,5.3501,5.3501,5.3501,5.3501,5.3501,5.3501,5.3568,5.4313,5.504,5.5767,5.6511,5.7256,5.79,5.79,5.79,5.79,1.8806,0.0,0.0,0.0,1.9493,0.0,0.0,2.0224,2.0751,2.1245,2.2167,2.279,2.279,2.4201,2.5985,2.8061,2.8795,2.9048,2.8752,2.8633,2.7983,2.6635,2.5584,2.5559,2.67,2.5795,2.5396,2.5597,2.5779,2.5972,2.6109,2.6028,2.7226,2.9415,2.9762,3.1133,3.3258,3.4415,3.4216,3.3365,3.5935,3.657,3.6521,4.1609,4.4324,4.5397,4.5397,4.5397,4.5311,4.4647,4.2216,3.9903,4.2486,4.0323,3.6988,3.7888,3.711,3.5535,3.3501,3.3898,3.441,3.2475,3.3314,3.4018,3.1711,3.12,3.12,3.12,3.1623,0.0,0.0,0.0,3.4252,3.4466,0.0,3.7523,3.596,3.8478,4.0849,4.1912,4.2781,4.4612,4.7931,5.0534,5.2163,5.2536,5.2807,5.3111,5.3484,5.3501,5.3501,5.3501,5.3501,5.3501,5.3501,5.3501,5.3501,5.3501,5.3501,5.3501,5.3501,5.3501,5.3501,5.3501,5.3501,5.3501,5.3568,5.4313,5.504,5.5767,5.6511,5.7256,5.79,5.79,5.79,5.79,2.024,1.9664,0.0,2.0143,2.0256,2.0475,2.1131,2.1245,2.1277,2.1293,2.4353,2.6532,2.6532,3.1572,3.493,3.49,3.691,3.6939,3.4048,3.1951,3.1862,3.4237,2.7424,2.632,3.2221,2.7212,2.4871,2.5597,2.5616,2.5881,2.6383,2.6127,2.6502,2.7473,2.9356,3.082,3.2015,3.4239,3.7267,4.056,4.0681,4.2445,4.4737,4.2458,4.3186,4.5397,4.5397,4.5397,4.5039,4.2788,4.1909,4.1403,3.9207,3.9975,4.1231,3.8956,3.9559,4.0036,3.5777,3.4334,3.3589,3.1705,3.1285,3.1319,3.1217,3.12,3.12,3.12,3.1217,3.1454,3.2175,3.2926,3.3677,0.0,3.5171,0.0,0.0,3.5718,3.6192,3.7194,4.0418,4.3403,4.5599,4.7293,4.88,5.01,5.1056,5.2125,5.3433,5.3501,5.3501,5.3501,5.3501,5.3501,5.3501,5.3501,5.3501,5.3501,5.3501,5.3501,5.3501,5.3501,5.3501,5.3501,5.3501,5.3501,5.3568,5.4313,5.504,5.5767,5.6511,5.7256,5.79,5.79,5.79,5.79,0.0,0.0,0.0,2.1002,2.0961,2.1204,2.1924,2.2037,2.2859,2.5162,2.6544,2.8007,2.9871,3.1838,3.3766,3.5622,3.6499,3.6446,3.5241,3.3361,3.2514,3.3026,2.78,2.6644,3.0402,2.7023,2.5347,2.5597,2.5963,2.6217,2.6401,2.6496,2.6808,2.7377,2.933,3.1633,3.4231,3.7001,3.8933,4.0158,4.0687,4.1797,4.3221,4.3842,4.4629,4.5397,4.5397,4.5397,4.5276,4.4475,4.3217,4.2081,4.2788,4.1474,3.98,4.0486,4.0016,3.8962,3.7473,3.8127,3.8308,3.4468,3.4732,3.5066,3.1917,3.12,3.12,3.12,3.1589,3.2005,3.2242,3.3298,0.0,0.0,0.0,3.56,0.0,3.6062,3.6705,3.7521,4.0947,4.3511,4.4234,4.7399,4.9622,5.0066,5.179,5.3009,5.3484,5.3501,5.3501,5.3501,5.3501,5.3501,5.3501,5.3501,5.3501,5.3501,5.3501,5.3501,5.3501,5.3501,5.3501,5.3501,5.3501,5.3501,5.3602,5.482,5.5462,5.5817,5.7053,5.7697,5.79,5.79,5.79,5.79,2.2118,2.2467,2.2564,2.1819,2.19,2.2248,2.2751,2.2924,2.4125,2.7263,2.7995,2.9244,3.1908,3.3154,3.451,3.63,3.7228,3.7171,3.5955,3.4997,3.4275,3.3852,3.0429,2.9757,3.2324,2.9005,2.7238,2.7238,2.6671,2.6453,2.6556,2.6708,2.7127,2.7747,2.8999,3.1951,3.6139,3.8088,4.0008,4.1773,4.2285,4.2785,4.3371,4.4828,4.491,4.429,4.5104,4.5397,4.5397,4.5397,4.4428,4.3475,4.4945,4.3343,4.124,4.2702,4.2034,4.0638,3.9808,4.0714,4.0961,3.6966,3.7342,3.7581,3.3389,3.2669,3.2866,3.2866,3.2601,3.3036,3.5239,3.5092,3.4981,0.0,0.0,3.5757,0.0,3.6705,3.7461,3.821,4.0451,4.2385,4.3423,4.6082,4.8376,4.9981,5.1454,5.2638,5.3467,5.3501,5.3501,5.3501,5.3501,5.3501,5.3501,5.3501,5.3501,5.3501,5.3501,5.3501,5.3501,5.3501,5.3501,5.3501,5.3501,5.3501,5.3619,5.509,5.5699,5.5851,5.7323,5.79,5.79,5.79,5.79,5.79,2.3547,2.3546,2.3351,2.2686,2.3108,2.3555,2.3632,2.405,2.5237,2.7783,2.9118,3.0731,3.3115,3.5921,3.7564,3.7375,3.9399,3.9489,3.6669,3.6899,3.7118,3.7036,3.5022,3.5128,3.7802,3.283,3.0228,3.0271,2.7676,2.6556,2.6791,2.6825,2.7382,2.8403,2.8403,3.1792,3.7502,3.7502,4.056,4.5397,4.5397,4.5328,4.5242,4.5363,4.3979,4.2297,4.4583,4.5397,4.5397,4.5397,4.5397,4.5397,4.5397,4.5397,4.5397,4.5397,4.5397,4.4919,4.2673,4.2063,4.1506,3.9139,3.907,3.8761,3.5695,3.5581,3.6138,3.6138,3.4446,3.4706,4.0461,3.8003,3.5971,0.0,0.0,0.0,3.6705,3.7432,3.8176,3.8916,3.9123,4.0273,4.2983,4.344,4.5334,4.9626,5.0067,5.1133,5.3382,5.3433,5.3433,5.3501,5.3501,5.3501,5.3501,5.3501,5.3501,5.3501,5.3501,5.3501,5.3501,5.3501,5.3501,5.3501,5.3501,5.3501,5.3619,5.509,5.5699,5.5851,5.7323,5.79,5.79,5.79,5.79,5.79,2.4105,2.4297,2.4575,2.4943,2.4289,2.3905,2.4405,2.6271,2.8776,3.2053,3.4457,3.6894,3.9593,4.0577,4.1024,4.0958,4.1513,4.1452,4.0499,3.8811,3.8604,4.0279,3.6215,3.5381,3.8544,3.3098,3.0485,3.1085,2.8141,2.6724,2.6816,2.7055,2.7614,2.8403,2.8403,3.1792,3.7502,3.7502,4.056,4.5397,4.5397,4.4376,4.3061,4.4755,4.3979,4.2297,4.4583,4.5397,4.5397,4.5397,4.5397,4.5397,4.5397,4.5397,4.5397,4.5397,4.5397,4.5276,4.4677,4.4509,4.407,4.2245,4.1945,4.156,3.9537,3.924,3.9393,3.9393,3.9359,3.9291,3.9195,3.8571,3.7779,3.682,3.6101,3.5915,3.6694,3.7432,3.8176,3.8916,4.0933,4.1918,4.1031,4.3975,4.6397,4.7562,4.9678,5.1674,5.3416,5.2402,5.2317,5.3467,5.3501,5.3501,5.3501,5.3501,5.3501,5.3501,5.3501,5.3501,5.3501,5.3501,5.3501,5.3501,5.3501,5.3501,5.3619,5.509,5.5699,5.5851,5.7323,5.79,5.79,5.79,5.79,5.79,2.5438,2.5613,2.5891,2.63,2.6622,2.6875,2.709,2.7511,2.9323,3.3588,3.5591,3.7747,4.0712,4.2108,4.2947,4.3286,4.3304,4.2732,4.1379,4.1071,4.0983,4.1115,3.9491,3.9452,4.1353,3.7101,3.4382,3.3367,3.055,2.8595,2.751,2.7692,2.8351,2.9411,2.9411,3.2051,3.6622,3.8623,4.1181,4.3997,4.5001,4.4634,0.0,4.4897,4.46,4.3647,4.4945,4.5397,4.5397,4.5397,4.5397,4.5397,4.5397,4.5397,4.5397,4.5397,4.5397,4.5397,4.5397,4.5656,4.5707,4.4806,4.5069,4.4943,4.2641,4.2405,4.2645,4.2645,4.2199,4.2114,4.3211,4.1231,3.8664,3.6357,3.6072,3.6457,3.729,3.7977,3.8674,3.9464,4.0972,4.1593,4.0675,4.435,4.6921,4.7259,4.8817,5.0423,5.1928,5.1488,5.1742,5.2942,5.3315,5.3501,5.3501,5.3501,5.3501,5.3501,5.3501,5.3501,5.3501,5.3501,5.3501,5.3501,5.3501,5.3687,5.4076,5.5209,5.5885,5.6308,5.7442,5.79,5.79,5.79,5.79,5.79,2.6945,2.6994,2.7034,2.7034,2.9144,3.0853,3.086,2.9343,2.9802,3.4287,3.553,3.7034,3.9785,4.2221,4.39,4.4542,4.4614,4.3582,4.1195,4.3273,4.3518,4.1131,4.3337,4.4649,4.4756,4.2221,3.9307,3.6057,3.3563,3.0985,2.8403,2.8506,2.9317,3.0705,3.0705,3.2534,3.5915,4.0193,4.2176,4.2612,4.46,4.5397,4.5397,4.5397,4.5397,4.5397,4.5397,4.5397,4.5397,4.5397,4.5397,4.5397,4.5397,4.5397,4.5397,4.5397,4.5466,4.5552,4.5552,4.6134,4.6772,4.6858,4.7858,4.8106,4.5459,4.5408,4.5906,4.5906,4.4341,4.4315,4.8738,4.4393,3.9365,3.7011,3.7211,3.7978,3.8834,3.9336,3.9895,4.0538,4.0756,0.0,4.1077,4.4381,4.6819,4.7566,4.7701,4.8479,5.0152,5.0676,5.1387,5.2418,5.3145,5.3501,5.3501,5.3501,5.3501,5.3501,5.3501,5.3501,5.3501,5.3501,5.3501,5.3501,5.3501,5.3923,5.4651,5.5395,5.6189,5.7002,5.7663,5.79,5.79,5.79,5.79,5.79,2.7181,2.7165,2.7156,2.7156,2.9669,3.2411,3.4568,3.6176,3.7471,3.8378,4.1041,4.3077,4.3629,4.4118,4.446,4.4596,4.4614,4.4403,4.391,4.4321,4.4385,4.3892,4.4349,4.4917,4.5577,4.2515,3.9582,3.6887,3.4351,3.1481,2.842,2.9023,2.9817,3.0705,3.0705,3.3413,3.8174,4.0865,4.3095,4.4828,4.5242,4.5397,4.5397,4.5397,4.5397,4.5397,4.5397,4.5397,4.5397,4.5397,4.5397,4.5397,4.5397,4.5397,4.5397,4.5397,4.5876,4.6393,4.6393,4.6945,4.7651,4.8272,4.8603,4.8827,4.8947,4.9085,4.9172,4.9172,4.8861,4.8293,4.7358,4.4574,4.1636,3.9224,4.0493,4.2018,4.2779,4.2979,4.2868,4.2424,4.3857,4.3725,4.0743,4.32,4.5294,4.6041,4.665,4.8173,5.0863,4.9982,5.0591,5.3213,5.3433,5.3501,5.3501,5.3501,5.3501,5.3501,5.3501,5.3501,5.3501,5.3501,5.3501,5.3501,5.3501,5.3923,5.4651,5.5395,5.6494,5.773,5.7849,5.79,5.79,5.79,5.79,5.79,2.8863,2.8908,2.9312,3.0566,3.3045,3.571,3.8214,4.095,4.2069,4.0263,4.1474,4.2686,4.3094,4.4384,4.5381,4.582,4.5838,4.5838,4.5838,4.5838,4.5838,4.5838,4.5838,4.6034,4.6409,4.4862,4.2022,3.7826,3.659,3.3889,2.987,3.021,3.0751,3.1479,3.2546,3.4448,3.707,4.0538,4.2642,4.3751,4.4928,4.5397,4.5397,4.5397,4.5397,4.5397,4.5397,4.5397,4.5397,4.5397,4.5397,4.5397,4.5397,4.5703,4.6031,4.6031,4.6565,4.7169,4.7169,4.7703,4.8358,4.872,4.9117,4.9513,4.991,5.0011,5.0011,5.0011,5.0011,4.9304,4.7014,4.5005,4.318,4.1621,4.1873,4.2706,4.3945,4.4668,4.4991,4.4702,4.4773,4.4429,4.3306,4.3382,4.3959,4.5058,4.6515,4.8325,5.0507,4.9965,5.0591,5.2807,5.3281,5.3501,5.3501,5.3501,5.3501,5.3501,5.3501,5.3501,5.3501,5.3501,5.3501,5.3501,5.3501,5.4143,5.526,5.6376,5.7256,5.79,5.79,5.79,5.79,5.79,5.79,5.79,3.1056,3.1271,3.202,3.4418,3.6925,3.921,4.1074,4.4036,4.5,4.2094,4.1849,4.2196,4.2844,4.4785,4.6302,4.6938,4.7009,4.7009,4.7009,4.7009,4.7009,4.7009,4.7009,4.7009,4.7009,4.7009,4.4452,3.9272,3.8925,3.64,3.1898,3.1556,3.1882,3.2836,3.4466,3.5742,3.6881,4.0486,4.228,4.2871,4.4686,4.5397,4.5397,4.5397,4.5397,4.5397,4.5397,4.55,4.5656,4.5656,4.5656,4.5656,4.5656,4.6203,4.6824,4.6824,4.7358,4.7927,4.7927,4.8479,4.9065,4.9065,4.9531,5.0011,5.0011,5.0011,5.0011,5.0011,5.0011,4.9304,4.7014,4.5992,4.5161,4.4104,4.3709,4.4066,4.5544,4.6608,4.7229,4.7169,4.5963,4.5432,4.6175,4.4698,4.416,4.5281,4.6783,4.8377,5.0015,5.01,5.0693,5.2029,5.2841,5.3179,5.301,5.3348,5.3501,5.3501,5.3501,5.3501,5.3501,5.3501,5.3501,5.3501,5.3501,5.4346,5.58,5.7289,5.79,5.79,5.79,5.79,5.79,5.79,5.79,5.79,3.3322,3.375,3.4508,3.6854,3.9817,4.1923,4.2155,4.4867,4.6516,4.5454,4.5947,4.6428,4.65,4.6736,4.692,4.6991,4.7009,4.7009,4.7009,4.7009,4.7009,4.7009,4.7009,4.7009,4.7009,4.7009,4.5272,4.176,4.0306,3.7747,3.4161,3.2702,3.3052,3.4927,3.5114,3.7502,4.1383,4.1814,4.3199,4.5087,4.5311,4.5397,4.5397,4.5397,4.5397,4.5397,4.5397,4.5876,4.6479,4.6479,4.6479,4.6479,4.6479,4.6996,4.76,4.76,4.8117,4.8703,4.8703,4.9289,4.989,4.989,4.9942,5.0011,5.0011,5.0011,5.0011,5.0011,5.0011,4.9304,4.7014,4.8169,4.8769,4.6617,4.7945,4.9531,5.0341,5.0568,5.0398,4.974,4.9415,4.8758,4.7477,4.7531,4.7714,4.785,4.7278,4.7849,4.9998,5.01,5.0473,5.1286,5.2029,5.2097,5.1421,5.279,5.3501,5.3501,5.3501,5.3501,5.3501,5.3501,5.3501,5.3501,5.3501,5.4346,5.58,5.7289,5.79,5.79,5.79,5.79,5.79,5.79,5.79,5.79,3.7896,3.8178,3.9008,4.1632,4.3131,4.4558,4.6246,4.7575,4.8253,4.7949,4.7372,4.7009,4.7009,4.7009,4.7009,4.7009,4.7009,4.7009,4.7009,4.7009,4.7009,4.7009,4.7009,4.7009,4.7009,4.7009,4.5673,4.2942,4.0839,3.8378,3.5624,3.4969,3.5831,3.795,3.9192,4.0769,4.2562,4.3928,4.495,4.5637,4.5637,4.555,4.5397,4.5397,4.569,4.6117,4.6117,4.6617,4.7255,4.7255,4.7255,4.7255,4.7255,4.7772,4.8358,4.8358,4.891,4.9513,4.9513,4.9755,5.0011,5.0011,5.0011,5.0011,5.0011,5.0011,5.0011,5.0011,5.0011,4.9717,4.8807,4.8617,4.8617,4.8634,4.8996,4.9703,5.0927,5.1892,5.2373,5.208,5.119,5.0479,5.0218,4.9125,4.8741,4.9464,4.9058,4.9169,5.0049,5.1043,5.167,5.186,5.2686,5.2957,5.2571,5.3179,5.3501,5.3501,5.3501,5.3501,5.3501,5.3501,5.3501,5.3551,5.4448,5.5158,5.58,5.7289,5.79,5.79,5.79,5.79,5.79,5.79,5.79,5.79,4.2425,4.2654,4.3515,4.6194,4.6651,4.7318,4.9315,4.9611,4.9611,4.9611,4.8681,4.792,4.7699,4.7676,4.7676,4.7676,4.7676,4.7568,4.7366,4.7348,4.7241,4.7009,4.7009,4.7009,4.7009,4.7009,4.6188,4.4535,4.2134,4.0081,3.8376,3.7626,3.8472,4.0668,4.2141,4.3171,4.3898,4.5423,4.5975,4.5786,4.5709,4.5576,4.5432,4.5656,4.6117,4.6634,4.6841,4.7393,4.8031,4.8031,4.8186,4.8324,4.81,4.8548,4.9151,4.9151,4.9565,5.0011,5.0011,5.0011,5.0011,5.0011,5.0011,5.0011,5.0011,5.0011,5.0011,5.0011,5.0011,5.0011,5.0011,4.91,4.8807,5.0114,4.9858,5.0013,5.1548,5.2718,5.3322,5.308,5.2082,5.1589,5.2031,5.0562,4.9945,5.0811,5.1099,5.1124,5.084,5.1954,5.2462,5.2158,5.2953,5.3226,5.2924,5.3298,5.3501,5.3501,5.3501,5.3501,5.3501,5.3501,5.3501,5.3568,5.482,5.5496,5.58,5.7053,5.7714,5.79,5.79,5.79,5.79,5.79,5.79,5.79,4.6367,4.6833,4.7563,4.9922,5.0331,5.0349,5.0375,5.0386,5.0386,5.0386,5.0357,5.009,4.9353,4.9257,4.9257,4.9257,4.9257,4.8948,4.8234,4.8181,4.783,4.7027,4.7009,4.7009,4.7009,4.7009,4.6991,4.6955,4.4607,4.3334,4.3048,4.0538,4.057,4.2761,4.2796,4.4056,4.6151,4.5907,4.5799,4.5773,4.5511,4.5397,4.5483,4.6272,4.6583,4.6686,4.7427,4.8169,4.8789,4.8789,4.9306,4.9824,4.9048,4.9341,4.9993,4.9993,4.9979,5.0011,5.0011,5.0011,5.0011,5.0011,5.0011,5.0011,5.0011,5.0011,5.0011,5.0011,5.0011,5.0011,5.0011,4.9993,5.0235,5.0962,5.1082,5.1599,5.3166,5.3391,5.3115,5.2306,5.2203,5.2203,5.2203,5.2049,5.1972,5.1989,5.3205,5.354,5.2613,5.2596,5.237,5.1808,5.2335,5.2256,5.154,5.2839,5.3501,5.3501,5.3501,5.3501,5.3501,5.3501,5.3501,5.3551,5.4279,5.5023,5.5767,5.6511,5.7239,5.79,5.79,5.79,5.79,5.79,5.79,5.79,4.9825,4.9963,5.0295,5.1377,5.1546,5.1676,5.1992,5.2051,5.2051,5.2051,5.2051,5.1945,5.1699,5.0702,4.9962,4.9739,4.9716,4.9493,4.899,4.8948,4.8853,4.8574,4.8574,4.8574,4.8574,4.8574,4.8574,4.8574,4.6219,4.5038,4.4947,4.4145,4.5,4.7234,4.7234,4.7631,4.8305,4.8035,4.7809,4.7617,4.7347,4.7124,4.6996,4.7255,4.7669,4.8134,4.8376,4.8962,4.9617,4.9617,4.9804,4.9959,4.9703,4.9789,5.0011,5.0011,5.0011,5.0011,5.0011,5.0011,5.0011,5.0011,5.0011,5.0011,5.0011,5.0011,5.0011,5.0011,5.0011,5.0011,5.0011,5.0424,5.0824,5.1065,5.1979,5.2839,5.3339,5.3839,5.4047,5.3789,5.3772,5.3772,5.3772,5.374,5.3232,5.2075,5.2406,5.2228,5.1287,5.28,5.3328,5.2561,5.3277,5.347,5.3003,5.3413,5.3584,5.3501,5.3501,5.3501,5.3501,5.3501,5.3501,5.3551,5.4279,5.5023,5.5767,5.6511,5.7222,5.79,5.79,5.79,5.79,5.79,5.79,5.79,5.2308,5.2308,5.2391,5.2699,5.2734,5.283,5.3122,5.3183,5.3183,5.3183,5.3183,5.3183,5.3183,5.2277,5.1478,5.103,5.0992,5.0701,5.002,4.9978,4.9764,4.9323,4.9293,4.9293,4.9293,4.9293,4.9293,4.9293,4.7825,4.7111,4.7111,4.7111,4.7896,4.9293,4.9293,4.9245,4.9124,4.8864,4.8585,4.833,4.8055,4.7855,4.7738,4.8013,4.841,4.8827,4.9151,4.9565,5.0011,5.0011,5.0011,5.0011,5.0011,5.0011,5.0011,5.0011,5.0011,5.0011,5.0011,5.0011,5.0011,5.0011,5.0011,5.0011,5.0011,5.0011,5.0011,5.0011,5.0011,5.0082,5.0358,5.0789,5.1289,5.1858,5.277,5.3494,5.377,5.4218,5.4289,5.3703,5.3634,5.3634,5.3634,5.3634,5.3447,5.2975,5.2941,5.2688,5.2114,5.2886,5.3401,5.3505,5.3967,5.4093,5.3881,5.375,5.3651,5.3584,5.3534,5.3501,5.3501,5.3501,5.3501,5.3534,5.3991,5.4821,5.5838,5.6225,5.7021,5.8007,5.7918,5.79,5.79,5.79,5.79,5.79,5.3803,5.3803,5.3803,5.3803,5.3803,5.3803,5.3803,5.3803,5.3803,5.3803,5.3803,5.3803,5.3803,5.3803,5.3551,5.2926,5.285,5.2367,5.1291,5.1214,5.0727,4.9597,4.9538,4.9538,4.9538,4.9538,4.9526,4.9502,4.9478,4.9466,4.9466,4.9466,4.9466,4.9466,4.9442,4.9296,4.9053,4.8756,4.8487,4.8238,4.7969,4.7858,4.7927,4.8634,4.8893,4.8979,4.972,5.0011,5.0011,5.0011,5.0011,5.0011,5.0011,5.0011,5.0011,5.0011,5.0011,5.0011,5.0011,5.0011,5.0011,5.0011,5.0011,5.0011,5.0011,5.0011,5.0011,5.0011,5.0011,5.0235,5.0962,5.1134,5.1651,5.3166,5.3442,5.3718,5.4392,5.4496,5.3961,5.253,5.2358,5.2358,5.2358,5.2358,5.291,5.4237,5.4341,5.4341,5.4341,5.2855,5.2771,5.4444,5.4319,5.4206,5.419,5.3881,5.3734,5.3734,5.3584,5.3517,5.3534,5.3517,5.3517,5.3517,5.3517,5.4466,5.5978,5.5804,5.6721,5.8188,5.7991,5.79,5.79,5.79,5.79,5.79,5.3803,5.3803,5.3803,5.3803,5.3803,5.3803,5.3803,5.3803,5.3803,5.3803,5.3803,5.3803,5.3803,5.3803,5.3745,5.358,5.3339,5.2953,5.2432,5.241,5.2274,5.1985,5.1966,5.1966,5.1966,5.1966,5.1812,5.1514,5.1249,5.1137,5.1137,5.1137,5.1137,5.1107,5.0924,5.0796,5.0693,5.0173,4.9913,4.9834,4.9556,4.9462,4.9462,4.9651,4.972,4.9737,4.9927,5.0011,5.0011,5.0011,5.0011,5.0011,5.0011,5.0011,5.0011,5.0011,5.0011,5.0011,5.0011,5.0011,5.0011,5.0011,5.0011,5.0011,5.0011,5.0011,5.0011,5.0011,5.0011,5.0235,5.0962,5.1565,5.2255,5.3253,5.3873,5.4305,5.4478,5.4496,5.4358,5.3996,5.3961,5.3961,5.3961,5.3961,5.3616,5.2806,5.2737,5.2737,5.2737,5.2379,5.2879,5.4444,5.4464,5.4351,5.419,5.4109,5.4029,5.3931,5.3734,5.3717,5.3883,5.3717,5.3651,5.3651,5.3651,5.455,5.5996,5.6064,5.6932,5.8188,5.8152,5.8044,5.79,5.79,5.79,5.79,5.3803,5.3803,5.3803,5.3803,5.3803,5.3803,5.3803,5.3803,5.3803,5.3803,5.3803,5.3803,5.3803,5.3803,5.3803,5.3803,5.363,5.34,5.3056,5.3034,5.297,5.2806,5.2794,5.2794,5.2794,5.2794,5.2608,5.2196,5.1853,5.1703,5.1703,5.1703,5.1703,5.169,5.1551,5.141,5.1285,5.095,5.0716,5.0564,5.0288,5.0178,5.0163,5.0037,5.0011,5.0011,5.0011,5.0011,5.0011,5.0011,5.0011,5.0011,5.0011,5.0011,5.0011,5.0011,5.0011,5.0011,5.0011,5.0011,5.0011,5.0011,5.0011,5.0011,5.0011,5.0011,5.0011,5.0011,5.0272,5.072,5.1461,5.222,5.2996,5.3787,5.3651,5.3685,5.4392,5.3892,5.3703,5.441,5.4496,5.4496,5.4496,5.4496,5.4151,5.3306,5.3254,5.3254,5.3254,5.3254,5.3634,5.4461,5.4496,5.4448,5.4335,5.4255,5.4126,5.3997,5.3899,5.3899,5.4014,5.3882,5.3783,5.3717,5.38,5.4701,5.6133,5.6167,5.7106,5.8455,5.826,5.8134,5.8026,5.7936,5.79,5.79,5.3803,5.3803,5.3803,5.3803,5.3803,5.3803,5.3803,5.3803,5.3803,5.3803,5.3803,5.3803,5.3803,5.3803,5.3803,5.3803,5.3803,5.3678,5.3381,5.339,5.3238,5.297,5.2948,5.2948,5.2948,5.285,5.2631,5.2297,5.1878,5.1703,5.1703,5.1703,5.1703,5.1703,5.1652,5.1513,5.1298,5.1241,5.1039,5.0725,5.0495,5.0387,5.0316,5.0094,5.0011,5.0011,5.0011,5.0011,5.0011,5.0011,5.0011,5.0011,5.0011,5.0011,5.0011,5.0011,5.0011,5.0011,5.0011,5.0011,5.0011,5.0011,5.0011,5.0011,5.0011,5.0011,5.0031,5.0134,5.0651,5.1358,5.222,5.2927,5.358,5.4065,5.3254,5.2927,5.3996,5.3237,5.303,5.4341,5.4496,5.4496,5.4496,5.4496,5.4496,5.4496,5.4496,5.4496,5.4496,5.4496,5.4496,5.4496,5.4496,5.4496,5.4496,5.4303,5.4159,5.4078,5.4045,5.4045,5.4062,5.4045,5.3948,5.3783,5.3964,5.4849,5.6183,5.6252,5.721,5.8582,5.835,5.8224,5.817,5.7954,5.79,5.79,5.3803,5.3803,5.3803,5.3803,5.3803,5.3803,5.3803,5.3803,5.3803,5.3803,5.3803,5.3803,5.3803,5.3803,5.3803,5.3803,5.3803,5.3784,5.3736,5.3717,5.3698,5.3649,5.3649,5.3649,5.3649,5.3098,5.2772,5.2717,5.203,5.1703,5.1703,5.1703,5.1703,5.169,5.1462,5.135,5.1268,5.1012,5.0712,5.0453,5.0429,5.0246,5.0051,5.0025,5.0011,5.0011,5.0011,5.0011,5.0011,5.0011,5.0011,5.0011,5.0011,5.0011,5.0011,5.0011,5.0011,5.0011,5.0011,5.0011,5.0011,5.0011,5.0011,5.0011,5.0011,5.0011,5.0168,5.0789,5.1013,5.153,5.2959,5.3322,5.3218,5.2651,5.3444,5.3772,5.2703,5.3461,5.422,5.4461,5.4496,5.4496,5.4496,5.4496,5.4496,5.4496,5.4496,5.4496,5.4496,5.4496,5.4496,5.4496,5.4496,5.4496,5.4496,5.4303,5.4271,5.4432,5.4255,5.4255,5.4416,5.4255,5.4142,5.4109,5.4159,5.4689,5.5597,5.6381,5.7121,5.7827,5.8287,5.8349,5.817,5.7954,5.79,5.79,5.3803,5.3803,5.3803,5.3803,5.3803,5.3803,5.3803,5.3803,5.3803,5.3803,5.3803,5.3803,5.3803,5.3803,5.3803,5.3803,5.3803,5.3803,5.3803,5.3803,5.3803,5.3803,5.3803,5.3803,5.3803,5.3133,5.2794,5.2794,5.2066,5.1703,5.1703,5.1703,5.1703,5.169,5.1564,5.1531,5.15,5.1198,5.0986,5.0855,5.054,5.0316,5.0192,5.0051,5.0011,5.0011,5.0011,5.0011,5.0011,5.0011,5.0011,5.0011,5.0011,5.0011,5.0011,5.0011,5.0011,5.0011,5.0011,5.0011,5.0011,5.0011,5.0011,5.0011,5.0011,5.0306,5.0686,5.103,5.1755,5.2563,5.327,5.3718,5.3873,5.3496,5.3341,5.3306,5.3427,5.3341,5.3565,5.4392,5.4496,5.4496,5.4496,5.4496,5.4496,5.4496,5.4496,5.4496,5.4496,5.4496,5.4496,5.4496,5.4496,5.4496,5.4496,5.4399,5.4399,5.4496,5.4416,5.4399,5.4496,5.4399,5.4303,5.4223,5.4319,5.475,5.5475,5.6412,5.7186,5.7809,5.8305,5.8438,5.8313,5.8009,5.79,5.79,5.3803,5.3803,5.3803,5.3803,5.3803,5.3803,5.3803,5.3803,5.3803,5.3803,5.3803,5.3803,5.3803,5.3803,5.3803,5.3803,5.3803,5.3803,5.3803,5.3803,5.3803,5.3803,5.3803,5.3803,5.3803,5.3225,5.2915,5.2915,5.218,5.1822,5.1809,5.174,5.1703,5.1703,5.1703,5.1665,5.1589,5.1384,5.1215,5.1057,5.0596,5.0373,5.0274,5.008,5.0011,5.0011,5.0011,5.0011,5.0011,5.0011,5.0011,5.0011,5.0011,5.0011,5.0011,5.0011,5.0011,5.0011,5.0011,5.0011,5.0011,5.0011,5.0011,5.0045,5.0235,5.0686,5.1203,5.1548,5.258,5.346,5.3632,5.4132,5.4375,5.4013,5.3272,5.3013,5.3841,5.3254,5.3168,5.4358,5.4496,5.4496,5.4496,5.4496,5.4496,5.4496,5.4496,5.4496,5.4496,5.4496,5.4496,5.4496,5.4496,5.4496,5.4496,5.4496,5.4496,5.4496,5.4496,5.4496,5.4496,5.4496,5.4432,5.4287,5.4431,5.4759,5.5266,5.6136,5.696,5.7686,5.8118,5.8389,5.8455,5.8098,5.7936,5.79,5.3803,5.3803,5.3803,5.3803,5.3803,5.3803,5.3803,5.3803,5.3803,5.3803,5.3803,5.3803,5.3803,5.3803,5.3803,5.3803,5.3803,5.3803,5.3803,5.3803,5.3803,5.3803,5.3803,5.3803,5.3803,5.3451,5.3258,5.3258,5.2527,5.2149,5.2167,5.1859,5.1703,5.1703,5.1703,5.1564,5.1337,5.1311,5.0977,5.0471,5.0429,5.0246,5.004,5.0011,5.0011,5.0011,5.0011,5.0011,5.0011,5.0011,5.0011,5.0011,5.0011,5.0011,5.0011,5.0011,5.0011,5.0011,5.0011,5.0011,5.0011,5.0011,5.0011,5.0168,5.0858,5.1065,5.1496,5.2942,5.3322,5.3615,5.4289,5.4461,5.403,5.2599,5.3461,5.3858,5.2548,5.3496,5.4358,5.4494,5.4496,5.4496,5.4496,5.4496,5.4496,5.4496,5.4496,5.4496,5.4496,5.4496,5.4496,5.4496,5.4496,5.4496,5.4496,5.4496,5.4496,5.4496,5.4496,5.4496,5.4496,5.4496,5.4496,5.448,5.4496,5.453,5.4618,5.5375,5.6167,5.6927,5.7466,5.8015,5.8472,5.826,5.8062,5.79,5.3803,5.3803,5.3803,5.3803,5.3803,5.3803,5.3803,5.3803,5.3803,5.3803,5.3803,5.3803,5.3803,5.3803,5.3803,5.3803,5.3803,5.3803,5.3803,5.3803,5.3803,5.3803,5.3803,5.3803,5.3803,5.3481,5.3289,5.3289,5.2802,5.2454,5.2203,5.206,5.1902,5.1703,5.1703,5.164,5.1526,5.1158,5.0861,5.0616,5.0291,5.0094,5.0011,5.0011,5.0011,5.0011,5.0011,5.0011,5.0011,5.0011,5.0011,5.0011,5.0011,5.0011,5.0011,5.0011,5.0011,5.0011,5.0011,5.0011,5.0114,5.0565,5.0668,5.0875,5.1617,5.2168,5.2701,5.3287,5.377,5.4184,5.446,5.4496,5.4306,5.372,5.4116,5.4305,5.3703,5.4134,5.4496,5.4496,5.4496,5.4496,5.4496,5.4496,5.4496,5.4496,5.4496,5.4496,5.4496,5.4496,5.4496,5.4496,5.4496,5.4496,5.4496,5.4496,5.4496,5.4496,5.4496,5.4496,5.4496,5.4496,5.4496,5.4496,5.4496,5.4496,5.4547,5.5289,5.6065,5.6858,5.7397,5.7963,5.8472,5.826,5.808,5.79,5.3813,5.3803,5.3803,5.3803,5.3803,5.3803,5.3803,5.3803,5.3803,5.3803,5.3803,5.3803,5.3803,5.3803,5.3803,5.3803,5.3803,5.3803,5.3803,5.3803,5.3803,5.3803,5.3803,5.3803,5.3803,5.358,5.3461,5.3461,5.3112,5.2765,5.2378,5.2378,5.2197,5.1853,5.1993,5.1988,5.186,5.1249,5.0933,5.0785,5.0217,5.0011,5.0011,5.0011,5.0011,5.0011,5.0011,5.0011,5.0011,5.0011,5.0011,5.0011,5.0011,5.0011,5.0011,5.0011,5.0011,5.0048,5.0287,5.0341,5.0476,5.0962,5.1272,5.1634,5.2392,5.2996,5.3477,5.3701,5.4149,5.4496,5.4496,5.4496,5.4496,5.4496,5.4496,5.4496,5.4496,5.4496,5.4496,5.4496,5.4496,5.4496,5.4496,5.4496,5.4496,5.4496,5.4496,5.4496,5.4496,5.4496,5.4496,5.4496,5.4496,5.4496,5.4496,5.4496,5.4496,5.4496,5.4496,5.4496,5.4496,5.4496,5.4496,5.4496,5.4496,5.4496,5.453,5.5047,5.572,5.6478,5.7103,5.7672,5.8131,5.8246,5.8134,5.79,5.387,5.3794,5.3803,5.3803,5.3803,5.3803,5.3803,5.3803,5.3803,5.3803,5.3803,5.3803,5.3803,5.3803,5.3803,5.3803,5.3803,5.3803,5.3803,5.3803,5.3803,5.3803,5.3803,5.3803,5.3803,5.3803,5.3803,5.3803,5.3471,5.3122,5.2794,5.2794,5.2597,5.2208,5.262,5.2617,5.2264,5.1653,5.1209,5.0832,5.0242,5.0011,5.0011,5.0011,5.0011,5.0011,5.0011,5.0011,5.0011,5.0011,5.0011,5.0011,5.0011,5.0011,5.0011,5.0011,5.0011,5.0183,5.0893,5.1099,5.1117,5.1117,5.1668,5.2427,5.3235,5.3408,5.3632,5.4341,5.4496,5.4496,5.4496,5.4496,5.4496,5.4496,5.4496,5.4496,5.4496,5.4496,5.4496,5.4496,5.4496,5.4496,5.4496,5.4496,5.4496,5.4496,5.4496,5.4496,5.4496,5.4496,5.4496,5.4496,5.4496,5.4496,5.4496,5.4496,5.4496,5.4496,5.4496,5.4496,5.4496,5.4496,5.4496,5.4496,5.4496,5.4496,5.4496,5.4496,5.4927,5.5685,5.6495,5.7019,5.7397,5.82,5.8242,5.79,5.4168,5.3963,5.3803,5.3803,5.3803,5.3803,5.3803,5.3803,5.3803,5.3803,5.3803,5.3803,5.3803,5.3803,5.3803,5.3803,5.3803,5.3803,5.3803,5.3803,5.3803,5.3803,5.3803,5.3803,5.3803,5.3803,5.3803,5.3803,5.3698,5.3481,5.3143,5.3143,5.2962,5.2631,5.275,5.247,5.1922,5.1558,5.1074,5.0516,5.0149,5.0011,5.0011,5.0011,5.0011,5.0011,5.0011,5.0011,5.0011,5.0011,5.0011,5.0011,5.0011,5.0011,5.0011,5.0011,5.0358,5.0824,5.103,5.1875,5.2718,5.2718,5.2891,5.3237,5.4011,5.4184,5.422,5.4444,5.4496,5.4496,5.4496,5.4496,5.4496,5.4496,5.4496,5.4496,5.4496,5.4496,5.4496,5.4496,5.4496,5.4496,5.4496,5.4496,5.4496,5.4496,5.4496,5.4496,5.4496,5.4496,5.4496,5.4496,5.4496,5.4496,5.4496,5.4496,5.4496,5.4496,5.4496,5.4496,5.4496,5.4496,5.4496,5.4496,5.4496,5.4496,5.4496,5.4496,5.4927,5.5685,5.6495,5.7086,5.7604,5.8252,5.8331,5.8098,5.4332,5.4026,5.3803,5.3803,5.3803,5.3803,5.3803,5.3803,5.3803,5.3803,5.3803,5.3803,5.3803,5.3803,5.3803,5.3803,5.3803,5.3803,5.3803,5.3803,5.3803,5.3803,5.3803,5.3803,5.3803,5.3803,5.3803,5.3803,5.3803,5.363,5.33,5.344,5.3328,5.3002,5.3117,5.293,5.2509,5.1813,5.1286,5.0862,5.0246,5.0011,5.0011,5.0011,5.0011,5.0011,5.0011,5.0011,5.0011,5.0011,5.0011,5.0011,5.0011,5.0186,5.0427,5.0427,5.0962,5.1599,5.191,5.2701,5.3477,5.377,5.3839,5.396,5.4408,5.4496,5.4496,5.4496,5.4496,5.4496,5.4496,5.4496,5.4496,5.4496,5.4496,5.4496,5.4496,5.4496,5.4496,5.4496,5.4496,5.4496,5.4496,5.4496,5.4496,5.4496,5.4496,5.4496,5.4496,5.4496,5.4496,5.4496,5.4496,5.4496,5.4496,5.4496,5.4496,5.4496,5.4496,5.4496,5.4496,5.4496,5.4496,5.4496,5.4496,5.4496,5.4496,5.4496,5.4754,5.5237,5.5965,5.6623,5.7244,5.7738,5.8057,5.817,5.4499,5.4184,5.3962,5.4017,5.4007,5.4007,5.4007,5.4007,5.4007,5.4007,5.3952,5.3914,5.3914,5.384,5.3803,5.3803,5.3803,5.3803,5.3803,5.3803,5.3803,5.3803,5.3803,5.3803,5.3803,5.3803,5.3803,5.3803,5.3803,5.3639,5.3341,5.3659,5.363,5.3349,5.3596,5.3656,5.3499,5.2287,5.1734,5.1604,5.0557,5.0135,5.0152,5.0094,5.0066,5.0066,5.0025,5.0011,5.0011,5.0011,5.0045,5.0097,5.0097,5.0599,5.1203,5.1203,5.172,5.2461,5.3201,5.346,5.3667,5.4323,5.4496,5.4496,5.4496,5.4496,5.4496,5.4496,5.4496,5.4496,5.4496,5.4496,5.4496,5.4496,5.4496,5.4496,5.4496,5.4496,5.4496,5.4496,5.4496,5.4496,5.4496,5.4496,5.4496,5.4496,5.4496,5.4496,5.4496,5.4496,5.4496,5.4496,5.4496,5.4496,5.4496,5.4496,5.4496,5.4496,5.4496,5.4496,5.4496,5.4496,5.4496,5.4496,5.4496,5.4496,5.4496,5.4496,5.4496,5.4549,5.5163,5.5853,5.6574,5.6951,5.7577,5.8188,5.5579,5.5365,5.5266,5.5682,5.5763,5.5763,5.5763,5.5763,5.5763,5.5763,5.5159,5.4732,5.4732,5.4174,5.3803,5.3803,5.3803,5.3803,5.3803,5.3803,5.3803,5.3803,5.3803,5.3803,5.3803,5.3803,5.3803,5.3803,5.3803,5.3756,5.3688,5.3774,5.3726,5.3616,5.3666,5.3349,5.2747,5.2443,5.2048,5.1596,5.1347,5.1249,5.121,5.0793,5.063,5.0561,5.0149,5.0011,5.0011,5.0011,5.0375,5.0858,5.0858,5.1375,5.1961,5.1961,5.2513,5.3184,5.3356,5.3822,5.4305,5.4461,5.4496,5.4496,5.4496,5.4496,5.4496,5.4496,5.4496,5.4496,5.4496,5.4496,5.4496,5.4496,5.4496,5.4496,5.4496,5.4496,5.4496,5.4496,5.4496,5.4496,5.4496,5.4496,5.4496,5.4496,5.4496,5.4496,5.4496,5.4496,5.4496,5.4496,5.4496,5.4496,5.4496,5.4496,5.4496,5.4496,5.4496,5.4496,5.4496,5.4496,5.4496,5.4496,5.4496,5.4496,5.4496,5.4496,5.4496,5.4549,5.5163,5.5953,5.6758,5.702,5.7682,5.8367,5.6596,5.6356,5.6161,5.6278,5.6302,5.6302,5.6302,5.6302,5.6302,5.6302,5.5902,5.5623,5.5623,5.5233,5.5001,5.5001,5.5001,5.4825,5.4397,5.436,5.4193,5.3822,5.3803,5.3803,5.3803,5.3803,5.3803,5.3803,5.3803,5.3803,5.3803,5.3774,5.3725,5.3685,5.3558,5.3287,5.2864,5.2558,5.2278,5.1964,5.1688,5.1588,5.1581,5.1288,5.1013,5.0801,5.0882,5.0968,5.1048,5.1048,5.1306,5.1617,5.1617,5.2151,5.2772,5.2772,5.3306,5.391,5.391,5.4218,5.4496,5.4496,5.4496,5.4496,5.4496,5.4496,5.4496,5.4496,5.4496,5.4496,5.4496,5.4496,5.4496,5.4496,5.4496,5.4496,5.4496,5.4496,5.4496,5.4496,5.4496,5.4496,5.4496,5.4496,5.4496,5.4496,5.4496,5.4496,5.4496,5.4496,5.4496,5.4496,5.4496,5.4496,5.4496,5.4496,5.4496,5.4496,5.4496,5.4496,5.4496,5.4496,5.4496,5.4496,5.4496,5.4496,5.4496,5.4496,5.4496,5.4514,5.4669,5.5336,5.6257,5.6491,5.7341,5.8313,5.7548,5.7291,5.7001,5.6744,5.671,5.671,5.671,5.671,5.671,5.671,5.6599,5.6506,5.6506,5.6376,5.6302,5.6302,5.6302,5.5976,5.527,5.5215,5.4917,5.4249,5.423,5.423,5.423,5.423,5.4091,5.3803,5.3803,5.3793,5.3774,5.3724,5.3684,5.3626,5.3408,5.3279,5.3246,5.2754,5.2613,5.2706,5.2258,5.216,5.2267,5.2169,5.1884,5.1556,5.2069,5.2287,5.2336,5.2216,5.2289,5.241,5.241,5.2944,5.3598,5.3598,5.4029,5.4496,5.4496,5.4496,5.4496,5.4496,5.4496,5.4496,5.4496,5.4496,5.4496,5.4496,5.4496,5.4496,5.4496,5.4496,5.4496,5.4496,5.4496,5.4496,5.4496,5.4496,5.4496,5.4496,5.4496,5.4496,5.4496,5.4496,5.4496,5.4496,5.4496,5.4496,5.4496,5.4496,5.4496,5.4496,5.4496,5.4496,5.4496,5.4496,5.4496,5.4496,5.4496,5.4496,5.4496,5.4496,5.4496,5.4496,5.4496,5.4496,5.4496,5.4496,5.4496,5.4464,5.4127,5.4706,5.5794,5.6218,5.7134,5.8116,5.8319,5.8294,5.8298,5.8366,5.8372,5.8372,5.8372,5.8372,5.8372,5.8372,5.7759,5.7332,5.7332,5.6729,5.6302,5.6302,5.6302,5.6246,5.6134,5.6116,5.6079,5.5967,5.5967,5.5967,5.5967,5.5967,5.5261,5.3803,5.3803,5.3774,5.3705,5.3695,5.3586,5.3349,5.3328,5.3274,5.3217,5.3143,5.3495,5.4118,5.4052,5.4444,5.5003,5.4543,5.4321,5.4217,5.3854,5.3405,5.29,5.2381,5.2651,5.3253,5.3253,5.3753,5.4341,5.4341,5.441,5.4496,5.4496,5.4496,5.4496,5.4496,5.4496,5.4496,5.4496,5.4496,5.4496,5.4496,5.4496,5.4496,5.4496,5.4496,5.4496,5.4496,5.4496,5.4496,5.4496,5.4496,5.4496,5.4496,5.4496,5.4496,5.4496,5.4496,5.4496,5.4496,5.4496,5.4496,5.4496,5.4496,5.4496,5.4496,5.4496,5.4496,5.4496,5.4496,5.4496,5.4496,5.4496,5.4496,5.4496,5.4496,5.4496,5.4496,5.4496,5.4496,5.4496,5.4496,5.4496,5.4464,5.4127,5.4984,5.6505,5.7531,5.7928,5.7953,5.9524,5.9512,5.9474,5.9341,5.9131,5.8976,5.8976,5.8815,5.8706,5.8706,5.839,5.8167,5.8167,5.7852,5.7629,5.7629,5.7629,5.7453,5.7008,5.697,5.6766,5.632,5.6302,5.6302,5.6302,5.6302,5.59,5.5089,5.5089,5.5069,5.5037,5.4934,5.482,5.4688,5.4617,5.4582,5.4546,5.4546,5.4748,5.5071,5.5071,5.5273,5.5563,5.5343,5.5065,5.4774,5.4663,5.4524,5.4337,5.4077,5.4009,5.3996,5.3996,5.4237,5.4496,5.4496,5.4496,5.4496,5.4496,5.4496,5.4496,5.4496,5.4496,5.4496,5.4496,5.4496,5.4496,5.4496,5.4496,5.4496,5.4496,5.4496,5.4496,5.4496,5.4496,5.4496,5.4496,5.4496,5.4496,5.4496,5.4496,5.4496,5.4496,5.4496,5.4496,5.4496,5.4496,5.4496,5.4496,5.4496,5.4496,5.4496,5.4496,5.4496,5.4496,5.4496,5.4496,5.4496,5.4496,5.4496,5.4496,5.4496,5.4496,5.4496,5.4496,5.4496,5.4496,5.4496,5.4496,5.4464,5.4127,5.4903,5.6338,5.7255,5.7795,5.8062]}]]